ftp/pub/palmer/observations_modified/2019/May/AR190507_BASE.txt

Download

Sample DateTime	Unit Id	WS Avg 2min	WD Avg 2min	WGS 10min	WGD 10min	Air Temp	Rel Humidity	Dew Point	Pyranometer	Quantum	Air Pressure	Snow Level	Rainfall	PW Current	Visibility	CBase 1	CBase 2	CBase 3	Vert Vis
2019/05/07  00:00:00  BASE  17.7282  32   20.7799  27   2.5   100   2.5   0     0     976.4    NA       0.0000   -SN      BR    3800  0    
2019/05/07  00:01:00  BASE  18.3926  32   20.7799  27   2.5   100   2.5   0     0     976.4    NA       0.2540   -SN      BR    2400  0    
2019/05/07  00:02:00  BASE  17.3578  32   20.7799  27   2.4   100   2.4   0     0     976.6    NA       0.0000   -SN      BR    1900  0    
2019/05/07  00:03:00  BASE  17.54    31   21.0563  23   2.4   100   2.4   0     0     976.5    NA       0.2540   -SN      BR    2500  360  
2019/05/07  00:04:00  BASE  17.7517  26   21.0563  23   2.4   100   2.4   0     0     976.6    NA       0.0000   -SN      BR    3500  0    
2019/05/07  00:05:00  BASE  16.2876  21   21.0563  23   2.4   100   2.4   0     0     976.7    NA       0.0000   -SN      BR    4000  0    
2019/05/07  00:06:00  BASE  15.7702  24   21.0563  23   2.4   100   2.4   0     0     976.7    NA       0.0000   -SN      BR    4900  0    
2019/05/07  00:07:00  BASE  16.5875  26   21.0563  23   2.5   100   2.5   0     0     976.7    NA       0.0000   -SN      BR    4600  0    
2019/05/07  00:08:00  BASE  17.3695  26   21.0563  23   2.5   100   2.5   0     0     976.6    NA       0.2540   -SN      BR    4600  0    
2019/05/07  00:09:00  BASE  17.7988  27   21.0563  23   2.6   100   2.6   0     0     976.6    NA       0.0000   -SN      BR    5000  390  
2019/05/07  00:10:00  BASE  18.0869  28   21.2033  27   2.6   100   2.6   0     0     976.6    NA       0.0000   -SN      BR    6000  390  
2019/05/07  00:11:00  BASE  18.6866  31   21.2033  27   2.6   100   2.6   0     0     976.6    NA       0.0000   -SN      BR    8000  0    
2019/05/07  00:12:00  BASE  18.716   30   21.2033  27   2.6   100   2.6   0     0     976.7    NA       0.0000   -SN      BR    5000  0    
2019/05/07  00:13:00  BASE  17.5577  26   21.2033  27   2.6   100   2.6   0     0     976.7    NA       0.0000   -SN      BR    4600  0    
2019/05/07  00:14:00  BASE  17.5165  26   21.2033  27   2.6   100   2.6   0     0     976.7    NA       0.0000   -SN      BR    5000  0    
2019/05/07  00:15:00  BASE  17.9752  26   21.2033  27   2.6   100   2.6   0     0     976.7    NA       0.0000   -SN      BR    5000  0    
2019/05/07  00:16:00  BASE  18.1104  28   21.2033  27   2.6   100   2.6   0     0     976.6    NA       0.0000   -SN      BR    5000  390  
2019/05/07  00:17:00  BASE  18.3397  30   21.2033  27   2.6   100   2.6   0     0     976.6    NA       0.2540   -SN      BR    5000  390  
2019/05/07  00:18:00  BASE  18.1574  27   21.2033  27   2.6   100   2.6   0     0     976.7    NA       0.0000   -SN      BR    6000  430  
2019/05/07  00:19:00  BASE  18.034   23   21.2033  27   2.6   100   2.6   0     0     976.7    NA       0.0000   -SN      BR    6000  390  
2019/05/07  00:20:00  BASE  18.375   25   21.1445  25   2.7   100   2.7   0     0     976.7    NA       0.0000   -SN      BR    6000  360  
2019/05/07  00:21:00  BASE  18.4338  27   21.1445  25   2.7   100   2.7   0     0     976.8    NA       0.0000   -SN      BR    7000  390  
2019/05/07  00:22:00  BASE  17.9575  27   21.1445  25   2.7   100   2.7   0     0     976.9    NA       0.0000   -SN      BR    9000  390  
2019/05/07  00:23:00  BASE  16.8638  28   21.1445  25   2.7   100   2.7   0     0     977.0    NA       0.0000   -SN      BR    9000  330  
2019/05/07  00:24:00  BASE  16.0642  23   21.1445  25   2.7   100   2.7   0     0     977.0    NA       0.0000   -SN      BR    9999  430  
2019/05/07  00:25:00  BASE  16.3346  19   21.1445  25   2.6   100   2.6   0     0     976.9    NA       0.0000   -SN      BR    9999  360  
2019/05/07  00:26:00  BASE  17.4107  27   21.1445  25   2.6   100   2.6   0     0     976.8    NA       0.0000   -SN      BR    9999  390  
2019/05/07  00:27:00  BASE  17.5283  31   21.1445  25   2.6   100   2.6   0     0     976.9    NA       0.0000   -SN      BR    9999  360  
2019/05/07  00:28:00  BASE  17.0873  28   20.2684  19   2.6   100   2.6   0     0     976.8    NA       0.0000   -SN      BR    9999  360  
2019/05/07  00:29:00  BASE  18.0516  27   20.2037  33   2.7   100   2.7   0     0     976.8    NA       0.0000   -SN      BR    8000  330  
2019/05/07  00:30:00  BASE  17.7752  26   20.2037  33   2.7   100   2.7   0     0     976.9    NA       0.0000   -SN      BR    9000  390  
2019/05/07  00:31:00  BASE  16.9344  24   20.2037  33   2.7   100   2.7   0     0     976.9    NA       0.0000   -SN      BR    9999  2230 
2019/05/07  00:32:00  BASE  15.4232  24   20.2037  33   2.7   100   2.7   0     0     977.0    NA       0.0000   -SN      9999  2130  0    
2019/05/07  00:33:00  BASE  15.0587  25   20.2037  33   2.7   100   2.7   0     0     976.9    NA       0.0000   -SN      9999  2030  0    
2019/05/07  00:34:00  BASE  15.7643  25   20.2037  33   2.7   100   2.7   0     0     977.0    NA       0.0000   -SN      9999  1540  0    
2019/05/07  00:35:00  BASE  14.6882  25   20.2037  33   2.8   100   2.8   0     0     977.0    NA       0.0000   -SN      9999  1540  0    
2019/05/07  00:36:00  BASE  14.9234  26   19.7215  29   2.8   100   2.8   0     0     976.9    NA       0.0000   -SN      9999  1280  2030 
2019/05/07  00:37:00  BASE  16.4287  27   19.7215  29   2.8   100   2.8   0     0     976.8    NA       0.0000   -SN      9999  1740  0    
2019/05/07  00:38:00  BASE  16.7227  28   19.7215  29   2.9   100   2.9   0     0     976.9    NA       0.0000   -SN      9999  1840  0    
2019/05/07  00:39:00  BASE  16.6757  25   18.9983  22   2.9   100   2.9   0     0     976.9    NA       0.0000   -SN      9999  1210  0    
2019/05/07  00:40:00  BASE  15.9877  21   18.9983  22   2.9   100   2.9   0     0     977.1    NA       0.0000   -SN      9999  1510  0    
2019/05/07  00:41:00  BASE  14.6824  17   18.9983  22   3.0   100   3.0   0     0     977.2    NA       0.0000   -SN      9999  330   0    
2019/05/07  00:42:00  BASE  14.3354  17   18.9983  22   3.0   100   3.0   0     0     977.1    NA       0.0000   -SN      9999  330   0    
2019/05/07  00:43:00  BASE  13.9709  17   18.9983  22   2.9   100   2.9   0     0     977.1    NA       0.0000   -SN      9999  360   0    
2019/05/07  00:44:00  BASE  14.2884  20   18.9983  22   2.9   100   2.9   0     0     976.9    NA       0.0000   -SN      9999  2230  0    
2019/05/07  00:45:00  BASE  15.6408  24   18.9983  22   2.9   100   2.9   0     0     976.8    NA       0.0000   -SN      9999  430   1970 
2019/05/07  00:46:00  BASE  15.9054  22   18.9983  22   2.9   100   2.9   0     0     976.9    NA       0.0000   -SN      7000  260   0    
2019/05/07  00:47:00  BASE  15.6761  20   18.8748  24   2.9   100   2.9   0     0     976.8    NA       0.0000   -SN      5000  300   0    
2019/05/07  00:48:00  BASE  15.7878  19   18.8748  24   2.9   100   2.9   0     0     976.9    NA       0.2540   -SN      8000  360   0    
2019/05/07  00:49:00  BASE  15.0234  17   17.0932  29   2.9   100   2.9   0     0     977.0    NA       0.0000   -SN      9999  2260  0    
2019/05/07  00:50:00  BASE  14.9528  19   18.1516  16   2.9   100   2.9   0     0     976.8    NA       0.0000   -SN      9999  430   0    
2019/05/07  00:51:00  BASE  15.7114  19   18.1516  16   2.9   100   2.9   0     0     976.8    NA       0.0000   -SN      9999  430   0    
2019/05/07  00:52:00  BASE  15.8348  18   18.1516  16   2.9   100   2.9   0     0     976.8    NA       0.0000   -SN      9999  330   2260 
2019/05/07  00:53:00  BASE  15.829   19   18.1516  16   2.9   100   2.9   0     0     976.8    NA       0.0000   -SN      9999  390   0    
2019/05/07  00:54:00  BASE  15.8642  22   18.1516  16   2.9   100   2.9   0     0     976.8    NA       0.0000   -SN      9999  2100  0    
2019/05/07  00:55:00  BASE  15.9995  19   18.1516  16   3.0   100   3.0   0     0     976.8    NA       0.0000   -SN      9999  2030  0    
2019/05/07  00:56:00  BASE  15.8995  11   18.1516  16   3.0   100   3.0   0     0     976.9    NA       0.0000   -SN      9999  1870  0    
2019/05/07  00:57:01  BASE  15.729   10   18.1516  16   3.0   100   3.0   0     0     976.9    NA       0.0000   -SN      9999  1840  0    
2019/05/07  00:58:01  BASE  16.0936  15   18.1516  16   3.0   100   3.0   0     0     976.9    NA       0.0000   -SN      9999  1900  0    
2019/05/07  00:59:01  BASE  15.3586  16   18.1516  16   3.0   100   3.0   0     0     977.0    NA       0.0000   -SN      9999  1840  0    
2019/05/07  01:00:01  BASE  14.8646  12   18.0281  30   2.9   100   2.9   0     0     976.9    NA       0.0000   -SN      9999  1840  2560 
2019/05/07  01:01:01  BASE  15.3233  13   18.0281  30   2.9   100   2.9   0     0     976.9    NA       0.0000   -SN      9999  2000  0    
2019/05/07  01:02:01  BASE  14.8352  15   18.0281  30   2.9   100   2.9   0     0     977.0    NA       0.0000   -SN      9999  1940  0    
2019/05/07  01:03:01  BASE  15.041   16   18.0281  30   2.9   100   2.9   0     0     976.9    NA       0.0000   9999     1940  0     0    
2019/05/07  01:04:01  BASE  15.3527  15   17.9987  20   2.8   100   2.8   0     0     977.0    NA       0.0000   9999     560   3080  0    
2019/05/07  01:05:01  BASE  14.1767  13   17.9987  20   2.8   100   2.8   0     0     977.0    NA       0.0000   9999     0     0     0    
2019/05/07  01:06:01  BASE  13.9121  13   17.9987  20   2.8   100   2.8   0     0     977.0    NA       0.0000   9999     1940  0     0    
2019/05/07  01:07:01  BASE  15.0469  13   17.9987  20   2.8   100   2.8   0     0     976.9    NA       0.0000   9999     1510  0     0    
2019/05/07  01:08:01  BASE  15.3233  14   17.6047  11   2.8   100   2.8   0     0     977.0    NA       0.0000   9999     1840  0     0    
2019/05/07  01:09:01  BASE  14.7529  17   17.6047  11   2.8   100   2.8   0     0     977.0    NA       0.0000   9999     1710  0     0    
2019/05/07  01:10:01  BASE  14.4883  21   17.0932  18   2.8   100   2.8   0     0     977.0    NA       0.0000   9999     1740  0     0    
2019/05/07  01:11:01  BASE  14.359   19   17.0932  18   2.8   100   2.8   0     0     977.1    NA       0.0000   9999     1710  0     0    
2019/05/07  01:12:01  BASE  13.5534  15   17.0932  18   2.9   100   2.9   0     0     977.2    NA       0.0000   9999     1770  2920  0    
2019/05/07  01:13:01  BASE  13.1888  12   16.5169  14   2.9   100   2.9   0     0     977.2    NA       0.0000   9999     1940  2990  0    
2019/05/07  01:14:01  BASE  13.2653  10   16.5169  14   2.9   100   2.9   0     0     977.2    NA       0.0000   9999     1900  2990  0    
2019/05/07  01:15:01  BASE  13.0654  8    16.5169  14   2.9   100   2.9   0     0     977.2    NA       0.0000   9999     1900  3180  0    
2019/05/07  01:16:01  BASE  13.0418  10   16.5169  14   2.9   100   2.9   0     0     977.2    NA       0.0000   9999     2000  3350  0    
2019/05/07  01:17:00  BASE  13.1712  15   16.0936  21   2.9   100   2.9   0     0     977.3    NA       0.0000   9999     1940  3510  0    
2019/05/07  01:18:00  BASE  13.0712  15   16.0936  21   2.9   100   2.9   0     0     977.3    NA       0.0000   9999     1840  3480  0    
2019/05/07  01:19:00  BASE  12.8066  12   16.0936  21   2.9   100   2.9   0     0     977.3    NA       0.0000   9999     2070  3810  0    
2019/05/07  01:20:00  BASE  12.6185  7    15.8525  19   2.9   100   2.9   0     0     977.3    NA       0.0000   9999     2000  3610  0    
2019/05/07  01:21:00  BASE  12.007   5    15.8231  9    2.8   100   2.8   0     0     977.4    NA       0.0000   9999     3310  0     0    
2019/05/07  01:22:00  BASE  12.054   6    15.8231  9    2.8   100   2.8   0     0     977.4    NA       0.0000   9999     3510  0     0    
2019/05/07  01:23:00  BASE  12.3362  5    15.8231  9    2.8   100   2.8   0     0     977.4    NA       0.0000   9999     3710  0     0    
2019/05/07  01:24:00  BASE  11.7247  5    15.8231  9    2.8   100   2.8   0     0     977.4    NA       0.0000   9999     3220  0     0    
2019/05/07  01:25:00  BASE  12.3127  9    15.8231  9    2.8   100   2.8   0     0     977.3    NA       0.0000   9999     3350  0     0    
2019/05/07  01:26:00  BASE  12.6361  9    14.306   12   2.8   100   2.8   0     0     977.3    NA       0.0000   9999     3710  0     0    
2019/05/07  01:27:00  BASE  12.9889  6    15.4879  8    2.8   100   2.8   0     0     977.3    NA       0.0000   9999     2000  3540  0    
2019/05/07  01:28:00  BASE  13.277   6    15.4879  8    2.8   100   2.8   0     0     977.3    NA       0.0000   9999     3310  3940  0    
2019/05/07  01:29:00  BASE  12.2774  4    15.4879  8    2.8   100   2.8   0     0     977.4    NA       0.0000   9999     3810  0     0    
2019/05/07  01:30:00  BASE  11.9599  4    15.4879  8    2.9   100   2.9   0     0     977.4    NA       0.0000   9999     3480  0     0    
2019/05/07  01:31:00  BASE  12.7067  7    15.4879  8    2.9   100   2.9   0     0     977.3    NA       0.0000   9999     3640  0     0    
2019/05/07  01:32:00  BASE  13.0007  5    15.4879  8    2.9   100   2.9   0     0     977.4    NA       0.0000   9999     3670  0     0    
2019/05/07  01:33:00  BASE  11.9658  2    15.4879  8    3.0   100   3.0   0     0     977.4    NA       0.0000   9999     3350  0     0    
2019/05/07  01:34:00  BASE  11.9188  3    15.4879  8    3.0   100   3.0   0     0     977.4    NA       0.0000   9999     2030  3540  0    
2019/05/07  01:35:00  BASE  12.1716  3    15.4879  8    3.1   100   3.1   0     0     977.5    NA       0.0000   9999     2030  3580  0    
2019/05/07  01:36:00  BASE  11.9129  1    15.4879  8    3.1   100   3.1   0     0     977.4    NA       0.0000   9999     2000  3380  0    
2019/05/07  01:37:00  BASE  11.8482  3    14.4883  3    3.1   100   3.1   0     0     977.5    NA       0.0000   9999     2950  3770  0    
2019/05/07  01:38:00  BASE  12.0187  3    14.4883  3    3.1   100   3.1   0     0     977.5    NA       0.0000   9999     3050  0     0    
2019/05/07  01:39:00  BASE  12.5185  4    14.4883  3    3.1   100   3.1   0     0     977.4    NA       0.0000   9999     3220  0     0    
2019/05/07  01:40:00  BASE  12.5479  7    14.4883  3    3.1   100   3.1   0     0     977.4    NA       0.0000   9999     3380  0     0    
2019/05/07  01:41:00  BASE  11.9834  10   14.4883  3    3.1   100   3.1   0     0     977.4    NA       0.0000   9999     3120  0     0    
2019/05/07  01:42:00  BASE  11.513   13   13.671   6    3.1   100   3.1   0     0     977.4    NA       0.0000   9999     3020  0     0    
2019/05/07  01:43:00  BASE  11.7424  11   13.671   6    3.1   100   3.1   0     0     977.4    NA       0.0000   9999     3280  0     0    
2019/05/07  01:44:00  BASE  12.2128  5    14.0944  2    3.1   100   3.1   0     0     977.3    NA       0.0000   9999     3480  0     0    
2019/05/07  01:45:00  BASE  11.5601  3    14.0944  2    3.2   100   3.2   0     0     977.4    NA       0.0000   9999     3640  0     0    
2019/05/07  01:46:00  BASE  11.125   1    14.0944  2    3.2   100   3.2   0     0     977.4    NA       0.0000   9999     3250  0     0    
2019/05/07  01:47:00  BASE  11.0779  1    14.0944  2    3.1   100   3.1   0     0     977.5    NA       0.0000   9999     3120  3710  0    
2019/05/07  01:48:00  BASE  9.98424  5    14.0944  2    3.1   100   3.1   0     0     977.5    NA       0.0000   9999     2230  3380  0    
2019/05/07  01:49:00  BASE  10.5134  11   14.0944  2    3.1   100   3.1   0     0     977.3    NA       0.0000   9999     2130  3510  0    
2019/05/07  01:50:00  BASE  11.6894  14   14.0944  2    3.0   100   3.0   0     0     977.3    NA       0.0000   9999     3580  0     0    
2019/05/07  01:51:00  BASE  11.9305  14   14.0944  2    3.0   100   3.0   0     0     977.2    NA       0.0000   9999     3740  0     0    
2019/05/07  01:52:00  BASE  12.1304  13   14.0944  2    3.0   100   3.0   0     0     977.2    NA       0.0000   9999     3740  0     0    
2019/05/07  01:53:00  BASE  12.5538  14   14.2178  4    3.0   100   3.0   0     0     977.2    NA       0.0000   9999     3870  0     0    
2019/05/07  01:54:00  BASE  12.4362  14   14.2178  4    3.0   100   3.0   0     0     977.2    NA       0.0000   9999     4040  0     0    
2019/05/07  01:55:00  BASE  12.4421  13   14.2178  4    3.0   100   3.0   0     0     977.1    NA       0.0000   9999     3580  0     0    
2019/05/07  01:56:00  BASE  12.6185  13   14.2178  4    3.0   100   3.0   0     0     977.1    NA       0.0000   9999     3450  0     0    
2019/05/07  01:57:00  BASE  12.7126  13   14.2178  4    3.1   100   3.1   0     0     977.0    NA       0.0000   9999     4040  0     0    
2019/05/07  01:58:00  BASE  13.2418  17   14.2178  4    3.1   100   3.1   0     0     977.0    NA       0.0000   9999     4560  0     0    
2019/05/07  01:59:00  BASE  12.9948  19   14.2178  4    3.1   100   3.1   0     0     977.0    NA       0.0000   9999     4490  0     0    
2019/05/07  02:00:00  BASE  12.742   17   14.2178  4    3.1   100   3.1   0     0     977.0    NA       0.0000   9999     4430  5050  0    
2019/05/07  02:01:00  BASE  12.8831  17   14.2178  4    3.1   100   3.1   0     0     976.9    NA       0.0000   9999     4300  0     0    
2019/05/07  02:02:00  BASE  13.2241  16   14.2178  4    3.1   100   3.1   0     0     976.9    NA       0.0000   9999     3970  0     0    
2019/05/07  02:03:00  BASE  13.771   16   15.335   17   3.1   100   3.1   0     0     976.8    NA       0.0000   9999     4630  0     0    
2019/05/07  02:04:00  BASE  13.865   17   15.335   17   3.1   100   3.1   0     0     976.8    NA       0.0000   9999     4400  0     0    
2019/05/07  02:05:00  BASE  13.6828  18   15.335   17   3.1   100   3.1   0     0     976.9    NA       0.0000   9999     4130  0     0    
2019/05/07  02:06:00  BASE  13.3535  20   15.335   17   3.1   100   3.1   0     0     976.9    NA       0.0000   9999     4200  0     0    
2019/05/07  02:07:00  BASE  13.6357  21   15.335   17   3.1   100   3.1   0     0     976.8    NA       0.0000   9999     3380  4270  0    
2019/05/07  02:08:00  BASE  13.4123  22   15.335   17   3.1   100   3.1   0     0     976.9    NA       0.0000   9999     4170  0     0    
2019/05/07  02:09:00  BASE  12.7949  22   15.335   17   3.2   100   3.2   0     0     976.9    NA       0.0000   9999     4230  0     0    
2019/05/07  02:10:00  BASE  13.0771  22   15.335   17   3.2   100   3.2   0     0     976.9    NA       0.0000   9999     4300  0     0    
2019/05/07  02:11:00  BASE  13.1065  22   15.335   17   3.2   100   3.2   0     0     976.9    NA       0.0000   9999     3770  4400  0    
2019/05/07  02:12:00  BASE  12.7714  23   15.335   17   3.2   100   3.2   0     0     976.9    NA       0.0000   9999     3510  0     0    
2019/05/07  02:13:00  BASE  12.6361  23   15.1234  19   3.2   100   3.2   0     0     976.9    NA       0.0000   9999     3250  0     0    
2019/05/07  02:14:00  BASE  12.7831  22   15.1234  19   3.2   100   3.2   0     0     976.9    NA       0.0000   9999     3350  0     0    
2019/05/07  02:15:00  BASE  12.4068  23   15.0352  20   3.2   100   3.2   0     0     977.0    NA       0.0000   9999     3450  0     0    
2019/05/07  02:16:00  BASE  12.3539  21   15.0352  20   3.2   100   3.2   0     0     976.9    NA       0.0000   9999     3740  4360  0    
2019/05/07  02:17:00  BASE  12.6185  20   14.159   20   3.2   100   3.2   0     0     976.9    NA       0.0000   9999     3840  0     0    
2019/05/07  02:18:00  BASE  12.542   21   14.159   20   3.3   100   3.3   0     0     977.0    NA       0.0000   9999     3710  0     0    
2019/05/07  02:19:00  BASE  12.4597  22   14.0944  19   3.3   100   3.3   0     0     977.0    NA       0.0000   9999     4070  0     0    
2019/05/07  02:20:00  BASE  12.3421  20   14.0944  19   3.3   100   3.3   0     0     976.9    NA       0.0000   9999     3940  0     0    
2019/05/07  02:21:00  BASE  11.7012  15   14.0944  19   3.3   100   3.3   0     0     977.0    NA       0.0000   9999     4200  0     0    
2019/05/07  02:22:00  BASE  11.2955  15   14.0944  19   3.3   100   3.3   0     0     977.0    NA       0.0000   9999     4590  0     0    
2019/05/07  02:23:00  BASE  12.1775  17   13.8827  16   3.2   100   3.2   0     0     976.9    NA       0.0000   9999     4530  0     0    
2019/05/07  02:24:00  BASE  12.1951  15   13.8827  16   3.2   100   3.2   0     0     977.0    NA       0.0000   9999     4200  0     0    
2019/05/07  02:25:00  BASE  12.2128  15   13.9474  14   3.2   100   3.2   0     0     977.0    NA       0.0000   9999     4200  0     0    
2019/05/07  02:26:00  BASE  12.7126  15   13.9474  14   3.2   100   3.2   0     0     977.0    NA       0.0000   9999     4070  0     0    
2019/05/07  02:27:00  BASE  12.1304  16   13.9474  14   3.2   100   3.2   0     0     977.0    NA       0.0000   9999     4070  0     0    
2019/05/07  02:28:00  BASE  12.0011  20   13.9474  14   3.2   100   3.2   0     0     977.0    NA       0.0000   9999     4200  0     0    
2019/05/07  02:29:00  BASE  12.6832  21   14.2472  19   3.2   100   3.2   0     0     977.0    NA       0.0000   9999     4270  0     0    
2019/05/07  02:30:00  BASE  12.1657  17   14.2472  19   3.1   100   3.1   0     0     977.1    NA       0.0000   9999     4170  0     0    
2019/05/07  02:31:00  BASE  11.3719  18   14.2472  19   3.1   100   3.1   0     0     977.1    NA       0.0000   9999     4070  0     0    
2019/05/07  02:32:01  BASE  12.0011  19   14.2472  19   3.0   100   3.0   0     0     977.1    NA       0.0000   9999     4130  0     0    
2019/05/07  02:33:01  BASE  12.3304  18   14.2472  19   3.0   100   3.0   0     0     977.1    NA       0.0000   9999     1940  3840  0    
2019/05/07  02:34:00  BASE  12.4244  19   14.2472  19   3.0   100   3.0   0     0     977.2    NA       0.0000   9999     1800  3740  0    
2019/05/07  02:35:01  BASE  12.5656  20   14.2472  19   3.0   100   3.0   0     0     977.2    NA       0.0000   9999     3670  0     0    
2019/05/07  02:36:01  BASE  12.2833  21   14.2472  19   3.0   100   3.0   0     0     977.2    NA       0.0000   9999     1740  3670  0    
2019/05/07  02:37:01  BASE  12.1598  20   14.2472  19   3.0   100   3.0   0     0     977.2    NA       0.0000   9999     1740  3080  3770 
2019/05/07  02:38:01  BASE  12.054   21   14.2472  19   3.0   100   3.0   0     0     977.2    NA       0.0000   9999     3450  0     0    
2019/05/07  02:39:01  BASE  12.0834  22   14.1238  22   3.0   100   3.0   0     0     977.2    NA       0.0000   9999     3640  0     0    
2019/05/07  02:40:01  BASE  12.8125  23   14.3707  23   3.0   100   3.0   0     0     977.2    NA       0.0000   9999     3540  0     0    
2019/05/07  02:41:01  BASE  13.2594  23   14.3707  23   3.0   100   3.0   0     0     977.2    NA       0.0000   9999     1570  0     0    
2019/05/07  02:42:01  BASE  12.6949  24   14.3707  23   3.0   100   3.0   0     0     977.2    NA       0.0000   9999     3050  3970  0    
2019/05/07  02:43:01  BASE  12.2422  24   14.3707  23   3.0   100   3.0   0     0     977.2    NA       0.0000   9999     4170  0     0    
2019/05/07  02:44:01  BASE  11.907   23   14.3707  23   3.0   100   3.0   0     0     977.3    NA       0.0000   9999     4330  0     0    
2019/05/07  02:45:01  BASE  11.6071  21   14.3707  23   3.0   100   3.0   0     0     977.3    NA       0.0000   9999     4460  0     0    
2019/05/07  02:46:01  BASE  11.1485  22   14.3707  23   3.0   100   3.0   0     0     977.3    NA       0.0000   9999     4590  0     0    
2019/05/07  02:47:01  BASE  10.2782  22   14.3707  23   3.0   100   3.0   0     0     977.4    NA       0.0000   9999     4330  0     0    
2019/05/07  02:48:01  BASE  10.3841  21   14.3707  23   3.0   100   3.0   0     0     977.3    NA       0.0000   9999     4460  0     0    
2019/05/07  02:49:01  BASE  11.5542  23   14.3707  23   3.0   100   3.0   0     0     977.1    NA       0.0000   9999     4630  0     0    
2019/05/07  02:50:01  BASE  12.1834  25   14.0356  26   3.0   100   3.0   0     0     977.1    NA       0.0000   9999     4560  0     0    
2019/05/07  02:51:01  BASE  11.9834  25   13.8239  33   3.1   100   3.1   0     0     977.1    NA       0.0000   9999     4820  0     0    
2019/05/07  02:52:01  BASE  12.1069  23   13.8239  33   3.1   100   3.1   0     0     977.1    NA       0.0000   9999     5090  0     0    
2019/05/07  02:53:01  BASE  12.2245  22   13.8239  33   3.1   100   3.1   0     0     977.1    NA       0.0000   9999     4890  0     0    
2019/05/07  02:54:01  BASE  11.7071  26   13.8239  33   3.1   100   3.1   0     0     977.1    NA       0.0000   9999     4040  0     0    
2019/05/07  02:55:01  BASE  11.3249  26   13.8239  33   3.1   100   3.1   0     0     977.1    NA       0.0000   9999     4720  0     0    
2019/05/07  02:56:01  BASE  11.6012  26   13.8239  33   3.1   100   3.1   0     0     977.1    NA       0.0000   9999     1640  2530  4660 
2019/05/07  02:57:01  BASE  11.4542  26   13.8239  33   3.1   100   3.1   0     0     977.2    NA       0.0000   9999     1940  4890  0    
2019/05/07  02:58:01  BASE  11.7306  22   13.8239  33   3.1   100   3.1   0     0     977.2    NA       0.0000   9999     2360  3670  0    
2019/05/07  02:59:01  BASE  11.9834  23   13.8239  33   3.1   100   3.1   0     0     977.2    NA       0.0000   9999     1480  2990  0    
2019/05/07  03:00:01  BASE  11.419   25   13.8239  33   3.1   100   3.1   0     0     977.2    NA       0.0000   9999     2490  3120  0    
2019/05/07  03:01:01  BASE  11.0897  25   13.5534  24   3.1   100   3.1   0     0     977.2    NA       0.0000   9999     1570  0     0    
2019/05/07  03:02:01  BASE  11.2484  25   13.3711  18   3.1   100   3.1   0     0     977.2    NA       0.0000   9999     1410  0     0    
2019/05/07  03:03:01  BASE  11.613   26   13.3711  18   3.1   100   3.1   0     0     977.2    NA       0.0000   9999     1840  4490  0    
2019/05/07  03:04:01  BASE  11.713   26   13.3711  18   3.1   100   3.1   0     0     977.1    NA       0.0000   9999     4170  0     0    
2019/05/07  03:05:01  BASE  11.6071  26   13.3711  18   3.1   100   3.1   0     0     977.1    NA       0.0000   9999     4000  0     0    
2019/05/07  03:06:01  BASE  11.0603  25   13.3711  18   3.1   100   3.1   0     0     977.2    NA       0.0000   9999     3970  0     0    
2019/05/07  03:07:01  BASE  10.9838  24   13.3711  18   3.1   100   3.1   0     0     977.2    NA       0.0000   9999     4130  0     0    
2019/05/07  03:08:01  BASE  11.713   25   13.1006  23   3.1   100   3.1   0     0     977.2    NA       0.0000   9999     4230  0     0    
2019/05/07  03:09:01  BASE  12.0305  26   13.1006  23   3.1   100   3.1   0     0     977.2    NA       0.0000   9999     3900  0     0    
2019/05/07  03:10:01  BASE  11.7541  24   13.1006  23   3.1   100   3.1   0     0     977.3    NA       0.0000   9999     3280  3970  0    
2019/05/07  03:11:01  BASE  11.6071  23   13.1006  23   3.1   100   3.1   0     0     977.3    NA       0.0000   9999     2760  3410  0    
2019/05/07  03:12:01  BASE  12.0128  23   13.4887  21   3.1   100   3.1   0     0     977.3    NA       0.0000   9999     3610  0     0    
2019/05/07  03:13:01  BASE  11.7953  22   13.4887  21   3.1   100   3.1   0     0     977.3    NA       0.0000   9999     3710  0     0    
2019/05/07  03:14:01  BASE  12.0599  21   13.8239  19   3.1   100   3.1   0     0     977.3    NA       0.0000   9999     3710  0     0    
2019/05/07  03:15:01  BASE  12.3186  21   13.8239  19   3.1   100   3.1   0     0     977.3    NA       0.0000   9999     3640  0     0    
2019/05/07  03:16:01  BASE  11.7659  21   13.8239  19   3.1   100   3.1   0     0     977.2    NA       0.0000   9999     3610  0     0    
2019/05/07  03:17:01  BASE  11.8541  23   13.8239  19   3.1   100   3.1   0     0     977.2    NA       0.0000   9999     3640  0     0    
2019/05/07  03:18:01  BASE  11.5013  25   13.8239  19   3.1   100   3.1   0     0     977.2    NA       0.0000   9999     3710  0     0    
2019/05/07  03:19:01  BASE  11.3131  26   13.8239  19   3.1   100   3.1   0     0     977.2    NA       0.0000   9999     3610  0     0    
2019/05/07  03:20:01  BASE  11.6071  25   13.8239  19   3.1   100   3.1   0     0     977.2    NA       0.0000   9999     2360  3670  0    
2019/05/07  03:21:01  BASE  11.4954  25   13.8239  19   3.1   100   3.1   0     0     977.2    NA       0.0000   9999     3410  0     0    
2019/05/07  03:22:01  BASE  11.1426  25   13.8239  19   3.1   100   3.1   0     0     977.2    NA       0.0000   9999     3640  0     0    
2019/05/07  03:23:01  BASE  11.613   25   13.8239  19   3.1   100   3.1   0     0     977.1    NA       0.0000   UP       9999  3840  0    
2019/05/07  03:24:01  BASE  11.5601  24   13.7651  25   3.1   100   3.1   0     0     977.2    NA       0.0000   UP       9999  3870  0    
2019/05/07  03:25:01  BASE  11.1485  24   13.7651  25   3.1   100   3.1   0     0     977.2    NA       0.0000   UP       9999  3940  0    
2019/05/07  03:26:01  BASE  11.566   26   13.7651  25   3.2   100   3.2   0     0     977.2    NA       0.0000   UP       9999  3870  0    
2019/05/07  03:27:01  BASE  11.3778  28   13.7651  25   3.2   100   3.2   0     0     977.2    NA       0.0000   UP       9999  4130  0    
2019/05/07  03:28:01  BASE  11.125   27   13.7651  25   3.2   100   3.2   0     0     977.1    NA       0.0000   UP       9999  4000  0    
2019/05/07  03:29:00  BASE  11.2073  25   13.7651  25   3.2   100   3.2   0     0     977.2    NA       0.0000   UP       9999  4130  5280 
2019/05/07  03:30:01  BASE  11.3954  24   13.7651  25   3.2   100   3.2   0     0     977.1    NA       0.0000   UP       9999  3900  5280 
2019/05/07  03:31:01  BASE  11.5954  24   13.7651  25   3.2   100   3.2   0     0     977.1    NA       0.0000   UP       9999  4040  5320 
2019/05/07  03:32:01  BASE  11.2778  24   13.7651  25   3.2   100   3.2   0     0     977.2    NA       0.0000   9999     4920  0     0    
2019/05/07  03:33:01  BASE  11.0485  25   13.13    28   3.2   100   3.2   0     0     977.1    NA       0.0000   9999     4890  0     0    
2019/05/07  03:34:01  BASE  10.8192  25   13.13    28   3.2   100   3.2   0     0     977.1    NA       0.0000   9999     4430  0     0    
2019/05/07  03:35:01  BASE  10.6781  25   13.13    28   3.2   100   3.2   0     0     977.1    NA       0.0000   9999     4000  0     0    
2019/05/07  03:36:01  BASE  11.219   25   13.1594  20   3.2   100   3.2   0     0     977.1    NA       0.0000   9999     4070  0     0    
2019/05/07  03:37:01  BASE  11.5542  23   13.1594  20   3.2   100   3.2   0     0     977.0    NA       0.0000   9999     4070  0     0    
2019/05/07  03:38:00  BASE  11.5072  23   13.1594  20   3.2   100   3.2   0     0     977.0    NA       0.0000   9999     4170  0     0    
2019/05/07  03:39:00  BASE  11.4366  24   13.1594  20   3.2   100   3.2   0     0     977.0    NA       0.0000   9999     4130  0     0    
2019/05/07  03:40:00  BASE  11.9423  23   13.5828  17   3.2   100   3.2   0     0     976.9    NA       0.0000   9999     4230  0     0    
2019/05/07  03:41:00  BASE  12.7831  22   13.8827  21   3.2   100   3.2   0     0     976.9    NA       0.0000   9999     4530  0     0    
2019/05/07  03:42:00  BASE  12.9654  21   13.8827  21   3.2   100   3.2   0     0     976.9    NA       0.0000   9999     4720  0     0    
2019/05/07  03:43:00  BASE  12.6008  17   13.8827  21   3.3   100   3.3   0     0     976.8    NA       0.0000   9999     4530  0     0    
2019/05/07  03:44:00  BASE  11.9482  17   13.8827  21   3.3   100   3.3   0     0     976.9    NA       0.0000   9999     4560  0     0    
2019/05/07  03:45:00  BASE  12.1657  19   14.159   19   3.3   100   3.3   0     0     976.7    NA       0.0000   9999     4490  0     0    
2019/05/07  03:46:00  BASE  12.7772  19   14.159   19   3.2   100   3.2   0     0     976.7    NA       0.0000   9999     4330  0     0    
2019/05/07  03:47:00  BASE  12.6361  21   14.159   19   3.2   100   3.2   0     0     976.7    NA       0.0000   9999     4300  0     0    
2019/05/07  03:48:00  BASE  12.6538  23   14.159   19   3.2   100   3.2   0     0     976.6    NA       0.0000   9999     4130  0     0    
2019/05/07  03:49:00  BASE  12.7831  24   14.3354  22   3.2   100   3.2   0     0     976.6    NA       0.0000   9999     4100  0     0    
2019/05/07  03:50:00  BASE  13.2359  25   14.3354  22   3.2   100   3.2   0     0     976.6    NA       0.0000   9999     4170  0     0    
2019/05/07  03:51:00  BASE  13.5534  25   14.3354  22   3.2   100   3.2   0     0     976.5    NA       0.0000   9999     4200  5150  0    
2019/05/07  03:52:00  BASE  13.5652  24   14.5471  22   3.2   100   3.2   0     0     976.5    NA       0.0000   9999     3900  0     0    
2019/05/07  03:53:00  BASE  13.8121  23   14.7294  22   3.2   100   3.2   0     0     976.5    NA       0.0000   9999     4230  0     0    
2019/05/07  03:54:00  BASE  13.7063  23   14.7294  22   3.2   100   3.2   0     0     976.5    NA       0.0000   9999     3610  0     0    
2019/05/07  03:55:00  BASE  13.3946  24   14.7294  22   3.2   100   3.2   0     0     976.5    NA       0.0000   9999     3610  0     0    
2019/05/07  03:56:00  BASE  13.3358  24   14.7294  22   3.2   100   3.2   0     0     976.5    NA       0.0000   9999     3970  0     0    
2019/05/07  03:57:00  BASE  13.3123  24   14.7294  22   3.2   100   3.2   0     0     976.5    NA       0.0000   9999     3770  0     0    
2019/05/07  03:58:00  BASE  13.1477  23   14.7294  22   3.2   100   3.2   0     0     976.5    NA       0.0000   9999     4300  0     0    
2019/05/07  03:59:00  BASE  13.1418  22   14.7294  22   3.2   100   3.2   0     0     976.5    NA       0.0000   9999     3900  0     0    
2019/05/07  04:00:00  BASE  13.3417  22   14.7294  22   3.2   100   3.2   0     0     976.4    NA       0.0000   9999     4040  0     0    
2019/05/07  04:01:00  BASE  13.3711  22   14.7294  22   3.2   100   3.2   0     0     976.4    NA       0.0000   9999     0     0     0    
2019/05/07  04:02:00  BASE  13.3417  21   14.7294  22   3.2   100   3.2   0     0     976.4    NA       0.0000   9999     0     0     0    
2019/05/07  04:03:00  BASE  12.7596  22   14.6706  23   3.2   100   3.2   0     0     976.4    NA       0.0000   9999     0     0     0    
2019/05/07  04:04:00  BASE  12.4068  23   14.6706  23   3.2   100   3.2   0     0     976.4    NA       0.0000   9999     0     0     0    
2019/05/07  04:05:00  BASE  12.2892  24   14.6706  23   3.2   100   3.2   0     0     976.3    NA       0.0000   9999     0     0     0    
2019/05/07  04:06:00  BASE  11.66    24   14.6706  23   3.2   100   3.2   0     0     976.4    NA       0.0000   9999     1480  0     0    
2019/05/07  04:07:00  BASE  11.5189  23   14.6706  23   3.2   100   3.2   0     0     976.3    NA       0.0000   9999     1250  0     0    
2019/05/07  04:08:00  BASE  12.2539  23   14.6706  23   3.2   100   3.2   0     0     976.2    NA       0.0000   9999     1050  0     0    
2019/05/07  04:09:00  BASE  12.2951  21   14.6706  23   3.2   100   3.2   0     0     976.1    NA       0.0000   9999     1180  0     0    
2019/05/07  04:10:00  BASE  12.4891  22   14.6706  23   3.2   100   3.2   0     0     976.1    NA       0.0000   9999     1540  0     0    
2019/05/07  04:11:00  BASE  12.4715  24   13.7357  19   3.2   100   3.2   0     0     976.0    NA       0.0000   9999     0     0     0    
2019/05/07  04:12:00  BASE  12.2069  28   13.9121  26   3.1   100   3.1   0     0     976.0    NA       0.0000   9999     1180  0     0    
2019/05/07  04:13:00  BASE  11.9834  30   13.9121  26   3.1   100   3.1   0     0     976.0    NA       0.0000   UP       9999  1210  4590 
2019/05/07  04:14:00  BASE  11.4072  30   13.9121  26   3.1   100   3.1   0     0     976.0    NA       0.0000   UP       9999  4130  0    
2019/05/07  04:15:00  BASE  11.3014  29   13.9121  26   3.1   100   3.1   0     0     975.9    NA       0.0000   UP       9999  4590  0    
2019/05/07  04:16:00  BASE  11.0015  30   13.9121  26   3.1   100   3.1   0     0     975.9    NA       0.0000   UP       9999  5770  0    
2019/05/07  04:17:00  BASE  11.2249  32   13.9121  26   3.1   100   3.1   0     0     975.8    NA       0.0000   UP       9999  5280  0    
2019/05/07  04:18:00  BASE  11.5777  35   13.9121  26   3.1   100   3.1   0     0     975.8    NA       0.0000   UP       9999  5090  0    
2019/05/07  04:19:00  BASE  11.5072  34   13.9121  26   3.1   100   3.1   0     0     975.7    NA       0.0000   UP       9999  3870  0    
2019/05/07  04:20:00  BASE  11.2837  33   13.9121  26   3.1   100   3.1   0     0     975.8    NA       0.0000   UP       9999  0     0    
2019/05/07  04:21:00  BASE  10.8133  34   13.9121  26   3.1   100   3.1   0     0     975.7    NA       0.0000   UP       9999  0     0    
2019/05/07  04:22:00  BASE  10.9956  33   13.4887  37   3.1   100   3.1   0     0     975.7    NA       0.0000   UP       9999  0     0    
2019/05/07  04:23:00  BASE  11.1661  30   13.4887  37   3.0   100   3.0   0     0     975.7    NA       0.0000   UP       9999  4000  0    
2019/05/07  04:24:00  BASE  10.3547  33   13.4887  37   3.0   100   3.0   0     0     975.8    NA       0.0000   UP       9999  1380  0    
2019/05/07  04:25:00  BASE  9.89604  34   13.4887  37   3.0   100   3.0   0     0     975.8    NA       0.0000   UP       9999  430   0    
2019/05/07  04:26:00  BASE  10.4782  32   13.4887  37   3.0   100   3.0   0     0     975.7    NA       0.0000   UP       9999  1350  2690 
2019/05/07  04:27:00  BASE  10.7016  32   13.3711  28   3.0   100   3.0   0     0     975.7    NA       0.0000   UP       9999  2300  0    
2019/05/07  04:28:00  BASE  11.0368  30   13.4005  27   3.1   100   3.1   0     0     975.7    NA       0.0000   UP       9999  1310  0    
2019/05/07  04:29:00  BASE  11.1779  31   13.4005  27   3.1   100   3.1   0     0     975.7    NA       0.0000   UP       9999  2530  0    
2019/05/07  04:30:00  BASE  11.8188  29   14.1884  24   3.2   100   3.2   0     0     975.6    NA       0.0000   UP       9999  890   2620 
2019/05/07  04:31:00  BASE  12.1716  23   14.1884  24   3.2   100   3.2   0     0     975.7    NA       0.0000   UP       9999  690   0    
2019/05/07  04:32:00  BASE  12.101   24   14.2178  29   3.2   100   3.2   0     0     975.6    NA       0.0000   UP       9999  330   0    
2019/05/07  04:33:00  BASE  12.7243  26   14.4001  29   3.1   100   3.1   0     0     975.6    NA       0.0000   UP       9999  300   0    
2019/05/07  04:34:00  BASE  12.789   28   14.9117  33   3.1   100   3.1   0     0     975.5    NA       0.0000   UP       8000  260   2130 
2019/05/07  04:35:00  BASE  12.7655  28   14.9117  33   3.1   100   3.1   0     0     975.5    NA       0.0000   -SN      7000  360   0    
2019/05/07  04:36:00  BASE  12.6596  28   14.9117  33   3.1   100   3.1   0     0     975.5    NA       0.0000   -SN      9999  390   0    
2019/05/07  04:37:00  BASE  12.5009  27   14.9117  33   3.1   100   3.1   0     0     975.5    NA       0.0000   -SN      9000  1350  0    
2019/05/07  04:38:00  BASE  12.6949  25   15.188   18   3.0   100   3.0   0     0     975.4    NA       0.0000   -SN      9999  390   0    
2019/05/07  04:39:00  BASE  13.1888  27   15.9407  31   3.0   100   3.0   0     0     975.3    NA       0.0000   -SN      9999  1940  0    
2019/05/07  04:40:00  BASE  13.1183  29   15.9407  31   3.0   100   3.0   0     0     975.4    NA       0.0000   -SN      9999  2070  0    
2019/05/07  04:41:00  BASE  12.4362  29   15.9407  31   3.0   100   3.0   0     0     975.3    NA       0.0000   -SN      9999  2070  3250 
2019/05/07  04:42:00  BASE  12.6302  29   15.9407  31   3.0   100   3.0   0     0     975.3    NA       0.0000   -SN      9999  2100  0    
2019/05/07  04:43:00  BASE  12.9301  29   15.9407  31   3.0   100   3.0   0     0     975.3    NA       0.0000   -SN      9999  2100  0    
2019/05/07  04:44:00  BASE  12.4774  30   15.9407  31   3.0   100   3.0   0     0     975.3    NA       0.0000   -SN      9000  1970  0    
2019/05/07  04:45:00  BASE  12.1598  27   15.9407  31   3.0   100   3.0   0     0     975.3    NA       0.0000   -SN      9999  1870  0    
2019/05/07  04:46:00  BASE  12.3892  27   15.9407  31   3.0   100   3.0   0     0     975.3    NA       0.0000   -SN      9999  2170  0    
2019/05/07  04:47:00  BASE  12.7655  27   15.9407  31   3.0   100   3.0   0     0     975.2    NA       0.0000   -SN      9999  520   0    
2019/05/07  04:48:00  BASE  13.1888  26   15.9407  31   3.0   100   3.0   0     0     975.2    NA       0.0000   -SN      9999  460   0    
2019/05/07  04:49:00  BASE  13.5299  25   15.7584  28   3.0   100   3.0   0     0     975.1    NA       0.0000   -SN      9999  1800  0    
2019/05/07  04:50:00  BASE  13.5358  27   15.7584  28   3.0   100   3.0   0     0     975.1    NA       0.0000   -SN      9999  2000  0    
2019/05/07  04:51:00  BASE  13.7357  27   16.2758  27   3.0   100   3.0   0     0     975.0    NA       0.0000   -SN      9999  390   0    
2019/05/07  04:52:00  BASE  13.8474  25   16.2758  27   3.0   100   3.0   0     0     975.1    NA       0.0000   -SN      9999  390   0    
2019/05/07  04:53:00  BASE  13.8886  23   16.2758  27   3.0   100   3.0   0     0     975.0    NA       0.0000   -SN      9999  1640  0    
2019/05/07  04:54:00  BASE  14.1179  23   16.2758  27   3.0   100   3.0   0     0     975.0    NA       0.0000   -SN      9999  1970  0    
2019/05/07  04:55:00  BASE  14.1826  22   16.2758  27   3.0   100   3.0   0     0     975.0    NA       0.0000   -SN      9999  2030  2690 
2019/05/07  04:56:00  BASE  13.8827  23   16.2758  27   3.0   100   3.0   0     0     975.0    NA       0.0000   -SN      9999  520   3810 
2019/05/07  04:57:00  BASE  13.6298  22   16.2758  27   3.0   100   3.0   0     0     975.0    NA       0.0000   -SN      9999  1900  0    
2019/05/07  04:58:00  BASE  13.9297  22   16.2758  27   3.0   100   3.0   0     0     974.9    NA       0.0000   -SN      9999  1940  0    
2019/05/07  04:59:00  BASE  14.6118  21   16.2758  27   3.0   100   3.0   0     0     974.9    NA       0.0000   -SN      9999  330   0    
2019/05/07  05:00:00  BASE  14.947   22   16.2758  27   3.0   100   3.0   0     0     974.8    NA       0.0000   -SN      9999  300   2230 
2019/05/07  05:01:00  BASE  14.553   21   16.2112  22   3.0   100   3.0   0     0     974.9    NA       0.0000   -SN      6000  260   2230 
2019/05/07  05:02:00  BASE  14.6412  18   16.364   13   3.0   100   3.0   0     0     974.8    NA       0.0000   -SN      5000  390   0    
2019/05/07  05:03:00  BASE  15.0587  17   16.364   13   3.0   100   3.0   0     0     974.7    NA       0.0000   -SN      6000  330   0    
2019/05/07  05:04:00  BASE  15.1586  18   16.4581  20   3.0   100   3.0   0     0     974.6    NA       0.0000   -SN      BR    4000  0    
2019/05/07  05:05:00  BASE  15.7114  18   18.0281  21   3.0   100   3.0   0     0     974.6    NA       0.0000   -SN      BR    5000  330  
2019/05/07  05:06:00  BASE  16.0524  17   18.0281  21   2.9   100   2.9   0     0     974.6    NA       0.0000   -SN      BR    7000  430  
2019/05/07  05:07:00  BASE  15.5644  15   18.0281  21   2.9   100   2.9   0     0     974.6    NA       0.0000   -SN      BR    6000  0    
2019/05/07  05:08:00  BASE  14.947   14   18.0281  21   2.9   100   2.9   0     0     974.7    NA       0.0000   -SN      BR    4900  330  
2019/05/07  05:09:00  BASE  15.141   13   18.0281  21   3.0   100   3.0   0     0     974.7    NA       0.0000   -SN      BR    6000  360  
2019/05/07  05:10:00  BASE  15.4174  14   18.0281  21   3.0   100   3.0   0     0     974.7    NA       0.2540   -SN      BR    7000  0    
2019/05/07  05:11:00  BASE  14.7647  14   18.0281  21   3.0   100   3.0   0     0     974.7    NA       0.0000   -SN      BR    8000  0    
2019/05/07  05:12:00  BASE  14.6353  16   18.0281  21   3.0   100   3.0   0     0     974.6    NA       0.0000   -SN      BR    7000  360  
2019/05/07  05:13:00  BASE  15.5232  16   18.2986  7    2.9   100   2.9   0     0     974.5    NA       0.0000   -SN      BR    6000  360  
2019/05/07  05:14:00  BASE  16.0406  16   18.2986  7    2.9   100   2.9   0     0     974.5    NA       0.0000   -SN      BR    6000  430  
2019/05/07  05:15:00  BASE  15.3527  15   18.2986  7    2.9   100   2.9   0     0     974.6    NA       0.0000   -SN      BR    8000  0    
2019/05/07  05:16:00  BASE  14.2766  12   18.2986  7    2.9   100   2.9   0     0     974.6    NA       0.0000   -SN      BR    7000  0    
2019/05/07  05:17:00  BASE  15.2762  12   18.2986  7    2.9   100   2.9   0     0     974.4    NA       0.0000   -SN      BR    8000  0    
2019/05/07  05:18:00  BASE  16.1465  13   18.2986  7    2.9   100   2.9   0     0     974.4    NA       0.0000   -SN      BR    8000  0    
2019/05/07  05:19:00  BASE  15.8995  12   18.2986  7    2.9   100   2.9   0     0     974.3    NA       0.0000   -SN      BR    7000  460  
2019/05/07  05:20:00  BASE  16.1112  13   18.2986  7    2.9   100   2.9   0     0     974.3    NA       0.0000   -SN      BR    6000  0    
2019/05/07  05:21:00  BASE  15.4997  16   18.2986  7    2.9   100   2.9   0     0     974.4    NA       0.0000   -SN      BR    4900  0    
2019/05/07  05:22:00  BASE  16.1171  19   18.7572  16   2.9   100   2.9   0     0     974.3    NA       0.0000   -SN      BR    4900  430  
2019/05/07  05:23:00  BASE  17.2872  21   19.21    20   2.8   100   2.8   0     0     974.3    NA       0.0000   -SN      BR    4600  0    
2019/05/07  05:24:00  BASE  16.5052  21   19.21    20   2.8   100   2.8   0     0     974.3    NA       0.0000   -SN      BR    5000  0    
2019/05/07  05:25:00  BASE  15.5467  20   19.21    20   2.8   100   2.8   0     0     974.3    NA       0.0000   -SN      BR    5000  390  
2019/05/07  05:26:00  BASE  16.7227  21   19.4804  16   2.8   100   2.8   0     0     974.1    NA       0.0000   -SN      BR    5000  0    
2019/05/07  05:27:00  BASE  17.6635  21   19.4804  16   2.8   100   2.8   0     0     974.2    NA       0.0000   -SN      BR    5000  0    
2019/05/07  05:28:00  BASE  17.4577  20   19.4804  16   2.8   100   2.8   0     0     974.1    NA       0.2540   -SN      BR    4800  330  
2019/05/07  05:29:00  BASE  17.5048  21   19.4804  16   2.8   100   2.8   0     0     974.1    NA       0.0000   -SN      BR    3400  260  
2019/05/07  05:30:00  BASE  17.8752  21   19.4804  16   2.7   100   2.7   0     0     974.1    NA       0.0000   -SN      BR    2200  300  
2019/05/07  05:31:00  BASE  18.5455  22   20.2037  20   2.7   100   2.7   0     0     974.0    NA       0.2540   -SN      BR    1900  300  
2019/05/07  05:32:00  BASE  18.4397  23   20.2037  20   2.6   100   2.6   0     0     974.0    NA       0.2540   -SN      BR    1400  300  
2019/05/07  05:33:00  BASE  17.7811  23   20.3272  23   2.6   100   2.6   0     0     974.0    NA       0.0000   -SN      BR    2100  330  
2019/05/07  05:34:00  BASE  17.9928  22   20.3272  13   2.5   100   2.5   0     0     973.9    NA       0.0000   -SN      BR    3200  300  
2019/05/07  05:35:00  BASE  17.8399  24   20.3272  13   2.5   100   2.5   0     0     974.0    NA       0.0000   -SN      BR    3600  0    
2019/05/07  05:36:00  BASE  17.2343  26   20.3272  13   2.4   100   2.4   0     0     974.0    NA       0.2540   -SN      BR    4400  360  
2019/05/07  05:37:00  BASE  17.4754  27   20.3272  13   2.4   100   2.4   0     0     973.9    NA       0.0000   -SN      BR    3700  0    
2019/05/07  05:38:00  BASE  17.8928  26   20.3272  13   2.5   100   2.5   0     0     973.9    NA       0.0000   -SN      BR    4100  360  
2019/05/07  05:39:00  BASE  17.74    24   20.3272  13   2.5   100   2.5   0     0     974.0    NA       0.0000   -SN      BR    3100  330  
2019/05/07  05:40:00  BASE  17.246   23   20.3272  13   2.5   100   2.5   0     0     974.0    NA       0.2540   -SN      BR    2400  330  
2019/05/07  05:41:00  BASE  16.5169  25   20.3272  13   2.5   100   2.5   0     0     974.0    NA       0.0000   -SN      BR    2700  360  
2019/05/07  05:42:00  BASE  16.3934  26   20.3272  13   2.5   100   2.5   0     0     974.0    NA       0.0000   -SN      BR    3300  390  
2019/05/07  05:43:00  BASE  16.8874  25   20.3272  13   2.5   100   2.5   0     0     974.0    NA       0.0000   -SN      BR    3800  390  
2019/05/07  05:44:00  BASE  16.2935  25   20.1449  21   2.5   100   2.5   0     0     974.0    NA       0.2540   -SN      BR    4300  390  
2019/05/07  05:45:00  BASE  15.9113  25   20.1449  21   2.5   100   2.5   0     0     973.9    NA       0.0000   -SN      BR    4500  430  
2019/05/07  05:46:00  BASE  16.711   24   20.1449  21   2.5   100   2.5   0     0     973.8    NA       0.0000   -SN      BR    5000  0    
2019/05/07  05:47:00  BASE  17.2696  23   20.1449  21   2.5   100   2.5   0     0     973.8    NA       0.0000   -SN      BR    3800  0    
2019/05/07  05:48:00  BASE  17.152   23   18.8748  23   2.5   100   2.5   0     0     973.9    NA       0.0000   -SN      BR    3900  0    
2019/05/07  05:49:00  BASE  17.3636  24   19.0865  21   2.5   100   2.5   0     0     973.8    NA       0.0000   -SN      BR    3900  0    
2019/05/07  05:50:00  BASE  16.8874  24   19.0865  21   2.5   100   2.5   0     0     973.8    NA       0.0000   -SN      BR    3900  390  
2019/05/07  05:51:00  BASE  16.3052  23   19.0865  21   2.5   100   2.5   0     0     973.8    NA       0.2540   -SN      BR    4500  0    
2019/05/07  05:52:00  BASE  15.8525  23   19.0865  21   2.5   100   2.5   0     0     973.8    NA       0.0000   -SN      BR    6000  0    
2019/05/07  05:53:00  BASE  15.776   24   19.0865  21   2.5   100   2.5   0     0     973.8    NA       0.0000   -SN      BR    6000  0    
2019/05/07  05:54:00  BASE  16.5287  25   19.0865  21   2.5   100   2.5   0     0     973.7    NA       0.0000   -SN      BR    4700  390  
2019/05/07  05:55:00  BASE  16.7286  24   19.0865  21   2.5   100   2.5   0     0     973.7    NA       0.0000   -SN      BR    4300  330  
2019/05/07  05:56:00  BASE  16.7168  23   19.1453  21   2.5   100   2.5   0     0     973.7    NA       0.0000   -SN      BR    3400  300  
2019/05/07  05:57:00  BASE  17.2931  23   19.1806  18   2.5   100   2.5   0     0     973.6    NA       0.2540   -SN      BR    2500  300  
2019/05/07  05:58:00  BASE  16.8815  24   19.1806  18   2.5   100   2.5   0     0     973.6    NA       0.0000   -SN      BR    2900  0    
2019/05/07  05:59:00  BASE  16.1994  25   19.1806  18   2.4   100   2.4   0     0     973.6    NA       0.0000   -SN      BR    3500  0    
2019/05/07  06:00:00  BASE  15.9466  24   19.1806  18   2.4   100   2.4   0     0     973.6    NA       0.0000   -SN      BR    2600  300  
2019/05/07  06:01:00  BASE  16.1465  24   19.1806  18   2.4   100   2.4   0     0     973.6    NA       0.2540   -SN      BR    3200  360  
2019/05/07  06:02:00  BASE  17.4283  22   19.6333  20   2.4   100   2.4   0     0     973.5    NA       0.0000   -SN      BR    3600  360  
2019/05/07  06:03:00  BASE  17.64    22   19.6333  20   2.4   100   2.4   0     0     973.4    NA       0.0000   -SN      BR    3600  360  
2019/05/07  06:04:00  BASE  17.299   23   19.6333  20   2.5   100   2.5   0     0     973.5    NA       0.0000   -SN      BR    4100  390  
2019/05/07  06:05:00  BASE  16.7698  23   19.6333  20   2.5   100   2.5   0     0     973.5    NA       0.0000   -SN      BR    5000  390  
2019/05/07  06:06:00  BASE  17.005   24   20.8093  19   2.5   100   2.5   0     0     973.3    NA       0.0000   -SN      BR    3900  390  
2019/05/07  06:07:00  BASE  18.2809  23   20.8093  19   2.5   100   2.5   0     0     973.3    NA       0.2540   -SN      BR    4900  330  
2019/05/07  06:08:00  BASE  17.9516  24   20.8093  19   2.6   100   2.6   0     0     973.3    NA       0.0000   -SN      BR    3700  0    
2019/05/07  06:09:00  BASE  17.4812  24   20.8093  19   2.6   100   2.6   0     0     973.1    NA       0.0000   -SN      BR    3700  360  
2019/05/07  06:10:01  BASE  18.3632  25   20.8093  19   2.6   100   2.6   0     0     973.1    NA       0.0000   -SN      BR    3700  390  
2019/05/07  06:11:00  BASE  18.4867  26   20.9328  27   2.6   100   2.6   0     0     973.1    NA       0.0000   -SN      BR    4000  430  
2019/05/07  06:12:00  BASE  17.5988  26   20.9328  27   2.6   100   2.6   0     0     973.2    NA       0.0000   -SN      BR    5000  430  
2019/05/07  06:13:00  BASE  18.1104  25   21.8677  21   2.6   100   2.6   0     0     973.0    NA       0.2540   -SN      BR    4100  0    
2019/05/07  06:14:00  BASE  18.5455  23   21.8677  21   2.6   100   2.6   0     0     973.1    NA       0.0000   -SN      BR    2900  950  
2019/05/07  06:15:00  BASE  17.9752  20   21.8677  21   2.6   100   2.6   0     0     973.1    NA       0.0000   -SN      BR    4100  390  
2019/05/07  06:16:00  BASE  16.9168  17   21.8677  21   2.6   100   2.6   0     0     973.4    NA       0.0000   -SN      BR    3800  390  
2019/05/07  06:17:00  BASE  16.9697  17   21.8677  21   2.5   100   2.5   0     0     973.2    NA       0.0000   -SN      BR    4000  360  
2019/05/07  06:18:00  BASE  17.152   17   21.8677  21   2.5   100   2.5   0     0     973.3    NA       0.0000   -SN      BR    3200  790  
2019/05/07  06:19:00  BASE  17.2813  19   21.8677  21   2.5   100   2.5   0     0     973.1    NA       0.2540   -SN      BR    4100  390  
2019/05/07  06:20:00  BASE  18.6984  22   21.8677  21   2.5   100   2.5   0     0     972.9    NA       0.0000   -SN      BR    3900  390  
2019/05/07  06:21:00  BASE  19.5569  22   21.8677  21   2.5   100   2.5   0     0     972.9    NA       0.0000   -SN      BR    4100  360  
2019/05/07  06:22:00  BASE  20.139   22   22.0206  27   2.5   100   2.5   0     0     972.8    NA       0.0000   -SN      BR    3000  300  
2019/05/07  06:23:00  BASE  19.8097  21   22.0206  27   2.5   100   2.5   0     0     972.9    NA       0.0000   -SN      BR    3200  330  
2019/05/07  06:24:00  BASE  19.2746  20   22.0206  27   2.5   100   2.5   0     0     973.0    NA       0.0000   -SN      BR    3800  330  
2019/05/07  06:25:00  BASE  19.1688  19   22.0206  27   2.5   100   2.5   0     0     973.0    NA       0.2540   -SN      BR    3900  360  
2019/05/07  06:26:01  BASE  18.4456  19   22.0206  27   2.5   100   2.5   0     0     973.1    NA       0.0000   -SN      BR    3600  330  
2019/05/07  06:27:01  BASE  18.0986  20   22.0206  27   2.5   100   2.5   0     0     973.0    NA       0.0000   -SN      BR    3500  360  
2019/05/07  06:28:00  BASE  18.2515  19   22.0206  27   2.5   100   2.5   0     0     973.1    NA       0.0000   -SN      BR    4000  360  
2019/05/07  06:29:00  BASE  17.8282  21   22.0206  27   2.5   100   2.5   0     0     973.0    NA       0.0000   -SN      BR    4400  360  
2019/05/07  06:30:00  BASE  18.5632  22   22.0206  27   2.5   100   2.5   0     0     972.9    NA       0.0000   -SN      BR    4100  360  
2019/05/07  06:31:01  BASE  19.3511  22   22.0206  27   2.4   100   2.4   0     0     972.9    NA       0.2540   -SN      BR    3500  360  
2019/05/07  06:32:00  BASE  19.157   22   20.9328  19   2.4   100   2.4   0     0     972.8    NA       0.0000   -SN      BR    3000  0    
2019/05/07  06:33:00  BASE  19.2158  22   21.1151  22   2.4   100   2.4   0     0     972.8    NA       0.0000   -SN      BR    2700  330  
2019/05/07  06:34:00  BASE  19.5628  23   21.8677  27   2.4   100   2.4   0     0     972.7    NA       0.2540   -SN      BR    2800  330  
2019/05/07  06:35:00  BASE  20.2625  23   22.2029  21   2.4   100   2.3   0     0     972.7    NA       0.0000   -SN      BR    2700  330  
2019/05/07  06:36:01  BASE  20.5859  22   22.2029  21   2.4   100   2.4   0     0     972.7    NA       0.0000   -SN      BR    2700  330  
2019/05/07  06:37:01  BASE  19.8215  22   22.2029  21   2.4   100   2.4   0     0     972.7    NA       0.2540   -SN      BR    3300  360  
2019/05/07  06:38:01  BASE  19.0512  21   22.2029  21   2.4   100   2.4   0     0     972.7    NA       0.0000   -SN      BR    3700  0    
2019/05/07  06:39:00  BASE  19.698   21   22.2911  26   2.5   100   2.5   0     0     972.6    NA       0.0000   -SN      BR    3800  360  
2019/05/07  06:40:00  BASE  19.8391  21   22.2911  26   2.5   100   2.5   0     0     972.6    NA       0.0000   -SN      BR    3800  360  
2019/05/07  06:41:00  BASE  18.8572  19   22.2911  26   2.5   100   2.5   0     0     972.7    NA       0.0000   -SN      BR    3600  360  
2019/05/07  06:42:00  BASE  18.7925  18   22.2911  26   2.5   100   2.5   0     0     972.7    NA       0.2540   -SN      BR    3400  330  
2019/05/07  06:43:00  BASE  18.816   17   22.2911  26   2.5   100   2.5   0     0     972.6    NA       0.0000   -SN      BR    3600  360  
2019/05/07  06:44:00  BASE  18.1222  17   22.2911  26   2.5   100   2.5   0     0     972.7    NA       0.0000   -SN      BR    3600  360  
2019/05/07  06:45:00  BASE  17.3578  17   22.2911  26   2.5   100   2.5   0     0     972.8    NA       0.0000   -SN      BR    3800  0    
2019/05/07  06:46:00  BASE  17.4812  19   22.2911  26   2.5   100   2.5   0     0     972.7    NA       0.0000   -SN      BR    4000  390  
2019/05/07  06:47:00  BASE  18.1927  19   22.2911  26   2.5   100   2.5   0     0     972.7    NA       0.2540   -SN      BR    3700  360  
2019/05/07  06:48:00  BASE  18.0281  18   22.2911  26   2.4   100   2.4   0     0     972.7    NA       0.0000   -SN      BR    3700  360  
2019/05/07  06:49:00  BASE  18.0634  19   20.6917  16   2.4   100   2.4   0     0     972.7    NA       0.0000   -SN      BR    3600  360  
2019/05/07  06:50:00  BASE  18.4338  21   20.6917  16   2.4   100   2.4   0     0     972.7    NA       0.0000   -SN      BR    3500  360  
2019/05/07  06:51:00  BASE  17.74    20   20.6917  16   2.4   100   2.4   0     0     972.7    NA       0.2540   -SN      BR    3100  360  
2019/05/07  06:52:00  BASE  17.0873  19   20.2037  20   2.3   100   2.3   0     0     972.7    NA       0.0000   -SN      BR    2900  330  
2019/05/07  06:53:00  BASE  17.1931  18   20.2037  20   2.3   100   2.3   0     0     972.7    NA       0.0000   -SN      BR    3100  330  
2019/05/07  06:54:00  BASE  17.1461  15   20.2037  20   2.3   100   2.3   0     0     972.7    NA       0.0000   -SN      BR    3000  360  
2019/05/07  06:55:00  BASE  16.9756  14   20.2037  20   2.2   100   2.2   0     0     972.7    NA       0.2540   -SN      BR    3200  360  
2019/05/07  06:56:00  BASE  17.5224  17   20.2037  10   2.2   100   2.2   0     0     972.6    NA       0.0000   -SN      BR    3400  360  
2019/05/07  06:57:00  BASE  17.8634  15   20.2037  10   2.2   100   2.2   0     0     972.6    NA       0.0000   -SN      BR    3000  360  
2019/05/07  06:58:00  BASE  17.6753  16   20.2037  10   2.1   100   2.1   0     0     972.6    NA       0.2540   -SN      BR    2800  360  
2019/05/07  06:59:00  BASE  18.3397  19   20.874   18   2.1   100   2.1   0     0     972.4    NA       0.0000   -SN      BR    2600  360  
2019/05/07  07:00:00  BASE  18.5161  18   20.874   18   2.1   100   2.1   0     0     972.5    NA       0.0000   -SN      BR    2300  360  
2019/05/07  07:01:00  BASE  17.7164  16   20.874   18   2.1   100   2.1   0     0     972.6    NA       0.2540   -SN      BR    2600  330  
2019/05/07  07:02:00  BASE  17.7341  16   20.874   18   2.1   100   2.1   0     0     972.5    NA       0.0000   -SN      BR    2800  360  
2019/05/07  07:03:00  BASE  17.6576  18   20.874   18   2.1   100   2.1   0     0     972.6    NA       0.0000   -SN      BR    2700  0    
2019/05/07  07:04:00  BASE  17.4577  17   20.874   18   2.1   100   2.1   0     0     972.5    NA       0.0000   -SN      BR    3200  0    
2019/05/07  07:05:00  BASE  17.5694  11   20.874   18   2.1   100   2.1   0     0     972.5    NA       0.0000   -SN      BR    3800  0    
2019/05/07  07:06:00  BASE  17.6282  10   20.874   18   2.2   100   2.2   0     0     972.4    NA       0.2540   -SN      BR    3600  660  
2019/05/07  07:07:00  BASE  17.7458  13   20.874   18   2.2   100   2.2   0     0     972.4    NA       0.0000   -SN      BR    3500  430  
2019/05/07  07:08:00  BASE  18.0692  11   20.874   18   2.2   100   2.2   0     0     972.4    NA       0.0000   -SN      BR    3300  330  
2019/05/07  07:09:00  BASE  18.2809  10   20.48    20   2.2   100   2.2   0     0     972.5    NA       0.0000   -SN      BR    3200  330  
2019/05/07  07:10:00  BASE  18.0104  8    20.48    20   2.2   100   2.2   0     0     972.4    NA       0.0000   -SN      BR    3200  330  
2019/05/07  07:11:00  BASE  17.2872  8    20.48    20   2.2   100   2.2   0     0     972.5    NA       0.2540   -SN      BR    3100  260  
2019/05/07  07:12:00  BASE  18.3515  10   21.2974  15   2.1   100   2.1   0     0     972.2    NA       0.0000   -SN      BR    3200  0    
2019/05/07  07:13:00  BASE  19.0688  11   21.2974  15   2.1   100   2.1   0     0     972.3    NA       0.0000   -SN      BR    3600  360  
2019/05/07  07:14:00  BASE  18.0575  10   21.2974  15   2.1   100   2.1   0     0     972.3    NA       0.0000   -SN      BR    3800  360  
2019/05/07  07:15:00  BASE  18.2809  10   21.2974  15   2.1   100   2.1   0     0     972.3    NA       0.2540   -SN      BR    3700  360  
2019/05/07  07:16:00  BASE  17.8223  8    21.2974  15   2.1   100   2.1   0     0     972.4    NA       0.0000   -SN      BR    3700  0    
2019/05/07  07:17:00  BASE  16.8521  5    21.2974  15   2.1   100   2.1   0     0     972.4    NA       0.0000   -SN      BR    5000  360  
2019/05/07  07:18:00  BASE  17.493   5    21.2974  15   2.1   100   2.1   0     0     972.2    NA       0.0000   -SN      BR    4900  360  
2019/05/07  07:19:00  BASE  17.8458  6    21.2974  15   2.1   100   2.1   0     0     972.3    NA       0.0000   -SN      BR    3500  330  
2019/05/07  07:20:00  BASE  16.7462  5    21.2974  15   2.1   100   2.1   0     0     972.4    NA       0.0000   -SN      BR    3700  330  
2019/05/07  07:21:00  BASE  16.2758  359  21.2974  15   2.1   100   2.1   0     0     972.3    NA       0.0000   -SN      BR    4500  360  
2019/05/07  07:22:00  BASE  16.611   358  20.2684  7    2.1   100   2.1   0     0     972.3    NA       0.2540   -SN      BR    6000  360  
2019/05/07  07:23:00  BASE  16.805   2    20.0861  10   2.1   100   2.1   0     0     972.2    NA       0.0000   -SN      BR    6000  0    
2019/05/07  07:24:00  BASE  17.1167  5    20.0861  10   2.1   100   2.1   0     0     972.2    NA       0.0000   -SN      BR    4900  360  
2019/05/07  07:25:00  BASE  17.152   7    19.7215  3    2.1   100   2.1   0     0     972.2    NA       0.0000   -SN      BR    4500  360  
2019/05/07  07:26:00  BASE  18.228   7    21.9618  5    2.1   100   2.1   0     0     972.0    NA       0.0000   -SN      BR    4000  360  
2019/05/07  07:27:00  BASE  18.6925  7    21.9618  5    2.1   100   2.1   0     0     972.1    NA       0.0000   -SN      BR    3700  300  
2019/05/07  07:28:00  BASE  17.887   5    21.9618  5    2.1   100   2.1   0     0     972.0    NA       0.0000   -SN      BR    4200  330  
2019/05/07  07:29:00  BASE  18.0398  5    21.9618  5    2.1   100   2.1   0     0     971.9    NA       0.0000   -SN      BR    5000  360  
2019/05/07  07:30:00  BASE  18.569   7    21.9618  5    2.1   100   2.1   0     0     971.8    NA       0.2540   -SN      BR    5000  360  
2019/05/07  07:31:00  BASE  19.4981  9    21.9618  5    2.2   100   2.2   0     0     971.7    NA       0.0000   -SN      BR    5000  360  
2019/05/07  07:32:00  BASE  19.7803  10   21.9618  5    2.2   100   2.2   0     0     971.8    NA       0.0000   -SN      BR    4600  330  
2019/05/07  07:33:00  BASE  18.9983  12   21.9618  5    2.2   100   2.2   0     0     971.8    NA       0.0000   -SN      BR    5000  330  
2019/05/07  07:34:00  BASE  18.4985  12   21.9618  5    2.2   100   2.2   0     0     971.8    NA       0.0000   -SN      BR    4600  360  
2019/05/07  07:35:00  BASE  18.9454  12   21.9618  5    2.2   100   2.2   0     0     971.8    NA       0.0000   -SN      BR    4200  0    
2019/05/07  07:36:00  BASE  19.0512  12   21.656   8    2.2   100   2.2   0     0     971.8    NA       0.0000   -SN      BR    4500  360  
2019/05/07  07:37:00  BASE  18.4926  10   21.656   8    2.2   100   2.2   0     0     971.9    NA       0.0000   -SN      BR    5000  0    
2019/05/07  07:38:00  BASE  18.9689  10   21.7207  14   2.2   100   2.2   0     0     971.7    NA       0.0000   -SN      BR    6000  360  
2019/05/07  07:39:00  BASE  18.9983  10   21.7207  14   2.2   100   2.2   0     0     971.8    NA       0.0000   -SN      BR    6000  360  
2019/05/07  07:40:00  BASE  18.4044  11   21.7207  14   2.2   100   2.2   0     0     971.7    NA       0.0000   -SN      BR    8000  330  
2019/05/07  07:41:00  BASE  19.063   10   21.7207  14   2.2   100   2.2   0     0     971.7    NA       0.0000   -SN      BR    7000  360  
2019/05/07  07:42:00  BASE  18.9748  8    21.7207  14   2.2   100   2.2   0     0     971.7    NA       0.0000   -SN      BR    5000  330  
2019/05/07  07:43:00  BASE  18.5632  5    21.7207  14   2.2   100   2.2   0     0     971.7    NA       0.0000   -SN      BR    5000  300  
2019/05/07  07:44:00  BASE  19.3217  7    21.7207  14   2.2   100   2.2   0     0     971.5    NA       0.2540   -SN      BR    7000  330  
2019/05/07  07:45:00  BASE  19.7568  9    21.7795  11   2.2   100   2.2   0     0     971.6    NA       0.0000   -SN      BR    8000  430  
2019/05/07  07:46:00  BASE  18.916   4    21.7795  11   2.2   100   2.2   0     0     971.7    NA       0.0000   -SN      BR    5000  360  
2019/05/07  07:47:00  BASE  18.0516  3    21.7795  11   2.2   100   2.2   0     0     971.7    NA       0.0000   -SN      BR    5000  0    
2019/05/07  07:48:00  BASE  18.5514  6    21.7795  11   2.3   100   2.3   0     0     971.6    NA       0.0000   -SN      BR    6000  330  
2019/05/07  07:49:00  BASE  19.0336  7    21.7795  11   2.3   100   2.3   0     0     971.7    NA       0.0000   -SN      BR    5000  330  
2019/05/07  07:50:00  BASE  18.7572  7    21.7795  11   2.3   100   2.3   0     0     971.5    NA       0.0000   -SN      BR    5000  300  
2019/05/07  07:51:00  BASE  18.4397  7    21.7795  11   2.3   100   2.3   0     0     971.6    NA       0.0000   -SN      BR    6000  330  
2019/05/07  07:52:00  BASE  18.2809  4    21.7795  11   2.3   100   2.3   0     0     971.6    NA       0.0000   -SN      BR    8000  390  
2019/05/07  07:53:00  BASE  18.7866  4    21.7795  11   2.3   100   2.3   0     0     971.6    NA       0.0000   -SN      BR    6000  300  
2019/05/07  07:54:00  BASE  19.3628  2    21.7795  11   2.3   100   2.3   0     0     971.5    NA       0.0000   -SN      BR    4400  330  
2019/05/07  07:55:00  BASE  19.1923  3    21.5384  7    2.3   100   2.3   0     0     971.6    NA       0.2540   -SN      BR    4000  360  
2019/05/07  07:56:00  BASE  18.2986  6    21.5384  7    2.3   100   2.3   0     0     971.8    NA       0.0000   -SN      BR    3900  390  
2019/05/07  07:57:00  BASE  17.6812  3    21.5384  7    2.3   100   2.3   0     0     971.8    NA       0.0000   -SN      BR    4800  0    
2019/05/07  07:58:00  BASE  16.658   360  21.5384  7    2.3   100   2.3   0     0     971.9    NA       0.0000   -SN      BR    5000  0    
2019/05/07  07:59:00  BASE  17.4048  1    21.5384  7    2.2   100   2.2   0     0     971.7    NA       0.0000   -SN      BR    5000  390  
2019/05/07  08:00:00  BASE  18.6337  356  21.5384  7    2.2   100   2.2   0     0     971.8    NA       0.0000   -SN      BR    5000  1280 
2019/05/07  08:01:00  BASE  16.6874  351  21.5384  7    2.3   100   2.3   0     0     972.0    NA       0.0000   -SN      BR    6000  1020 
2019/05/07  08:02:00  BASE  15.5644  0    21.5384  7    2.3   100   2.3   0     0     971.9    NA       0.0000   -SN      BR    9999  920  
2019/05/07  08:03:00  BASE  16.1112  354  21.5384  7    2.3   100   2.3   0     0     971.8    NA       0.0000   -SN      BR    9999  0    
2019/05/07  08:04:00  BASE  16.9462  357  21.5384  7    2.4   100   2.4   0     0     971.7    NA       0.0000   -SN      BR    9999  1050 
2019/05/07  08:05:00  BASE  17.4989  8    21.4444  3    2.3   100   2.3   0     0     971.6    NA       0.0000   -SN      BR    9999  1020 
2019/05/07  08:06:00  BASE  18.0575  7    21.4444  3    2.3   100   2.3   0     0     971.6    NA       0.0000   -SN      BR    9999  790  
2019/05/07  08:07:00  BASE  18.3926  5    21.4444  3    2.3   100   2.3   0     0     971.7    NA       0.0000   -SN      BR    9999  890  
2019/05/07  08:08:00  BASE  18.3162  3    21.4444  3    2.3   100   2.3   0     0     971.7    NA       0.0000   -SN      BR    9999  890  
2019/05/07  08:09:00  BASE  18.8219  5    21.3856  5    2.3   100   2.3   0     0     971.6    NA       0.0000   -SN      BR    9999  790  
2019/05/07  08:10:00  BASE  18.7866  6    21.3856  5    2.3   100   2.3   0     0     971.6    NA       0.0000   -SN      9999  690   0    
2019/05/07  08:11:00  BASE  18.0928  6    21.3856  5    2.4   100   2.4   0     0     971.7    NA       0.0000   -SN      9999  750   0    
2019/05/07  08:12:00  BASE  18.2398  6    21.3856  5    2.4   100   2.4   0     0     971.7    NA       0.0000   -SN      9999  390   0    
2019/05/07  08:13:00  BASE  18.6572  7    21.3856  5    2.4   100   2.4   0     0     971.7    NA       0.0000   -SN      7000  1050  0    
2019/05/07  08:14:00  BASE  18.4985  5    21.3856  5    2.3   100   2.3   0     0     971.8    NA       0.0000   -SN      6000  1050  0    
2019/05/07  08:15:00  BASE  17.6518  3    21.3856  5    2.3   100   2.3   0     0     971.9    NA       0.0000   -SN      BR    9000  390  
2019/05/07  08:16:00  BASE  16.9814  3    21.3856  5    2.3   100   2.3   0     0     971.9    NA       0.0000   -SN      BR    9999  430  
2019/05/07  08:17:00  BASE  16.8874  4    21.3856  5    2.3   100   2.3   0     0     972.0    NA       0.2540   -SN      BR    9999  1080 
2019/05/07  08:18:00  BASE  16.5816  4    21.3856  5    2.3   100   2.3   0     0     972.0    NA       0.0000   -SN      BR    9999  1050 
2019/05/07  08:19:00  BASE  16.4405  359  20.7799  1    2.3   100   2.3   0     0     972.0    NA       0.0000   -SN      9999  430   0    
2019/05/07  08:20:00  BASE  15.9701  357  20.7799  1    2.3   100   2.3   0     0     972.1    NA       0.0000   -SN      9999  430   0    
2019/05/07  08:21:00  BASE  16.3934  1    20.7799  1    2.3   100   2.3   0     0     971.9    NA       0.0000   -SN      9999  430   0    
2019/05/07  08:22:00  BASE  17.2049  1    20.7799  1    2.3   100   2.3   0     0     971.9    NA       0.0000   -SN      9999  430   0    
2019/05/07  08:23:00  BASE  18.0516  359  21.4444  295  2.4   100   2.4   0     0     971.7    NA       0.0000   -SN      9999  430   0    
2019/05/07  08:24:00  BASE  18.6808  359  21.4444  295  2.4   100   2.4   0     0     971.8    NA       0.0000   -SN      8000  390   2990 
2019/05/07  08:25:00  BASE  18.5749  1    21.4444  295  2.4   100   2.4   0     0     971.8    NA       0.0000   -SN      9000  390   0    
2019/05/07  08:26:00  BASE  18.5279  2    21.7501  1    2.4   100   2.4   0     0     971.8    NA       0.0000   -SN      9999  390   0    
2019/05/07  08:27:00  BASE  18.0163  3    21.7501  1    2.4   100   2.4   0     0     971.8    NA       0.0000   -SN      9999  390   0    
2019/05/07  08:28:00  BASE  18.5044  4    21.7501  1    2.4   100   2.4   0     0     971.6    NA       0.0000   -SN      9999  390   0    
2019/05/07  08:29:00  BASE  18.7043  6    21.7501  1    2.4   100   2.4   0     0     971.7    NA       0.0000   -SN      9999  390   0    
2019/05/07  08:30:00  BASE  18.0634  4    21.7501  1    2.4   100   2.4   0     0     971.8    NA       0.0000   -SN      9999  890   0    
2019/05/07  08:31:00  BASE  18.6102  4    21.7501  1    2.4   100   2.4   0     0     971.6    NA       0.0000   -SN      9999  0     0    
2019/05/07  08:32:00  BASE  18.2986  6    21.7501  1    2.3   100   2.3   0     0     971.8    NA       0.0000   -SN      7000  360   0    
2019/05/07  08:33:00  BASE  16.7462  4    21.7501  1    2.3   100   2.3   0     0     971.8    NA       0.0000   -SN      BR    7000  360  
2019/05/07  08:34:00  BASE  16.9285  3    21.7501  1    2.3   100   2.3   0     0     971.7    NA       0.0000   -SN      BR    7000  920  
2019/05/07  08:35:00  BASE  17.9046  5    21.7501  1    2.2   100   2.2   0     0     971.7    NA       0.0000   -SN      BR    6000  950  
2019/05/07  08:36:00  BASE  17.3754  2    21.656   3    2.2   100   2.2   0     0     971.8    NA       0.0000   -SN      BR    9000  690  
2019/05/07  08:37:00  BASE  17.0285  2    21.656   3    2.2   100   2.2   0     0     971.8    NA       0.0000   -SN      BR    9999  720  
2019/05/07  08:38:00  BASE  17.3284  0    20.9622  7    2.3   100   2.3   0     0     971.8    NA       0.0000   -SN      BR    9999  950  
2019/05/07  08:39:00  BASE  17.1578  0    20.9622  7    2.3   100   2.3   0     0     971.8    NA       0.0000   -SN      BR    9999  920  
2019/05/07  08:40:00  BASE  16.8874  3    20.9622  7    2.3   100   2.3   0     0     971.8    NA       0.0000   -SN      BR    9999  890  
2019/05/07  08:41:00  BASE  17.0814  2    20.0861  2    2.3   100   2.3   0     0     971.7    NA       0.0000   -SN      BR    9999  520  
2019/05/07  08:42:00  BASE  17.6812  0    20.0861  2    2.4   100   2.4   0     0     971.7    NA       0.0000   -SN      BR    9999  390  
2019/05/07  08:43:00  BASE  17.4166  1    20.0861  2    2.4   100   2.4   0     0     971.8    NA       0.0000   -SN      9999  390   0    
2019/05/07  08:44:00  BASE  16.2288  1    20.0861  2    2.4   100   2.4   0     0     971.9    NA       0.0000   -SN      9999  430   0    
2019/05/07  08:45:00  BASE  15.5408  360  19.7215  3    2.4   100   2.4   0     0     971.8    NA       0.0000   -SN      9999  390   0    
2019/05/07  08:46:00  BASE  16.805   2    19.7803  3    2.4   100   2.4   0     0     971.7    NA       0.0000   -SN      9999  1020  0    
2019/05/07  08:47:00  BASE  17.5283  4    19.7803  3    2.3   100   2.3   0     0     971.7    NA       0.0000   -SN      9999  920   0    
2019/05/07  08:48:00  BASE  16.8697  6    19.7803  3    2.3   100   2.3   0     0     971.8    NA       0.0000   -SN      9999  980   0    
2019/05/07  08:49:00  BASE  16.3934  4    19.7803  3    2.3   100   2.3   0     0     971.8    NA       0.0000   -SN      9999  850   0    
2019/05/07  08:50:00  BASE  15.9289  1    19.7803  3    2.3   100   2.3   0     0     971.9    NA       0.0000   -SN      9999  850   0    
2019/05/07  08:51:00  BASE  15.9172  2    19.9332  8    2.3   100   2.3   0     0     971.8    NA       0.0000   -SN      9999  850   0    
2019/05/07  08:52:00  BASE  16.3229  3    19.9332  8    2.3   100   2.3   0     0     971.7    NA       0.0000   -SN      9999  790   0    
2019/05/07  08:53:00  BASE  16.711   5    19.9332  8    2.3   100   2.3   0     0     971.7    NA       0.0000   -SN      9999  720   0    
2019/05/07  08:54:00  BASE  15.9583  2    19.9332  8    2.3   100   2.3   0     0     971.8    NA       0.0000   -SN      9999  890   0    
2019/05/07  08:55:00  BASE  15.4174  359  19.9332  8    2.3   100   2.3   0     0     971.7    NA       0.0000   -SN      9999  790   9970 
2019/05/07  08:56:00  BASE  15.8525  1    19.9332  8    2.4   100   2.4   0     0     971.7    NA       0.0000   9999     850   0     0    
2019/05/07  08:57:00  BASE  16.1171  2    19.9332  8    2.4   100   2.4   0     0     971.7    NA       0.0000   9999     850   0     0    
2019/05/07  08:58:00  BASE  15.8878  3    19.9332  8    2.4   100   2.4   0     0     971.8    NA       0.0000   9999     9840  0     0    
2019/05/07  08:59:00  BASE  15.535   4    19.9332  8    2.4   100   2.4   0     0     971.7    NA       0.0000   9999     4300  9910  0    
2019/05/07  09:00:00  BASE  16.3993  4    19.9332  8    2.4   100   2.4   0     0     971.6    NA       0.0000   9999     690   0     0    
2019/05/07  09:01:00  BASE  16.4522  1    18.5102  1    2.3   100   2.3   0     0     971.8    NA       0.0000   9999     720   10170 0    
2019/05/07  09:02:00  BASE  14.994   2    18.5102  1    2.3   100   2.3   0     0     971.8    NA       0.0000   9999     620   0     0    
2019/05/07  09:03:00  BASE  15.5114  2    18.8748  1    2.3   100   2.3   0     0     971.7    NA       0.0000   9999     520   0     0    
2019/05/07  09:04:00  BASE  16.17    360  18.8748  1    2.2   100   2.2   0     0     971.7    NA       0.0000   9999     430   0     0    
2019/05/07  09:05:00  BASE  15.388   356  18.8748  1    2.2   100   2.2   0     0     971.7    NA       0.0000   9999     490   0     0    
2019/05/07  09:06:00  BASE  15.041   357  18.8748  1    2.2   100   2.2   0     0     971.8    NA       0.0000   9999     460   0     0    
2019/05/07  09:07:00  BASE  14.7823  3    18.8748  1    2.2   100   2.2   0     0     971.8    NA       0.0000   9999     490   0     0    
2019/05/07  09:08:00  BASE  14.2237  360  18.8748  1    2.2   100   2.2   0     0     971.8    NA       0.0000   9999     460   0     0    
2019/05/07  09:09:00  BASE  13.8004  359  18.8748  1    2.2   100   2.2   0     0     971.8    NA       0.0000   9999     460   0     0    
2019/05/07  09:10:00  BASE  14.0473  0    18.8748  1    2.2   100   2.2   0     0     971.8    NA       0.0000   9999     520   0     0    
2019/05/07  09:11:00  BASE  14.7588  1    18.8748  1    2.2   100   2.2   0     0     971.7    NA       0.0000   9999     520   0     0    
2019/05/07  09:12:00  BASE  15.0352  3    18.8748  1    2.2   100   2.2   0     0     971.7    NA       0.0000   9999     390   0     0    
2019/05/07  09:13:00  BASE  14.3237  360  17.4224  348  2.2   100   2.2   0     0     971.8    NA       0.0000   9999     490   0     0    
2019/05/07  09:14:00  BASE  14.653   6    19.2394  10   2.2   100   2.2   0     0     971.7    NA       0.0000   9999     520   0     0    
2019/05/07  09:15:00  BASE  15.8525  10   19.2394  10   2.2   100   2.2   0     0     971.6    NA       0.0000   9999     490   0     0    
2019/05/07  09:16:00  BASE  15.8525  5    19.2394  10   2.2   100   2.2   0     0     971.7    NA       0.0000   9999     460   0     0    
2019/05/07  09:17:00  BASE  15.482   6    19.2394  10   2.2   100   2.2   0     0     971.6    NA       0.0000   9999     490   0     0    
2019/05/07  09:18:00  BASE  14.8999  7    19.2394  10   2.2   100   2.2   0     0     971.7    NA       0.0000   9999     460   0     0    
2019/05/07  09:19:00  BASE  14.6941  7    19.2394  10   2.2   100   2.2   0     0     971.7    NA       0.0000   9999     460   0     0    
2019/05/07  09:20:00  BASE  14.8     6    19.2394  10   2.2   100   2.2   0     0     971.7    NA       0.0000   9999     460   0     0    
2019/05/07  09:21:00  BASE  14.0532  2    19.2394  10   2.2   100   2.2   0     0     971.7    NA       0.0000   9999     490   0     0    
2019/05/07  09:22:00  BASE  12.642   1    19.2394  10   2.2   100   2.2   0     0     971.8    NA       0.0000   9999     490   0     0    
2019/05/07  09:23:00  BASE  12.3068  3    19.2394  10   2.2   100   2.2   0     0     971.7    NA       0.0000   9999     490   0     0    
2019/05/07  09:24:00  BASE  12.495   357  17.8752  10   2.2   100   2.2   0     0     971.7    NA       0.0000   9999     490   0     0    
2019/05/07  09:25:00  BASE  11.8129  351  17.0579  4    2.2   100   2.2   0     0     971.8    NA       0.0000   9999     560   0     0    
2019/05/07  09:26:00  BASE  11.4542  357  17.0579  4    2.2   100   2.2   0     0     971.8    NA       0.0000   9999     520   0     0    
2019/05/07  09:27:00  BASE  11.907   359  16.3346  9    2.2   100   2.2   0     0     971.7    NA       0.0000   9999     560   0     0    
2019/05/07  09:28:00  BASE  12.4244  346  16.3346  9    2.2   100   2.2   0     0     971.7    NA       0.0000   9999     560   0     0    
2019/05/07  09:29:00  BASE  11.7482  350  15.7584  1    2.2   100   2.2   0     0     971.8    NA       0.0000   9999     590   0     0    
2019/05/07  09:30:00  BASE  10.8368  2    15.2762  8    2.2   100   2.2   0     0     971.8    NA       0.0000   9999     620   0     0    
2019/05/07  09:31:00  BASE  11.5366  5    15.3997  11   2.3   100   2.3   0     0     971.7    NA       0.0000   9999     620   0     0    
2019/05/07  09:32:00  BASE  12.8948  7    15.3997  11   2.3   100   2.3   0     0     971.6    NA       0.0000   9999     620   0     0    
2019/05/07  09:33:00  BASE  13.5593  9    15.3997  11   2.3   100   2.3   0     0     971.5    NA       0.0000   9999     620   0     0    
2019/05/07  09:34:00  BASE  13.4005  11   15.3997  11   2.3   100   2.3   0     0     971.6    NA       0.0000   9999     720   0     0    
2019/05/07  09:35:00  BASE  13.0654  11   15.3997  11   2.3   100   2.2   0     0     971.6    NA       0.0000   9999     690   0     0    
2019/05/07  09:36:00  BASE  13.2888  11   15.3997  11   2.2   100   2.2   0     0     971.5    NA       0.0000   9999     790   0     0    
2019/05/07  09:37:00  BASE  14.1296  14   15.8231  20   2.2   100   2.2   0     0     971.4    NA       0.0000   9999     890   0     0    
2019/05/07  09:38:00  BASE  14.6824  16   15.8231  20   2.1   100   2.1   0     0     971.4    NA       0.0000   9999     1020  0     0    
2019/05/07  09:39:00  BASE  14.653   15   15.8525  14   2.1   100   2.1   0     0     971.4    NA       0.0000   9999     820   0     0    
2019/05/07  09:40:00  BASE  14.6177  14   16.1818  16   2.1   100   2.1   0     0     971.4    NA       0.0000   9999     520   1120  0    
2019/05/07  09:41:00  BASE  15.0175  12   17.9399  10   2.1   100   2.1   0     0     971.4    NA       0.0000   9999     850   3970  0    
2019/05/07  09:42:00  BASE  15.3468  11   17.9399  10   2.1   100   2.1   0     0     971.4    NA       0.0000   9999     430   4000  0    
2019/05/07  09:43:00  BASE  14.5824  13   17.9399  10   2.1   100   2.1   0     0     971.4    NA       0.0000   9999     430   0     0    
2019/05/07  09:44:00  BASE  14.2472  13   17.9399  10   2.1   100   2.1   0     0     971.4    NA       0.0000   9999     490   0     0    
2019/05/07  09:45:00  BASE  14.6706  11   17.9399  10   2.1   100   2.1   0     0     971.3    NA       0.0000   9999     590   0     0    
2019/05/07  09:46:00  BASE  15.1116  9    17.9399  10   2.1   100   2.1   0     0     971.3    NA       0.0000   9999     560   0     0    
2019/05/07  09:47:00  BASE  15.0175  11   17.9399  10   2.1   100   2.1   0     0     971.3    NA       0.0000   9999     590   0     0    
2019/05/07  09:48:00  BASE  14.9176  11   17.9399  10   2.2   100   2.2   0     0     971.3    NA       0.0000   9999     590   0     0    
2019/05/07  09:49:00  BASE  15.1704  11   17.9399  10   2.2   100   2.2   0     0     971.3    NA       0.0000   9999     690   0     0    
2019/05/07  09:50:00  BASE  15.335   12   17.9399  10   2.2   100   2.2   0     0     971.3    NA       0.0000   9999     520   0     0    
2019/05/07  09:51:00  BASE  15.388   12   17.7282  6    2.2   100   2.2   0     0     971.3    NA       0.0000   9999     590   0     0    
2019/05/07  09:52:00  BASE  14.847   12   17.7282  6    2.2   100   2.2   0     0     971.3    NA       0.0000   9999     560   0     0    
2019/05/07  09:53:00  BASE  14.8352  11   17.7282  6    2.2   100   2.2   0     0     971.2    NA       0.0000   9999     520   0     0    
2019/05/07  09:54:00  BASE  15.1822  11   17.7282  6    2.2   100   2.2   0     0     971.3    NA       0.0000   9999     490   0     0    
2019/05/07  09:55:00  BASE  15.1175  9    17.7282  6    2.2   100   2.2   0     0     971.3    NA       0.0000   9999     460   0     0    
2019/05/07  09:56:00  BASE  14.9176  9    17.7282  6    2.2   100   2.2   0     0     971.3    NA       0.0000   9999     590   0     0    
2019/05/07  09:57:00  BASE  15.0646  14   17.7282  6    2.2   100   2.2   0     0     971.3    NA       0.0000   9999     660   0     0    
2019/05/07  09:58:00  BASE  15.1175  13   17.7282  6    2.2   100   2.2   0     0     971.3    NA       0.0000   9999     460   0     0    
2019/05/07  09:59:00  BASE  15.2762  12   17.4812  16   2.2   100   2.2   0     0     971.2    NA       0.0000   9999     980   0     0    
2019/05/07  10:00:00  BASE  15.8936  13   18.2986  9    2.2   100   2.2   0     0     971.1    NA       0.0000   9999     1050  0     0    
2019/05/07  10:01:00  BASE  15.2821  13   18.2986  9    2.2   100   2.2   0     0     971.2    NA       0.0000   9999     2620  5250  0    
2019/05/07  10:02:00  BASE  15.1763  13   18.2986  9    2.2   100   2.2   0     0     971.1    NA       0.0000   9999     980   0     0    
2019/05/07  10:03:00  BASE  15.4938  13   18.2986  9    2.2   100   2.2   0     0     971.1    NA       0.0000   9999     1050  3940  0    
2019/05/07  10:04:00  BASE  14.8705  11   18.2986  9    2.2   100   2.2   0     0     971.1    NA       0.0000   9999     430   0     0    
2019/05/07  10:05:00  BASE  14.8235  10   18.2986  9    2.2   100   2.2   0     0     971.1    NA       0.0000   9999     430   1020  0    
2019/05/07  10:06:00  BASE  14.9705  12   18.2986  9    2.2   100   2.2   0     0     971.1    NA       0.0000   9999     1050  0     0    
2019/05/07  10:07:00  BASE  14.8705  14   18.2986  9    2.2   100   2.2   0     0     971.0    NA       0.0000   UP       9999  1310  2990 
2019/05/07  10:08:00  BASE  15.094   11   18.2986  9    2.2   100   2.2   0     0     971.0    NA       0.0000   UP       9999  390   0    
2019/05/07  10:09:00  BASE  14.5295  9    18.2986  9    2.2   100   2.2   0     0     971.1    NA       0.0000   UP       9999  330   1710 
2019/05/07  10:10:00  BASE  14.0532  10   17.4812  11   2.2   100   2.2   0     0     971.0    NA       0.0000   UP       9999  330   1150 
2019/05/07  10:11:00  BASE  14.6941  10   17.4812  11   2.2   100   2.2   0     0     970.9    NA       0.0000   UP       9999  1150  2100 
2019/05/07  10:12:00  BASE  14.7529  10   17.4812  11   2.2   100   2.2   0     0     971.0    NA       0.0000   UP       9999  1020  0    
2019/05/07  10:13:00  BASE  14.0356  11   17.4812  11   2.2   100   2.2   0     0     971.0    NA       0.0000   UP       9999  980   0    
2019/05/07  10:14:00  BASE  13.9003  11   17.4812  11   2.2   100   2.2   0     0     971.0    NA       0.0000   UP       9999  390   0    
2019/05/07  10:15:00  BASE  14.1884  9    17.4812  11   2.2   100   2.2   0     0     971.0    NA       0.0000   UP       9999  1020  0    
2019/05/07  10:16:00  BASE  14.0473  9    17.4812  11   2.2   100   2.2   0     0     971.0    NA       0.0000   UP       9999  920   0    
2019/05/07  10:17:00  BASE  14.159   11   17.4812  11   2.2   100   2.2   0     0     970.9    NA       0.0000   UP       9999  890   0    
2019/05/07  10:18:00  BASE  14.2237  12   16.4875  11   2.2   100   2.2   0     0     971.0    NA       0.0000   UP       9999  920   0    
2019/05/07  10:19:00  BASE  13.6886  13   16.4875  11   2.2   100   2.2   0     0     971.0    NA       0.0000   UP       9999  790   0    
2019/05/07  10:20:00  BASE  13.1242  13   16.4875  11   2.2   100   2.2   0     0     971.0    NA       0.0000   UP       9999  920   0    
2019/05/07  10:21:00  BASE  13.5769  14   15.6114  8    2.2   100   2.2   0     0     971.0    NA       0.0000   UP       9999  980   1900 
2019/05/07  10:22:00  BASE  13.8944  13   15.5761  10   2.3   100   2.3   0     0     971.0    NA       0.0000   UP       9999  950   0    
2019/05/07  10:23:00  BASE  13.8356  12   15.5761  10   2.3   100   2.3   0     0     971.0    NA       0.0000   UP       9999  920   0    
2019/05/07  10:24:00  BASE  13.3182  10   15.5761  10   2.3   100   2.3   0     0     971.0    NA       0.0000   9999     820   0     0    
2019/05/07  10:25:00  BASE  12.4597  12   15.5761  10   2.3   100   2.3   0     0     971.0    NA       0.0000   9999     1050  0     0    
2019/05/07  10:26:00  BASE  12.9066  14   15.5761  10   2.3   100   2.3   0     0     970.9    NA       0.0000   9999     950   0     0    
2019/05/07  10:27:00  BASE  13.3417  12   15.5761  10   2.3   100   2.3   0     0     970.9    NA       0.0000   9999     1020  4530  0    
2019/05/07  10:28:00  BASE  13.0242  11   15.3997  9    2.3   100   2.3   0     0     970.9    NA       0.0000   9999     890   3670  0    
2019/05/07  10:29:00  BASE  13.0595  12   15.3997  9    2.3   100   2.3   0     0     970.8    NA       0.0000   9999     980   3670  0    
2019/05/07  10:30:00  BASE  13.6828  11   15.3997  9    2.3   100   2.3   0     0     970.8    NA       0.0000   9999     950   0     0    
2019/05/07  10:31:00  BASE  14.0532  11   15.3997  9    2.3   100   2.3   0     0     970.7    NA       0.0000   9999     920   0     0    
2019/05/07  10:32:00  BASE  14.0826  9    15.6702  9    2.3   100   2.3   0     0     970.7    NA       0.0000   9999     890   0     0    
2019/05/07  10:33:00  BASE  14.5706  7    16.1818  19   2.3   100   2.3   0     0     970.7    NA       0.0000   9999     850   0     0    
2019/05/07  10:34:00  BASE  14.6236  8    16.8815  12   2.4   100   2.4   0     0     970.7    NA       0.0000   9999     790   0     0    
2019/05/07  10:35:00  BASE  14.1296  10   16.8815  12   2.4   100   2.4   0     0     970.7    NA       0.0000   9999     790   0     0    
2019/05/07  10:36:00  BASE  14.0944  13   16.8815  12   2.4   100   2.4   0     0     970.7    NA       0.0000   9999     790   0     0    
2019/05/07  10:37:00  BASE  13.6534  15   16.8815  12   2.4   100   2.4   0     0     970.7    NA       0.0000   9999     750   0     0    
2019/05/07  10:38:00  BASE  13.4358  14   16.8815  12   2.4   100   2.4   0     0     970.7    NA       0.0000   UP       9999  890   0    
2019/05/07  10:39:00  BASE  13.9356  13   16.8815  12   2.4   100   2.4   0     0     970.6    NA       0.0000   UP       9999  950   3770 
2019/05/07  10:40:00  BASE  14.0473  13   16.8815  12   2.3   100   2.3   0     0     970.6    NA       0.0000   UP       9999  620   0    
2019/05/07  10:41:00  BASE  13.9415  11   16.8815  12   2.3   100   2.3   0     0     970.6    NA       0.0000   9999     790   3540  0    
2019/05/07  10:42:00  BASE  14.2766  11   16.8815  12   2.3   100   2.3   0     0     970.5    NA       0.0000   9999     790   3580  0    
2019/05/07  10:43:00  BASE  14.3178  11   16.8815  12   2.3   100   2.3   0     0     970.6    NA       0.0000   9999     790   3610  0    
2019/05/07  10:44:00  BASE  14.3296  10   16.1818  9    2.3   100   2.3   0     0     970.6    NA       0.0000   9999     790   0     0    
2019/05/07  10:45:00  BASE  14.8764  10   16.1818  9    2.3   100   2.3   0     0     970.5    NA       0.0000   9999     750   0     0    
2019/05/07  10:46:00  BASE  15.0822  10   16.1818  9    2.3   100   2.3   0     0     970.5    NA       0.0000   9999     750   0     0    
2019/05/07  10:47:00  BASE  14.9705  10   16.1818  9    2.3   100   2.3   0     0     970.5    NA       0.0000   9999     660   0     0    
2019/05/07  10:48:00  BASE  14.9293  9    16.8815  9    2.3   100   2.3   0     0     970.5    NA       0.0000   9999     850   0     0    
2019/05/07  10:49:00  BASE  14.159   6    16.8815  9    2.3   100   2.3   0     0     970.6    NA       0.0000   9999     950   4230  0    
2019/05/07  10:50:00  BASE  13.5652  4    16.8815  9    2.4   100   2.4   0     0     970.6    NA       0.0000   9999     980   0     0    
2019/05/07  10:51:00  BASE  13.0595  4    16.8815  9    2.4   100   2.4   0     0     970.6    NA       0.0000   9999     950   0     0    
2019/05/07  10:52:00  BASE  12.5068  3    16.8815  9    2.4   100   2.4   0     0     970.6    NA       0.0000   9999     1080  0     0    
2019/05/07  10:53:00  BASE  12.1834  3    16.8815  9    2.4   100   2.4   0     0     970.6    NA       0.0000   UP       9999  390   0    
2019/05/07  10:54:00  BASE  12.007   3    16.8815  9    2.3   100   2.3   0     0     970.6    NA       0.0000   UP       9999  360   0    
2019/05/07  10:55:00  BASE  12.5656  4    16.8815  9    2.3   100   2.3   0     0     970.6    NA       0.0000   UP       9999  820   0    
2019/05/07  10:56:00  BASE  12.6008  5    16.8815  9    2.3   100   2.3   0     0     970.6    NA       0.0000   UP       9999  950   0    
2019/05/07  10:57:00  BASE  12.7126  6    16.8815  9    2.3   100   2.3   0     0     970.5    NA       0.0000   UP       9999  920   0    
2019/05/07  10:58:00  BASE  13.0889  6    16.3346  8    2.3   100   2.3   0     0     970.5    NA       0.0000   UP       9999  790   0    
2019/05/07  10:59:00  BASE  13.0477  6    16.3346  8    2.3   100   2.3   0     0     970.5    NA       0.0000   UP       9999  820   0    
2019/05/07  11:00:00  BASE  13.3241  6    16.5463  6    2.3   100   2.3   0     0     970.4    NA       0.0000   UP       9999  720   0    
2019/05/07  11:01:00  BASE  13.7533  3    16.5463  6    2.3   100   2.3   0     0     970.4    NA       0.0000   UP       9999  590   0    
2019/05/07  11:02:00  BASE  13.7533  4    16.5463  6    2.3   100   2.3   0     0     970.4    NA       0.0000   UP       9999  720   0    
2019/05/07  11:03:00  BASE  13.3182  4    16.5463  6    2.3   100   2.3   0     0     970.5    NA       0.0000   UP       9999  390   0    
2019/05/07  11:04:00  BASE  12.1187  359  16.5463  6    2.3   100   2.3   0     0     970.5    NA       0.0000   UP       9999  390   0    
2019/05/07  11:05:00  BASE  11.2896  359  16.5463  6    2.3   100   2.3   0     0     970.6    NA       0.0000   UP       9999  330   0    
2019/05/07  11:06:00  BASE  11.7835  4    16.5463  6    2.3   100   2.3   0     0     970.5    NA       0.0000   UP       9999  750   0    
2019/05/07  11:07:00  BASE  11.9717  3    16.5463  6    2.3   100   2.3   0     0     970.5    NA       0.0000   UP       9999  890   0    
2019/05/07  11:08:00  BASE  11.419   358  16.5463  6    2.3   100   2.3   0     0     970.5    NA       0.0000   UP       9999  790   0    
2019/05/07  11:09:00  BASE  11.4366  352  16.5463  6    2.3   100   2.3   0     0     970.4    NA       0.0000   UP       9999  890   0    
2019/05/07  11:10:00  BASE  11.5895  357  15.2762  1    2.3   100   2.3   0     0     970.4    NA       0.0000   UP       9999  920   0    
2019/05/07  11:11:00  BASE  11.5836  360  15.2762  1    2.4   100   2.4   0     0     970.4    NA       0.0000   UP       9999  850   0    
2019/05/07  11:12:00  BASE  11.7953  357  14.7588  1    2.4   100   2.4   0     0     970.4    NA       0.0000   UP       9999  850   0    
2019/05/07  11:13:00  BASE  12.8125  3    14.7588  1    2.4   100   2.4   0     0     970.2    NA       0.0000   UP       9999  790   0    
2019/05/07  11:14:00  BASE  13.5593  5    14.7588  1    2.4   100   2.4   0     0     970.3    NA       0.0000   UP       9999  820   0    
2019/05/07  11:15:00  BASE  13.3417  1    15.8525  360  2.4   100   2.4   0     0     970.2    NA       0.0000   UP       9999  660   0    
2019/05/07  11:16:00  BASE  13.1359  0    15.8525  360  2.4   100   2.4   0     0     970.3    NA       0.0000   UP       9999  430   0    
2019/05/07  11:17:00  BASE  12.9948  3    15.8525  360  2.4   100   2.4   0     0     970.2    NA       0.0000   UP       9999  720   0    
2019/05/07  11:18:00  BASE  13.3888  3    15.8525  360  2.4   100   2.4   0     0     970.2    NA       0.0000   UP       9999  890   0    
2019/05/07  11:19:00  BASE  13.3652  2    15.8525  360  2.4   100   2.4   0     0     970.2    NA       0.2540   UP       9999  360   0    
2019/05/07  11:20:00  BASE  13.0595  3    15.8525  360  2.4   100   2.4   0     0     970.2    NA       0.0000   UP       9999  790   0    
2019/05/07  11:21:00  BASE  13.5534  5    15.8525  360  2.4   100   2.4   0     0     970.1    NA       0.0000   UP       9999  720   0    
2019/05/07  11:22:00  BASE  14.0708  4    15.8525  360  2.4   100   2.4   0     0     970.1    NA       0.0000   UP       9999  750   0    
2019/05/07  11:23:00  BASE  13.7004  1    15.8525  360  2.4   100   2.4   0     0     970.2    NA       0.0000   UP       9999  430   0    
2019/05/07  11:24:00  BASE  13.8709  1    16.3052  2    2.4   100   2.4   0     0     970.1    NA       0.0000   UP       9999  430   0    
2019/05/07  11:25:00  BASE  14.506   6    17.3342  3    2.4   100   2.4   0     0     970.1    NA       0.0000   UP       9999  820   0    
2019/05/07  11:26:00  BASE  14.306   5    17.3342  3    2.4   100   2.4   0     0     970.1    NA       0.0000   UP       9999  720   0    
2019/05/07  11:27:00  BASE  14.0826  1    17.3342  3    2.4   100   2.4   0     0     970.1    NA       0.0000   UP       9999  820   0    
2019/05/07  11:28:00  BASE  14.0473  3    17.3342  3    2.5   100   2.5   0     0     970.1    NA       0.0000   UP       9999  850   0    
2019/05/07  11:29:00  BASE  14.2296  2    17.3342  3    2.5   100   2.5   0     0     970.0    NA       0.0000   UP       9999  890   0    
2019/05/07  11:30:00  BASE  14.065   1    17.3342  3    2.5   100   2.5   0     0     970.1    NA       0.0000   UP       9999  950   0    
2019/05/07  11:31:00  BASE  13.0536  4    17.3342  3    2.5   100   2.5   0     0     970.2    NA       0.0000   UP       9999  1020  0    
2019/05/07  11:32:00  BASE  12.2774  6    17.3342  3    2.4   100   2.4   0     0     970.2    NA       0.0000   UP       9000  390   0    
2019/05/07  11:33:00  BASE  12.3598  6    17.3342  3    2.4   100   2.4   0     0     970.1    NA       0.0000   UP       9000  0     0    
2019/05/07  11:34:00  BASE  12.4774  4    17.3342  3    2.3   100   2.3   0     0     970.2    NA       0.0000   UP       9999  0     0    
2019/05/07  11:35:00  BASE  12.2304  5    15.9113  2    2.2   100   2.2   0     0     970.2    NA       0.0000   UP       9999  1080  0    
2019/05/07  11:36:00  BASE  12.4303  7    15.9113  2    2.2   100   2.2   0     0     970.1    NA       0.0000   UP       9999  0     0    
2019/05/07  11:37:00  BASE  12.9007  7    15.9113  2    2.2   100   2.2   0     0     970.1    NA       0.0000   UP       8000  0     0    
2019/05/07  11:38:00  BASE  12.8948  7    15.9113  2    2.1   100   2.1   0     0     970.1    NA       0.0000   -SN      BR    6000  360  
2019/05/07  11:39:00  BASE  12.4891  8    15.1234  353  2.1   100   2.1   0     0     970.0    NA       0.0000   -SN      BR    7000  1280 
2019/05/07  11:40:00  BASE  12.6126  11   14.3707  3    2.1   100   2.1   0     0     970.0    NA       0.0000   -SN      BR    9000  1210 
2019/05/07  11:41:00  BASE  12.9772  10   14.4883  11   2.1   100   2.1   0     0     969.9    NA       0.0000   -SN      BR    9000  0    
2019/05/07  11:42:00  BASE  12.6832  9    14.4883  11   2.1   100   2.1   0     0     970.0    NA       0.0000   -SN      BR    9999  0    
2019/05/07  11:43:00  BASE  13.0536  10   15.094   9    2.1   100   2.1   0     0     969.9    NA       0.0000   -SN      BR    9999  0    
2019/05/07  11:44:00  BASE  13.2888  9    15.094   9    2.2   100   2.2   0     0     969.9    NA       0.0000   -SN      BR    9999  0    
2019/05/07  11:45:00  BASE  12.8302  8    15.094   9    2.2   100   2.2   0     0     969.8    NA       0.0000   -SN      BR    9999  0    
2019/05/07  11:46:00  BASE  13.2241  12   15.094   9    2.3   100   2.3   0     0     969.8    NA       0.0000   -SN      BR    9999  1310 
2019/05/07  11:47:00  BASE  13.5946  12   15.094   9    2.3   100   2.3   0     0     969.8    NA       0.2540   -SN      9999  1250  0    
2019/05/07  11:48:00  BASE  13.277   13   15.094   9    2.4   100   2.4   0     0     969.8    NA       0.0000   -SN      9999  1280  0    
2019/05/07  11:49:00  BASE  13.3829  15   15.094   9    2.4   100   2.4   0     0     969.8    NA       0.0000   -SN      9999  1250  0    
2019/05/07  11:50:00  BASE  13.3594  16   15.094   9    2.4   100   2.4   0     0     969.8    NA       0.0000   -SN      9999  1280  0    
2019/05/07  11:51:00  BASE  12.9184  14   15.094   9    2.4   100   2.4   0     0     969.8    NA       0.0000   9999     1350  0     0    
2019/05/07  11:52:00  BASE  12.5832  11   15.094   9    2.5   100   2.5   0     0     969.8    NA       0.0000   9999     7090  0     0    
2019/05/07  11:53:00  BASE  12.689   10   14.6118  13   2.5   100   2.5   0     0     969.7    NA       0.0000   9999     1900  0     0    
2019/05/07  11:54:00  BASE  12.6655  9    14.6118  13   2.5   100   2.5   0     0     969.8    NA       0.0000   9999     6590  0     0    
2019/05/07  11:55:00  BASE  12.542   8    14.6118  13   2.5   100   2.5   0     0     969.8    NA       0.0000   9999     1840  0     0    
2019/05/07  11:56:00  BASE  13.0066  10   16.1818  14   2.6   100   2.6   0     0     969.7    NA       0.0000   9999     1440  2100  0    
2019/05/07  11:57:00  BASE  13.7063  11   16.1818  14   2.6   100   2.6   0     0     969.6    NA       0.0000   9999     1900  0     0    
2019/05/07  11:58:00  BASE  14.1414  10   16.1818  14   2.7   100   2.7   0     0     969.6    NA       0.0000   9999     1940  0     0    
2019/05/07  11:59:00  BASE  13.6828  14   16.1818  14   2.7   100   2.7   0     0     969.6    NA       0.0000   9999     1610  0     0    
2019/05/07  12:00:00  BASE  13.0536  13   16.1818  14   2.7   100   2.7   0     0     969.6    NA       0.0000   -SN      9999  390   0    
2019/05/07  12:01:00  BASE  12.495   12   16.1818  14   2.6   100   2.6   0     0     969.7    NA       0.0000   -SN      9999  0     0    
2019/05/07  12:02:00  BASE  12.0305  13   16.1818  14   2.5   100   2.5   0     0     969.7    NA       0.0000   -SN      9999  0     0    
2019/05/07  12:03:00  BASE  12.3245  13   16.1818  14   2.5   100   2.5   0     0     969.6    NA       0.0000   -SN      9999  1150  0    
2019/05/07  12:04:00  BASE  12.642   14   16.1818  14   2.5   100   2.5   0     0     969.6    NA       0.0000   -SN      9999  430   0    
2019/05/07  12:05:00  BASE  12.3715  11   16.1818  14   2.5   100   2.5   0     0     969.6    NA       0.0000   -SN      9999  1210  0    
2019/05/07  12:06:00  BASE  12.6126  6    15.7584  6    2.5   100   2.5   0     0     969.5    NA       0.0000   -SN      9999  1310  0    
2019/05/07  12:07:00  BASE  12.7126  7    15.094   13   2.5   100   2.5   0     0     969.5    NA       0.0000   -SN      9999  1310  0    
2019/05/07  12:08:00  BASE  13.13    11   15.6114  9    2.5   100   2.5   0     0     969.4    NA       0.0000   -SN      9999  1280  0    
2019/05/07  12:09:00  BASE  14.2296  8    15.6114  9    2.5   100   2.5   0     0     969.3    NA       0.0000   -SN      9999  1410  0    
2019/05/07  12:10:00  BASE  14.2296  8    15.6114  9    2.5   100   2.5   0     0     969.3    NA       0.0000   -SN      9999  1640  0    
2019/05/07  12:11:00  BASE  13.6298  7    15.6114  9    2.6   100   2.6   0     0     969.3    NA       0.0000   -SN      9999  1410  0    
2019/05/07  12:12:00  BASE  13.9532  5    15.9701  11   2.6   100   2.6   0     0     969.1    NA       0.0000   -SN      9999  1380  2070 
2019/05/07  12:13:00  BASE  14.2649  3    15.9701  11   2.6   100   2.6   0     0     969.2    NA       0.0000   9999     1180  0     0    
2019/05/07  12:14:00  BASE  14.065   1    15.9701  11   2.7   100   2.7   0     0     969.2    NA       0.0000   9999     1250  6140  0    
2019/05/07  12:15:00  BASE  14.1414  4    16.2758  5    2.7   100   2.7   0     0     969.2    NA       0.0000   9999     1310  0     0    
2019/05/07  12:16:00  BASE  14.4472  7    16.2758  5    2.7   100   2.7   0     0     969.2    NA       0.0000   9999     1250  0     0    
2019/05/07  12:17:00  BASE  13.9474  11   16.2758  5    2.7   100   2.7   0     0     969.3    NA       0.0000   9999     1280  0     0    
2019/05/07  12:18:00  BASE  13.6592  10   16.2758  5    2.7   100   2.7   0     0     969.2    NA       0.0000   9999     1210  0     0    
2019/05/07  12:19:00  BASE  13.5652  9    16.2758  5    2.7   100   2.7   0     0     969.2    NA       0.0000   9999     1210  4170  0    
2019/05/07  12:20:00  BASE  13.718   6    16.6345  7    2.6   100   2.6   0     0     969.1    NA       0.0000   9000     0     0     0    
2019/05/07  12:21:00  BASE  14.3296  6    16.6345  7    2.6   100   2.6   0     0     969.0    NA       0.0000   -SN      7000  300   0    
2019/05/07  12:22:00  BASE  14.6412  9    16.6345  7    2.6   100   2.6   0     0     969.0    NA       0.0000   -SN      8000  390   1410 
2019/05/07  12:23:00  BASE  14.9587  13   16.6345  7    2.5   100   2.5   0     0     969.0    NA       0.0000   -SN      9999  360   0    
2019/05/07  12:24:00  BASE  15.1528  15   16.6345  7    2.5   100   2.5   0     0     968.9    NA       0.0000   -SN      8000  330   1250 
2019/05/07  12:25:00  BASE  15.041   14   16.6345  7    2.5   100   2.5   0     0     969.0    NA       0.0000   -SN      BR    6000  360  
2019/05/07  12:26:00  BASE  14.7529  15   16.6345  7    2.5   100   2.5   1     0     969.0    NA       0.0000   -SN      BR    6000  360  
2019/05/07  12:27:00  BASE  15.2116  15   16.9403  15   2.4   100   2.4   1     0     968.9    NA       0.0000   -SN      BR    8000  1380 
2019/05/07  12:28:00  BASE  15.4703  14   17.3048  14   2.5   100   2.5   1     0     968.9    NA       0.0000   -SN      BR    9999  1210 
2019/05/07  12:29:00  BASE  15.8819  14   17.3048  14   2.5   100   2.5   1     0     968.8    NA       0.0000   -SN      BR    9999  890  
2019/05/07  12:30:00  BASE  15.9877  15   17.3048  14   2.5   100   2.5   1     0     968.9    NA       0.0000   -SN      BR    9999  750  
2019/05/07  12:31:00  BASE  15.2821  15   17.3048  14   2.6   100   2.6   1     0     968.9    NA       0.0000   -SN      BR    9999  690  
2019/05/07  12:32:00  BASE  14.2943  13   17.3048  14   2.6   100   2.6   1     0     969.0    NA       0.0000   -SN      BR    9999  750  
2019/05/07  12:33:00  BASE  13.8298  14   17.3048  14   2.6   100   2.5   1     0     969.0    NA       0.0000   -SN      BR    9999  660  
2019/05/07  12:34:00  BASE  13.8533  13   17.3048  14   2.5   100   2.5   1     0     969.0    NA       0.0000   -SN      BR    9999  460  
2019/05/07  12:35:00  BASE  14.3119  13   17.3048  14   2.4   100   2.4   1     0     968.9    NA       0.0000   -SN      9999  460   0    
2019/05/07  12:36:00  BASE  14.6353  12   17.3048  14   2.4   100   2.4   1     0     968.9    NA       0.0000   -SN      9999  560   0    
2019/05/07  12:37:00  BASE  14.0238  10   17.3048  14   2.4   100   2.4   1     0     968.9    NA       0.0000   -SN      9999  590   0    
2019/05/07  12:38:00  BASE  14.5236  10   17.2696  13   2.4   100   2.4   1     0     968.8    NA       0.0000   -SN      9999  620   0    
2019/05/07  12:39:00  BASE  15.6467  13   17.3342  11   2.4   100   2.4   1     0     968.8    NA       0.0000   -SN      9999  750   0    
2019/05/07  12:40:00  BASE  16.0759  14   17.3342  11   2.4   100   2.4   1     0     968.7    NA       0.0000   9999     660   0     0    
2019/05/07  12:41:00  BASE  15.9936  12   17.3342  11   2.4   100   2.4   1     0     968.7    NA       0.0000   9999     430   0     0    
2019/05/07  12:42:00  BASE  15.9466  12   17.7576  5    2.4   100   2.4   1     0     968.7    NA       0.0000   9999     330   0     0    
2019/05/07  12:43:00  BASE  15.776   12   17.7576  5    2.4   100   2.4   1     0     968.7    NA       0.0000   -SN      9999  300   1480 
2019/05/07  12:44:00  BASE  15.4232  11   17.7576  5    2.4   100   2.4   1     0     968.7    NA       0.0000   -SN      8000  300   0    
2019/05/07  12:45:00  BASE  15.776   10   17.7576  5    2.3   100   2.3   1     0     968.6    NA       0.2540   -SN      5000  260   0    
2019/05/07  12:46:00  BASE  16.3699  8    18.8748  9    2.3   100   2.3   1     0     968.6    NA       0.0000   -SN      BR    4500  300  
2019/05/07  12:47:00  BASE  15.8525  10   18.8748  9    2.3   100   2.3   1     0     968.7    NA       0.0000   -SN      BR    3800  330  
2019/05/07  12:48:00  BASE  15.6055  10   18.8748  9    2.3   100   2.3   1     0     968.6    NA       0.0000   -SN      BR    4300  460  
2019/05/07  12:49:00  BASE  15.776   8    18.8748  9    2.3   100   2.3   1     0     968.6    NA       0.0000   -SN      BR    7000  460  
2019/05/07  12:50:00  BASE  15.1645  7    18.8748  9    2.3   100   2.3   1     0     968.6    NA       0.0000   -SN      BR    9999  430  
2019/05/07  12:51:00  BASE  14.7706  8    18.8748  9    2.3   100   2.3   1     0     968.6    NA       0.0000   -SN      BR    7000  850  
2019/05/07  12:52:00  BASE  15.2116  9    18.8748  9    2.3   100   2.3   2     0     968.6    NA       0.0000   -SN      BR    5000  980  
2019/05/07  12:53:00  BASE  15.7114  8    18.8748  9    2.3   100   2.3   2     0     968.5    NA       0.0000   -SN      BR    7000  1020 
2019/05/07  12:54:00  BASE  15.5996  9    18.8748  9    2.3   100   2.3   2     0     968.5    NA       0.0000   -SN      BR    9999  750  
2019/05/07  12:55:00  BASE  15.2762  11   18.8748  9    2.3   100   2.3   2     0     968.5    NA       0.0000   -SN      BR    9999  460  
2019/05/07  12:56:00  BASE  15.7643  11   17.8458  5    2.3   100   2.3   2     0     968.4    NA       0.0000   -SN      BR    9999  490  
2019/05/07  12:57:00  BASE  16.0289  11   17.8458  5    2.4   100   2.4   2     0     968.4    NA       0.0000   -SN      BR    9999  620  
2019/05/07  12:58:00  BASE  15.4409  12   17.8458  5    2.4   100   2.4   2     0     968.4    NA       0.0000   -SN      BR    9999  660  
2019/05/07  12:59:00  BASE  15.0881  12   17.8458  5    2.4   100   2.4   2     0     968.4    NA       0.0000   -SN      BR    9999  430  
2019/05/07  13:00:00  BASE  15.1645  12   17.8458  5    2.4   100   2.4   2     0     968.3    NA       0.0000   -SN      BR    9999  360  
2019/05/07  13:01:00  BASE  15.5408  14   17.8458  5    2.4   100   2.4   2     0     968.3    NA       0.0000   -SN      BR    5000  300  
2019/05/07  13:02:00  BASE  15.5585  15   17.8458  5    2.3   100   2.3   3     0     968.2    NA       0.0000   -SN      BR    4700  360  
2019/05/07  13:03:00  BASE  16.0406  16   17.8458  5    2.3   100   2.3   3     0     968.2    NA       0.0000   -SN      BR    6000  920  
2019/05/07  13:04:00  BASE  16.1406  15   17.8458  5    2.3   100   2.3   3     0     968.2    NA       0.0000   -SN      BR    9999  660  
2019/05/07  13:05:00  BASE  15.1939  14   17.8458  5    2.3   100   2.3   3     0     968.3    NA       0.0000   -SN      BR    9999  660  
2019/05/07  13:06:00  BASE  14.9587  14   17.6047  13   2.3   100   2.3   4     0     968.2    NA       0.0000   -SN      BR    9999  750  
2019/05/07  13:07:00  BASE  14.4707  11   17.6047  13   2.3   100   2.3   5     0     968.3    NA       0.0000   -SN      BR    9999  950  
2019/05/07  13:08:00  BASE  14.7647  11   17.6047  10   2.3   100   2.3   5     0     968.1    NA       0.0000   -SN      BR    9999  790  
2019/05/07  13:09:00  BASE  15.8642  8    17.6047  10   2.4   100   2.4   6     0     968.1    NA       0.0000   -SN      BR    9999  890  
2019/05/07  13:10:00  BASE  15.8466  5    17.6047  10   2.4   100   2.4   7     0     968.1    NA       0.0000   -SN      BR    9999  980  
2019/05/07  13:11:00  BASE  16.0171  8    17.6047  10   2.5   100   2.5   8     0     968.0    NA       0.0000   -SN      9999  1120  0    
2019/05/07  13:12:00  BASE  15.8995  8    17.6047  10   2.5   100   2.5   9     0     967.9    NA       0.0000   -SN      9999  850   0    
2019/05/07  13:13:00  BASE  15.4879  9    17.6047  10   2.5   100   2.5   9     0     967.9    NA       0.0000   -SN      9999  430   0    
2019/05/07  13:14:00  BASE  15.5879  12   17.6047  10   2.4   100   2.4   10    0     967.8    NA       0.0000   -SN      9999  850   0    
2019/05/07  13:15:00  BASE  16.0289  15   17.6047  10   2.4   100   2.4   11    0     967.8    NA       0.0000   -SN      9999  1020  1800 
2019/05/07  13:16:00  BASE  15.4879  14   17.6047  10   2.3   100   2.3   11    0     967.9    NA       0.0000   -SN      9999  1410  0    
2019/05/07  13:17:00  BASE  14.7     13   17.6047  10   2.3   100   2.3   11    0     967.8    NA       0.0000   -SN      9999  0     0    
2019/05/07  13:18:00  BASE  14.8     14   17.4812  13   2.3   100   2.3   11    0     967.7    NA       0.0000   -SN      9999  1150  0    
2019/05/07  13:19:00  BASE  14.8823  15   17.4812  13   2.2   100   2.2   9     0     967.7    NA       0.0000   -SN      9999  0     0    
2019/05/07  13:20:00  BASE  14.8999  13   17.4812  13   2.2   100   2.2   8     0     967.7    NA       0.0000   -SN      7000  0     0    
2019/05/07  13:21:00  BASE  15.0528  9    17.4812  13   2.2   100   2.2   7     0     967.6    NA       0.2540   -SN      BR    3200  330  
2019/05/07  13:22:00  BASE  15.9995  8    17.4812  13   2.2   100   2.2   7     0     967.5    NA       0.0000   -SN      BR    2500  390  
2019/05/07  13:23:00  BASE  16.5287  11   17.4812  13   2.2   100   2.2   7     0     967.4    NA       0.0000   -SN      BR    3000  820  
2019/05/07  13:24:00  BASE  16.1994  15   17.4812  13   2.2   100   2.2   9     0     967.4    NA       0.0000   -SN      BR    3600  790  
2019/05/07  13:25:00  BASE  16.4111  18   17.6635  21   2.2   100   2.2   10    0     967.3    NA       0.0000   -SN      BR    6000  1210 
2019/05/07  13:26:00  BASE  16.7698  17   17.9399  13   2.2   100   2.2   11    0     967.3    NA       0.0000   -SN      BR    9000  1310 
2019/05/07  13:27:00  BASE  16.7933  15   17.9987  14   2.2   100   2.2   14    0     967.4    NA       0.0000   -SN      BR    9000  1310 
2019/05/07  13:28:00  BASE  16.1288  16   17.9987  14   2.2   100   2.2   15    0     967.4    NA       0.0000   -SN      BR    9000  1380 
2019/05/07  13:29:00  BASE  15.4879  15   17.9987  14   2.2   100   2.2   16    0     967.4    NA       0.0000   -SN      BR    9999  1540 
2019/05/07  13:30:00  BASE  15.1528  12   17.9987  14   2.2   100   2.2   17    0     967.4    NA       0.0000   -SN      BR    9999  0    
2019/05/07  13:31:00  BASE  14.653   10   17.9987  14   2.2   100   2.2   18    0     967.4    NA       0.0000   -SN      BR    9999  0    
2019/05/07  13:32:00  BASE  14.3296  12   17.9987  14   2.2   100   2.2   19    0     967.3    NA       0.0000   -SN      BR    9999  0    
2019/05/07  13:33:00  BASE  14.6059  14   17.9987  14   2.2   100   2.2   20    0     967.3    NA       0.0000   -SN      BR    9999  1440 
2019/05/07  13:34:00  BASE  14.9293  15   17.9987  14   2.3   100   2.3   19    0     967.2    NA       0.0000   -SN      9999  0     0    
2019/05/07  13:35:00  BASE  15.0646  15   17.9987  14   2.3   100   2.3   17    0     967.3    NA       0.0000   -SN      9999  1150  0    
2019/05/07  13:36:00  BASE  14.7235  12   17.9987  14   2.3   100   2.3   18    0     967.3    NA       0.0000   -SN      9999  1120  0    
2019/05/07  13:37:00  BASE  13.8709  9    16.2758  15   2.4   100   2.4   19    0     967.3    NA       0.0000   -SN      9999  1120  0    
2019/05/07  13:38:00  BASE  13.7004  12   16.2758  15   2.4   100   2.4   21    0     967.3    NA       0.0000   -SN      9999  1250  0    
2019/05/07  13:39:00  BASE  14.3531  13   16.7286  17   2.4   100   2.4   21    0     967.2    NA       0.0000   -SN      9999  1250  0    
2019/05/07  13:40:00  BASE  15.4644  14   16.9991  17   2.4   100   2.4   22    0     967.1    NA       0.0000   9999     1350  0     0    
2019/05/07  13:41:00  BASE  15.1939  14   16.9991  17   2.5   100   2.5   23    0     967.2    NA       0.0000   9999     1480  1970  0    
2019/05/07  13:42:00  BASE  14.6824  13   17.0932  12   2.5   100   2.5   23    0     967.2    NA       0.0000   9999     490   2070  0    
2019/05/07  13:43:00  BASE  15.3292  14   17.7282  17   2.5   100   2.5   23    0     967.2    NA       0.0000   9999     1310  0     0    
2019/05/07  13:44:00  BASE  16.0936  13   17.7282  17   2.6   100   2.6   22    0     967.1    NA       0.0000   9999     1350  4100  0    
2019/05/07  13:45:00  BASE  16.0877  11   17.7282  17   2.6   100   2.6   22    0     967.1    NA       0.0000   9999     0     0     0    
2019/05/07  13:46:00  BASE  16.0112  8    17.7282  17   2.6   100   2.6   22    0     967.0    NA       0.0000   9999     0     0     0    
2019/05/07  13:47:00  BASE  16.3993  7    17.7282  17   2.6   100   2.6   23    0     967.0    NA       0.0000   9999     950   0     0    
2019/05/07  13:48:00  BASE  15.8231  9    17.7282  17   2.6   100   2.6   25    0     967.1    NA       0.0000   9999     0     0     0    
2019/05/07  13:49:00  BASE  14.9293  8    17.7282  17   2.7   100   2.7   27    0     967.0    NA       0.0000   9999     0     0     0    
2019/05/07  13:50:00  BASE  15.1763  10   17.7282  17   2.7   100   2.7   27    0     967.0    NA       0.0000   9999     0     0     0    
2019/05/07  13:51:00  BASE  15.682   14   17.7282  17   2.7   100   2.7   26    0     966.9    NA       0.0000   9999     4100  0     0    
2019/05/07  13:52:00  BASE  15.8348  15   17.7576  23   2.7   100   2.7   26    0     966.8    NA       0.0000   9999     0     0     0    
2019/05/07  13:53:00  BASE  16.3229  15   18.5455  14   2.6   100   2.6   29    0     966.8    NA       0.0000   9999     0     0     0    
2019/05/07  13:54:00  BASE  16.0112  15   18.5455  14   2.6   100   2.6   30    0     966.8    NA       0.0000   9999     0     0     0    
2019/05/07  13:55:00  BASE  16.5698  16   18.7866  18   2.5   100   2.5   31    0     966.6    NA       0.0000   9999     0     0     0    
2019/05/07  13:56:00  BASE  17.7164  18   19.0865  21   2.5   100   2.5   31    0     966.6    NA       0.0000   -SN      9999  0     0    
2019/05/07  13:57:00  BASE  17.8928  18   19.2688  17   2.4   100   2.4   31    0     966.5    NA       0.0000   -SN      8000  0     0    
2019/05/07  13:58:00  BASE  17.7576  18   19.2688  17   2.3   100   2.3   31    0     966.6    NA       0.0000   -SN      6000  0     0    
2019/05/07  13:59:00  BASE  17.3578  17   19.2688  17   2.3   100   2.3   32    0     966.5    NA       0.0000   -SN      5000  0     0    
2019/05/07  14:00:00  BASE  17.7164  18   19.6039  17   2.3   100   2.3   32    0     966.4    NA       0.0000   -SN      BR    6000  0    
2019/05/07  14:01:00  BASE  17.5753  17   19.6039  17   2.3   100   2.3   32    0     966.5    NA       0.0000   -SN      BR    9000  0    
2019/05/07  14:02:00  BASE  16.5875  15   19.6039  17   2.3   100   2.3   32    0     966.5    NA       0.0000   -SN      BR    9000  0    
2019/05/07  14:03:00  BASE  15.9936  16   19.6039  17   2.3   100   2.3   34    0     966.5    NA       0.0000   -SN      BR    9999  0    
2019/05/07  14:04:00  BASE  16.1465  16   19.6039  17   2.3   100   2.3   35    0     966.4    NA       0.0000   -SN      BR    9999  0    
2019/05/07  14:05:00  BASE  16.7168  17   19.6039  17   2.3   100   2.3   35    0     966.4    NA       0.0000   -SN      BR    9999  0    
2019/05/07  14:06:00  BASE  17.1402  18   19.6039  17   2.3   100   2.3   35    0     966.2    NA       0.0000   -SN      BR    9999  0    
2019/05/07  14:07:00  BASE  17.2813  18   19.6039  17   2.3   100   2.3   35    0     966.2    NA       0.0000   -SN      BR    8000  0    
2019/05/07  14:08:00  BASE  17.9105  18   19.6039  17   2.3   100   2.3   37    0     966.1    NA       0.0000   -SN      BR    5000  360  
2019/05/07  14:09:00  BASE  18.1574  16   19.6039  17   2.3   100   2.3   40    0     966.1    NA       0.0000   -SN      BR    5000  330  
2019/05/07  14:10:00  BASE  18.0222  14   20.0567  12   2.3   100   2.3   41    0     966.2    NA       0.0000   -SN      BR    8000  0    
2019/05/07  14:11:00  BASE  18.128   15   20.0567  12   2.3   100   2.3   42    0     966.2    NA       0.0000   -SN      BR    9999  430  
2019/05/07  14:12:00  BASE  17.8458  16   20.0567  12   2.3   100   2.3   42    0     966.1    NA       0.2540   -SN      BR    9999  460  
2019/05/07  14:13:00  BASE  17.8928  15   20.0567  12   2.3   100   2.3   42    0     966.1    NA       0.0000   -SN      BR    9999  0    
2019/05/07  14:14:00  BASE  17.9869  13   20.0567  12   2.3   100   2.3   41    0     966.0    NA       0.0000   -SN      BR    9999  0    
2019/05/07  14:15:00  BASE  17.6694  13   20.0567  12   2.3   100   2.3   40    0     966.1    NA       0.0000   -SN      BR    9999  0    
2019/05/07  14:16:00  BASE  17.3989  13   20.0567  12   2.3   100   2.3   40    0     966.1    NA       0.0000   -SN      BR    9999  0    
2019/05/07  14:17:00  BASE  17.493   15   20.0567  12   2.3   100   2.3   38    0     966.1    NA       0.0000   -SN      BR    9999  0    
2019/05/07  14:18:00  BASE  17.052   15   20.0567  12   2.3   100   2.3   37    0     966.2    NA       0.0000   -SN      9999  0     0    
2019/05/07  14:19:00  BASE  16.9932  17   20.0567  12   2.3   100   2.3   36    0     966.2    NA       0.0000   -SN      9999  0     0    
2019/05/07  14:20:00  BASE  17.3284  18   19.845   19   2.3   100   2.3   36    0     966.2    NA       0.0000   -SN      9999  0     0    
2019/05/07  14:21:00  BASE  16.7815  18   19.2688  9    2.3   100   2.3   36    0     966.3    NA       0.0000   -SN      9999  0     0    
2019/05/07  14:22:00  BASE  16.8403  20   19.2688  9    2.3   100   2.3   35    0     966.3    NA       0.0000   -SN      9999  360   0    
2019/05/07  14:23:00  BASE  16.5463  20   19.2688  9    2.3   100   2.3   34    0     966.4    NA       0.0000   -SN      9999  0     0    
2019/05/07  14:24:00  BASE  15.241   19   19.21    12   2.3   100   2.3   35    0     966.6    NA       0.0000   -SN      9999  590   0    
2019/05/07  14:25:00  BASE  15.2468  19   19.21    12   2.3   100   2.3   37    0     966.5    NA       0.0000   -SN      9999  0     0    
2019/05/07  14:26:00  BASE  15.5644  19   18.6043  17   2.3   100   2.3   39    0     966.6    NA       0.0000   -SN      9999  720   0    
2019/05/07  14:27:00  BASE  14.7764  19   18.6043  17   2.3   100   2.3   39    0     966.6    NA       0.0000   -SN      9999  0     0    
2019/05/07  14:28:00  BASE  14.7764  20   18.6043  17   2.3   100   2.3   40    0     966.6    NA       0.0000   -SN      9999  0     0    
2019/05/07  14:29:00  BASE  14.9999  20   18.6043  17   2.3   100   2.3   41    0     966.7    NA       0.0000   -SN      9999  0     0    
2019/05/07  14:30:00  BASE  14.7412  20   18.2692  20   2.3   100   2.3   41    0     966.7    NA       0.0000   -SN      9999  0     0    
2019/05/07  14:31:00  BASE  14.4824  22   18.2692  20   2.4   100   2.4   42    0     966.8    NA       0.0000   -SN      9999  0     0    
2019/05/07  14:32:00  BASE  13.4476  22   17.5459  15   2.4   100   2.4   45    0     966.9    NA       0.0000   -SN      9999  0     0    
2019/05/07  14:33:00  BASE  12.9242  20   17.5459  15   2.4   100   2.4   45    0     966.9    NA       0.0000   -SN      9999  1120  0    
2019/05/07  14:34:00  BASE  12.5773  21   17.5459  15   2.5   100   2.5   47    0     967.0    NA       0.0000   -SN      9999  1250  0    
2019/05/07  14:35:00  BASE  12.348   20   17.0285  19   2.5   100   2.5   49    0     967.0    NA       0.0000   -SN      9999  0     0    
2019/05/07  14:36:00  BASE  12.8419  19   16.0642  24   2.5   100   2.5   51    0     967.1    NA       0.0000   -SN      9999  0     0    
2019/05/07  14:37:00  BASE  13.0301  20   16.0642  24   2.5   100   2.5   53    0     967.1    NA       0.0000   9999     0     0     0    
2019/05/07  14:38:00  BASE  12.2363  22   16.0348  16   2.5   100   2.5   58    0     967.1    NA       0.0000   9999     0     0     0    
2019/05/07  14:39:00  BASE  11.9658  23   16.0348  16   2.5   100   2.5   61    0     967.1    NA       0.0000   9999     0     0     0    
2019/05/07  14:40:00  BASE  12.7302  21   15.6408  18   2.5   100   2.5   66    0     967.1    NA       0.0000   9999     0     0     0    
2019/05/07  14:41:00  BASE  12.8654  21   14.4883  16   2.5   100   2.5   72    0     967.1    NA       0.0000   9999     9190  0     0    
2019/05/07  14:42:00  BASE  12.2245  23   14.4883  16   2.5   100   2.5   74    0     967.1    NA       0.0000   9999     0     0     0    
2019/05/07  14:43:00  BASE  11.9893  23   14.4883  16   2.6   100   2.6   87    0     967.1    NA       0.0000   9999     0     0     0    
2019/05/07  14:44:00  BASE  12.5597  23   14.4883  16   2.6   100   2.6   93    0     967.1    NA       0.0000   9999     1410  0     0    
2019/05/07  14:45:00  BASE  12.1422  25   14.4883  16   2.7   100   2.7   104   0     967.1    NA       0.0000   9999     1410  4890  0    
2019/05/07  14:46:00  BASE  10.8839  27   14.306   22   2.7   100   2.7   106   0     967.2    NA       0.0000   9999     1540  5050  0    
2019/05/07  14:47:00  BASE  11.272   29   14.306   22   2.7   100   2.7   99    0     967.1    NA       0.0000   9999     5220  0     0    
2019/05/07  14:48:00  BASE  11.5307  26   14.306   22   2.7   100   2.7   99    0     967.1    NA       0.0000   9999     5450  0     0    
2019/05/07  14:49:00  BASE  10.4194  26   14.306   22   2.7   100   2.7   112   0     967.2    NA       0.0000   9999     5250  0     0    
2019/05/07  14:50:00  BASE  10.6898  29   14.306   22   2.8   100   2.8   126   0     967.1    NA       0.0000   9999     4920  0     0    
2019/05/07  14:51:00  BASE  11.3425  28   14.306   22   2.8   100   2.8   128   0     967.1    NA       0.0000   9999     4820  0     0    
2019/05/07  14:52:00  BASE  10.6722  29   14.306   22   2.8   100   2.8   127   0     967.1    NA       0.0000   9999     4950  0     0    
2019/05/07  14:53:00  BASE  9.93132  32   13.8239  21   2.8   100   2.8   132   0     967.2    NA       0.0000   9999     5120  0     0    
2019/05/07  14:54:00  BASE  10.5428  32   13.7004  39   2.8   100   2.8   142   0     967.1    NA       0.0000   9999     4950  0     0    
2019/05/07  14:55:00  BASE  10.9603  30   13.7004  39   2.8   100   2.8   152   0     967.2    NA       0.0000   -SN      9999  0     0    
2019/05/07  14:56:00  BASE  9.79608  32   13.7004  39   2.9   100   2.9   161   0     967.3    NA       0.0000   -SN      9999  0     0    
2019/05/07  14:57:00  BASE  8.1732   36   13.4299  34   2.9   100   2.9   169   0     967.3    NA       0.0000   -SN      9999  0     0    
2019/05/07  14:58:00  BASE  7.79688  36   13.4299  34   2.9   100   2.9   183   0     967.3    NA       0.0000   -SN      9999  0     0    
2019/05/07  14:59:00  BASE  7.56756  36   13.4299  34   3.0   100   3.0   200   0     967.3    NA       0.0000   -SN      9999  0     0    
2019/05/07  15:00:00  BASE  6.39744  34   12.495   26   3.0   100   3.0   210   0     967.4    NA       0.0000   -SN      9999  5580  0    
2019/05/07  15:01:00  BASE  6.45624  38   12.2186  24   3.0   100   3.0   212   0     967.4    NA       0.0000   -SN      9999  5410  0    
2019/05/07  15:02:00  BASE  7.01484  40   12.2186  24   3.1   100   3.1   205   0     967.3    NA       0.0000   -SN      9999  1800  5350 
2019/05/07  15:03:00  BASE  6.51504  35   12.2186  24   3.1   100   3.1   192   0     967.4    NA       0.0000   -SN      9999  5380  0    
2019/05/07  15:04:00  BASE  6.65616  32   11.5836  25   3.1   100   3.1   186   0     967.3    NA       0.0000   9999     5510  0     0    
2019/05/07  15:05:00  BASE  6.78552  35   9.98424  38   3.1   100   3.1   185   0     967.3    NA       0.0000   9999     5680  0     0    
2019/05/07  15:06:00  BASE  6.29748  40   8.83176  36   3.2   100   3.2   186   0     967.3    NA       0.0000   9999     5810  0     0    
2019/05/07  15:07:00  BASE  6.29748  41   8.83176  36   3.2   100   3.2   197   0     967.3    NA       0.0000   9999     5410  0     0    
2019/05/07  15:08:00  BASE  6.55032  40   8.379    26   3.2   100   3.2   221   0     967.3    NA       0.0000   9999     0     0     0    
2019/05/07  15:09:00  BASE  6.51504  36   8.379    26   3.2   100   3.2   226   0     967.3    NA       0.0000   9999     0     0     0    
2019/05/07  15:10:00  BASE  5.75652  39   8.379    26   3.2   100   3.2   227   0     967.3    NA       0.0000   9999     5450  0     0    
2019/05/07  15:11:00  BASE  5.4684   43   8.379    26   3.2   100   3.2   226   0     967.3    NA       0.0000   9999     5450  0     0    
2019/05/07  15:12:00  BASE  5.92116  41   8.379    26   3.2   100   3.2   227   0     967.3    NA       0.0000   9999     5450  0     0    
2019/05/07  15:13:00  BASE  5.37432  50   8.19672  46   3.3   100   3.3   223   0     967.3    NA       0.0000   9999     5910  7610  0    
2019/05/07  15:14:00  BASE  4.78632  59   8.19672  46   3.3   100   3.3   217   0     967.3    NA       0.0000   9999     6100  0     0    
2019/05/07  15:15:00  BASE  5.28024  64   8.19672  46   3.3   100   3.3   213   0     967.3    NA       0.0000   9999     6460  0     0    
2019/05/07  15:16:00  BASE  5.69772  68   7.65576  35   3.4   100   3.4   213   0     967.3    NA       0.0000   9999     5450  7450  0    
2019/05/07  15:17:00  BASE  5.65068  65   7.50288  26   3.4   100   3.4   217   0     967.3    NA       0.0000   9999     7550  0     0    
2019/05/07  15:18:00  BASE  5.44488  61   7.50288  26   3.4   100   3.4   223   0     967.3    NA       0.0000   9999     6170  7510  0    
2019/05/07  15:19:00  BASE  5.2626   62   7.10892  41   3.4   100   3.4   228   0     967.3    NA       0.0000   9999     5680  0     0    
2019/05/07  15:20:00  BASE  5.32728  61   7.10892  41   3.4   100   3.4   220   0     967.3    NA       0.0000   9999     6040  0     0    
2019/05/07  15:21:00  BASE  5.9094   55   7.53228  52   3.4   100   3.4   206   0     967.3    NA       0.0000   9999     6270  0     0    
2019/05/07  15:22:00  BASE  5.92116  55   7.53228  52   3.5   100   3.5   203   0     967.3    NA       0.0000   9999     0     0     0    
2019/05/07  15:23:00  BASE  5.55072  71   7.53228  52   3.5   100   3.5   175   0     967.3    NA       0.0000   9999     0     0     0    
2019/05/07  15:24:00  BASE  5.47428  94   7.53228  52   3.3   100   3.3   154   0     967.3    NA       0.0000   9999     4660  0     0    
2019/05/07  15:25:00  BASE  5.30964  106  7.53228  52   3.1   100   3.1   182   0     967.2    NA       0.0000   9999     0     0     0    
2019/05/07  15:26:00  BASE  5.07444  110  7.53228  52   2.8   100   2.8   199   0     967.2    NA       0.0000   -SN      3700  1120  0    
2019/05/07  15:27:00  BASE  5.02152  113  7.53228  52   2.6   100   2.6   204   0     967.2    NA       0.0000   -SN      BR    2000  0    
2019/05/07  15:28:00  BASE  4.83336  114  7.53228  52   2.3   100   2.3   207   0     967.2    NA       0.0000   -SN      BR    1700  22340
2019/05/07  15:36:10  BASE  M        M    12.81    52   2.2   100   2.2   207   0     M        NA       0.0000   -SN      BR    M     22340
2019/05/07  15:36:31  BASE  M        M    12.81    52   2.2   100   2.2   M     M     M        NA       0.0000   -SN      BR    M     M    
2019/05/07  15:36:37  BASE  M        M    M        M    2.2   100   2.2   M     M     M        NA       0.0000   -SN      M     M     M    
2019/05/07  15:36:42  BASE  M        M    M        M    2.2   100   2.2   M     M     M        NA       0.0000   -SN      M     M     M    
2019/05/07  15:36:48  BASE  M        M    M        M    2.2   100   2.2   M     M     M        NA       0.0000   -SN      M     M     M    
2019/05/07  15:36:54  BASE  M        M    M        M    2.2   100   2.2   M     M     M        NA       0.0000   M        M     M     M    
2019/05/07  15:37:08  BASE  M        M    M        M    2.2   100   2.2   M     M     M        NA       0.0000   M        M     M     M    
2019/05/07  15:37:11  BASE  M        M    M        M    2.2   100   2.2   M     M     M        NA       0.0000   M        M     M     M    
2019/05/07  15:37:15  BASE  M        M    M        M    2.2   100   2.2   M     M     M        NA       0.0000   M        M     M     M    
2019/05/07  15:38:00  BASE  M        M    M        M    2.2   100   2.2   M     M     M        NA       0.0000   M        M     M     M    
2019/05/07  15:39:00  BASE  M        M    M        M    2.2   100   2.2   M     M     M        NA       0.0000   M        M     M     M    
2019/05/07  15:40:00  BASE  M        M    M        M    2.2   100   2.2   162   0     M        NA       0.0000   M        5280  0     0    
2019/05/07  15:41:00  BASE  M        M    M        M    2.2   100   2.2   177   0     967.0    NA       0.0000   4700     3380  5050  0    
2019/05/07  15:42:00  BASE  3.7926   115  0        M    2.2   100   2.2   193   0     967.0    NA       0.0000   4700     0     0     0    
2019/05/07  15:43:00  BASE  4.263    116  0        M    2.2   100   2.2   206   0     967.0    NA       0.0000   5000     1280  0     0    
2019/05/07  15:44:00  BASE  4.78044  117  0        M    1.8   100   1.8   215   0     966.9    NA       0.0000   4500     0     0     0    
2019/05/07  15:45:00  BASE  4.83336  121  0        M    1.7   100   1.7   223   0     966.9    NA       0.0000   -SN      3000  3900  0    
2019/05/07  15:46:00  BASE  4.7922   125  0        M    1.6   100   1.6   218   0     966.8    NA       0.0000   -SN      2400  5480  0    
2019/05/07  15:47:00  BASE  4.73928  125  0        M    1.6   100   1.6   197   0     966.8    NA       0.0000   -SN      2300  3870  0    
2019/05/07  15:48:00  BASE  4.18656  125  5.35668  122  1.5   100   1.5   181   0     966.9    NA       0.0000   -SN      BR    2300  3710 
2019/05/07  15:49:00  BASE  3.06936  124  5.35668  122  1.5   100   1.5   172   0     966.9    NA       0.0000   -SN      BR    2700  5180 
2019/05/07  15:50:00  BASE  2.21088  110  5.35668  122  1.5   100   1.5   163   0     966.9    NA       0.0000   -SN      BR    3800  5870 
2019/05/07  15:51:00  BASE  2.34612  107  5.35668  122  1.6   100   1.6   149   0     966.8    NA       0.0000   -SN      BR    4700  2790 
2019/05/07  15:52:00  BASE  2.45784  111  5.35668  122  1.6   100   1.6   137   0     966.8    NA       0.0000   -SN      BR    5000  3900 
2019/05/07  15:53:00  BASE  2.13444  107  5.35668  122  1.7   100   1.7   131   0     966.7    NA       0.0000   -SN      BR    7000  3900 
2019/05/07  15:54:00  BASE  1.764    86   5.3214   121  1.8   100   1.8   125   0     966.7    NA       0.0000   -SN      BR    9999  4230 
2019/05/07  15:55:00  BASE  1.4406   68   5.3214   121  2.0   100   2.0   119   0     966.7    NA       0.0000   BR       9999  3770  4400 
2019/05/07  15:56:00  BASE  1.48764  63   5.2626   124  2.1   100   2.1   113   0     966.7    NA       0.0000   BR       9999  3310  0    
2019/05/07  15:57:00  BASE  1.51704  42   4.53936  133  2.1   100   2.1   107   0     966.7    NA       0.0000   BR       9999  3670  0    
2019/05/07  15:58:00  BASE  1.05252  24   3.75144  102  2.3   100   2.3   103   0     966.7    NA       0.0000   BR       9999  2950  0    
2019/05/07  15:59:00  BASE  1.21128  17   3.75144  102  2.3   100   2.3   102   0     966.7    NA       0.0000   BR       9999  2920  0    
2019/05/07  16:00:00  BASE  1.46412  19   3.75144  102  2.3   100   2.3   98    0     966.7    NA       0.0000   BR       9999  2720  0    
2019/05/07  16:01:00  BASE  1.323    14   3.2046   79   2.3   100   2.3   92    0     966.6    NA       0.0000   9999     2820  0     0    
2019/05/07  16:02:00  BASE  1.81104  358  2.93412  2    2.2   100   2.2   90    0     966.5    NA       0.0000   9999     2620  0     0    
2019/05/07  16:03:00  BASE  2.7342   356  4.47468  14   2.2   100   2.2   92    0     966.5    NA       0.0000   9999     2620  0     0    
2019/05/07  16:04:00  BASE  3.7632   14   5.10972  20   2.3   100   2.3   92    0     966.5    NA       0.0000   9999     2990  20670 0    
2019/05/07  16:05:00  BASE  3.4986   37   5.10972  20   2.3   100   2.3   92    0     966.4    NA       0.0000   9999     3050  0     0    
2019/05/07  16:06:00  BASE  2.62836  40   5.10972  20   2.4   100   2.4   94    0     966.6    NA       0.0000   9999     0     0     0    
2019/05/07  16:07:00  BASE  2.59896  33   5.10972  20   2.5   100   2.5   96    0     966.5    NA       0.0000   9999     0     0     0    
2019/05/07  16:08:00  BASE  3.32808  33   5.99172  11   2.6   100   2.6   97    0     966.5    NA       0.0000   9999     0     0     0    
2019/05/07  16:09:00  BASE  4.5864   33   6.47388  30   2.7   100   2.7   95    0     966.4    NA       0.0000   9999     3150  3870  0    
2019/05/07  16:10:00  BASE  4.9098   33   6.47388  30   2.7   100   2.7   93    0     966.4    NA       0.0000   9999     2990  0     0    
2019/05/07  16:11:00  BASE  4.9686   29   6.47388  30   2.8   100   2.8   96    0     966.2    NA       0.0000   9999     2560  3180  0    
2019/05/07  16:12:00  BASE  5.13912  27   6.47388  30   2.8   100   2.8   99    0     966.3    NA       0.0000   9999     2230  0     0    
2019/05/07  16:13:00  BASE  4.69812  33   6.47388  30   2.9   100   2.9   101   0     966.2    NA       0.0000   9999     3810  6000  0    
2019/05/07  16:14:00  BASE  5.4978   33   7.4088   34   2.9   100   2.9   102   0     965.9    NA       0.0000   9999     5940  0     0    
2019/05/07  16:15:00  BASE  7.00308  25   9.3786   23   2.9   100   2.9   101   0     966.0    NA       0.0000   9999     4630  5680  0    
2019/05/07  16:16:00  BASE  8.19672  23   10.2547  29   3.0   100   3.0   97    0     965.9    NA       0.0000   9999     4130  5540  0    
2019/05/07  16:17:00  BASE  8.68476  25   10.2547  29   3.0   100   3.0   103   0     965.7    NA       0.0000   9999     3940  0     0    
2019/05/07  16:18:00  BASE  8.17908  25   10.2547  29   3.0   100   3.0   109   0     966.0    NA       0.0000   9999     0     0     0    
2019/05/07  16:19:00  BASE  7.94388  25   10.2547  29   3.0   100   3.0   105   0     965.9    NA       0.0000   9999     4430  0     0    
2019/05/07  16:20:00  BASE  7.66752  26   10.2547  29   2.9   100   2.9   107   0     965.9    NA       0.0000   UP       9999  4400  0    
2019/05/07  16:21:00  BASE  7.63812  25   10.2547  29   2.9   100   2.9   109   0     965.8    NA       0.0000   UP       9999  4100  0    
2019/05/07  16:22:00  BASE  7.88508  24   10.2547  29   2.9   100   2.9   106   0     965.7    NA       0.0000   UP       9999  4130  0    
2019/05/07  16:23:00  BASE  8.71416  23   10.8604  22   3.0   100   3.0   100   0     965.5    NA       0.0000   UP       9999  3970  0    
2019/05/07  16:24:00  BASE  9.93132  25   11.9188  24   3.0   100   3.0   98    0     965.7    NA       0.0000   UP       9999  0     0    
2019/05/07  16:25:00  BASE  9.555    28   11.9188  24   3.0   100   3.0   97    0     965.6    NA       0.0000   UP       9999  4560  0    
2019/05/07  16:26:00  BASE  8.63772  30   11.9188  24   3.0   100   3.0   94    0     965.5    NA       0.0000   UP       9999  0     0    
2019/05/07  16:27:00  BASE  8.36724  30   11.9188  24   3.0   100   3.0   94    0     965.4    NA       0.0000   UP       9999  0     0    
2019/05/07  16:28:00  BASE  8.4378   32   11.9188  24   3.0   100   3.0   96    0     965.6    NA       0.0000   UP       9999  0     0    
2019/05/07  16:29:00  BASE  8.01444  33   11.9188  24   3.0   100   3.0   96    0     965.5    NA       0.0000   UP       9999  1510  0    
2019/05/07  16:30:00  BASE  7.0266   30   11.9188  24   3.0   100   3.0   93    0     965.5    NA       0.0000   UP       9999  0     0    
2019/05/07  16:31:00  BASE  7.3206   26   11.9188  24   3.0   100   3.0   85    0     965.5    NA       0.0000   UP       9999  3710  0    
2019/05/07  16:32:00  BASE  8.50248  26   11.9188  24   3.0   100   3.0   74    0     965.5    NA       0.0000   UP       9999  5710  0    
2019/05/07  16:33:00  BASE  8.10264  28   11.9188  24   3.0   100   3.0   64    0     965.5    NA       0.0000   UP       9999  7940  0    
2019/05/07  16:34:00  BASE  7.53228  28   10.1959  27   3.0   100   3.0   55    0     965.4    NA       0.0000   UP       9999  8140  0    
2019/05/07  16:35:00  BASE  7.4382   26   10.1959  27   3.0   100   3.0   50    0     965.4    NA       0.0000   UP       9999  8240  0    
2019/05/07  16:36:00  BASE  7.12068  25   10.1959  27   3.0   100   3.0   46    0     965.4    NA       0.0000   9999     8370  0     0    
2019/05/07  16:37:01  BASE  6.62676  25   10.1959  27   3.0   100   3.0   43    0     965.3    NA       0.0000   9999     8460  0     0    
2019/05/07  16:38:01  BASE  6.2328   26   10.1959  27   3.0   100   3.0   42    0     965.4    NA       0.0000   9999     8690  0     0    
2019/05/07  16:39:01  BASE  5.45076  34   10.1959  27   3.0   100   3.0   42    0     965.4    NA       0.0000   9999     8960  0     0    
2019/05/07  16:40:01  BASE  5.01564  37   10.1959  27   3.0   100   3.0   43    0     965.3    NA       0.0000   9999     9060  0     0    
2019/05/07  16:41:01  BASE  5.19792  31   10.1959  27   3.0   100   3.0   45    0     965.3    NA       0.0000   9999     7970  9150  0    
2019/05/07  16:42:01  BASE  5.7918   32   8.71416  30   3.0   100   3.0   47    0     965.3    NA       0.0000   9999     7970  8730  0    
2019/05/07  16:43:01  BASE  6.26808  43   8.64948  24   3.0   100   3.0   51    0     965.1    NA       0.0000   9999     8010  8890  0    
2019/05/07  16:44:01  BASE  5.09796  51   8.22612  31   3.0   100   3.0   54    0     965.3    NA       0.0000   9999     7940  8790  0    
2019/05/07  16:45:01  BASE  5.65068  51   8.2908   38   3.0   100   3.0   58    0     965.3    NA       0.0000   9999     7840  8790  0    
2019/05/07  16:46:01  BASE  6.37392  51   8.2908   38   3.1   100   3.1   61    0     965.0    NA       0.0000   9999     7640  9020  0    
2019/05/07  16:47:01  BASE  4.97448  52   8.2908   38   3.1   100   3.1   63    0     964.8    NA       0.0000   9999     7740  0     0    
2019/05/07  16:48:01  BASE  4.45116  62   8.2908   38   3.1   100   3.1   64    0     965.2    NA       0.0000   9999     7680  0     0    
2019/05/07  16:49:01  BASE  5.51544  83   8.2908   38   3.1   100   3.1   65    0     965.3    NA       0.0000   9999     7870  0     0    
2019/05/07  16:50:01  BASE  5.56836  105  8.2908   38   3.0   100   3.0   66    0     965.1    NA       0.0000   9999     7840  0     0    
2019/05/07  16:51:01  BASE  4.10424  117  8.2908   38   2.9   100   2.9   69    0     965.1    NA       0.0000   9999     7910  0     0    
2019/05/07  16:52:01  BASE  2.88708  116  8.2908   38   2.7   100   2.7   71    0     965.3    NA       0.0000   9999     8040  0     0    
2019/05/07  16:53:01  BASE  2.81064  117  8.2908   38   2.5   100   2.5   74    0     965.3    NA       0.0000   9999     8100  0     0    
2019/05/07  16:54:01  BASE  3.92784  123  8.2908   38   2.4   100   2.4   76    0     965.3    NA       0.0000   9999     8140  0     0    
2019/05/07  16:55:01  BASE  4.93332  156  7.98504  79   2.3   100   2.3   77    0     965.1    NA       0.0000   9999     8170  0     0    
2019/05/07  16:56:01  BASE  5.00976  198  7.98504  79   2.4   100   2.4   78    0     965.0    NA       0.0000   9999     8040  0     0    
2019/05/07  16:57:01  BASE  3.47508  198  7.98504  79   2.5   100   2.5   77    0     965.1    NA       0.0000   9999     7870  0     0    
2019/05/07  16:58:01  BASE  3.24576  157  8.59068  145  2.6   100   2.6   76    0     965.0    NA       0.0000   9999     7870  0     0    
2019/05/07  16:59:00  BASE  3.80436  138  8.59068  145  2.6   100   2.6   76    0     965.1    NA       0.0000   9999     7870  21590 0    
2019/05/07  17:00:00  BASE  3.04584  127  8.59068  145  2.7   100   2.7   76    0     965.0    NA       0.0000   9999     7840  0     0    
2019/05/07  17:01:00  BASE  3.3516   134  8.59068  145  2.7   100   2.7   78    0     965.1    NA       0.0000   9999     7780  0     0    
2019/05/07  17:02:01  BASE  3.79848  162  8.59068  145  2.8   100   2.8   81    0     965.0    NA       0.0000   9999     7090  7780  0    
2019/05/07  17:03:00  BASE  3.69264  157  8.59068  145  2.8   100   2.8   89    0     965.0    NA       0.0000   9999     7020  7870  0    
2019/05/07  17:04:01  BASE  2.90472  156  8.59068  145  2.7   100   2.7   93    0     965.1    NA       0.0000   9999     7020  0     0    
2019/05/07  17:05:01  BASE  2.18148  184  8.59068  145  2.7   100   2.7   95    0     965.0    NA       0.0000   9999     7150  0     0    
2019/05/07  17:06:01  BASE  2.4402   152  8.59068  145  2.7   100   2.7   99    0     965.1    NA       0.0000   9999     7280  0     0    
2019/05/07  17:07:01  BASE  2.352    133  8.59068  145  2.7   100   2.7   99    0     965.1    NA       0.0000   9999     7320  0     0    
2019/05/07  17:08:01  BASE  2.06388  210  5.74476  149  2.7   100   2.7   98    0     965.1    NA       0.0000   9999     7250  0     0    
2019/05/07  17:09:01  BASE  2.21088  232  4.65696  115  2.8   100   2.8   99    0     965.0    NA       0.0000   9999     7220  0     0    
2019/05/07  17:10:01  BASE  2.08152  217  4.65696  115  2.8   100   2.8   103   0     964.8    NA       0.0000   9999     6820  0     0    
2019/05/07  17:11:01  BASE  1.0584   260  4.65696  115  2.9   100   2.9   104   0     964.8    NA       0.0000   9999     6690  0     0    
2019/05/07  17:12:01  BASE  2.01096  321  5.92704  351  2.9   100   2.9   102   0     964.8    NA       0.0000   9999     6560  0     0    
2019/05/07  17:13:01  BASE  3.33396  317  5.92704  351  3.0   100   3.0   104   0     965.0    NA       0.0000   9999     6530  0     0    
2019/05/07  17:14:01  BASE  2.34024  75   5.92704  351  3.1   100   3.1   108   0     965.0    NA       0.0000   9999     6300  0     0    
2019/05/07  17:15:01  BASE  1.64052  119  5.92704  351  3.1   100   3.1   112   0     964.7    NA       0.0000   9999     6370  0     0    
2019/05/07  17:16:01  BASE  2.22264  130  5.92704  351  3.2   100   3.2   116   0     965.0    NA       0.0000   9999     6430  0     0    
2019/05/07  17:17:01  BASE  2.78124  133  5.92704  351  3.2   100   3.2   120   0     965.0    NA       0.0000   9999     6590  0     0    
2019/05/07  17:18:01  BASE  2.53428  146  5.92704  351  3.2   100   3.2   125   0     965.0    NA       0.0000   9999     6660  0     0    
2019/05/07  17:19:01  BASE  1.71108  35   5.92704  351  3.2   100   3.2   131   0     965.1    NA       0.0000   9999     6590  0     0    
2019/05/07  17:20:01  BASE  2.56956  46   7.65576  68   3.2   100   3.2   137   0     965.0    NA       0.0000   9999     6500  0     0    
2019/05/07  17:21:01  BASE  4.6158   63   8.07912  59   3.2   100   3.2   142   0     965.0    NA       0.0000   9999     6630  0     0    
2019/05/07  17:22:01  BASE  4.12776  66   8.07912  59   3.2   99    3.1   141   0     965.1    NA       0.0000   9999     6590  0     0    
2019/05/07  17:23:01  BASE  3.24576  120  8.07912  59   3.2   99    3.1   138   0     964.7    NA       0.0000   9999     6690  0     0    
2019/05/07  17:24:01  BASE  2.54604  137  8.07912  59   3.2   98    3.0   137   0     965.2    NA       0.0000   9999     6860  0     0    
2019/05/07  17:25:01  BASE  1.65816  161  8.07912  59   3.2   98    3.0   137   0     965.2    NA       0.0000   9999     7020  0     0    
2019/05/07  17:26:01  BASE  1.7052   226  8.07912  59   3.2   98    2.9   132   0     965.1    NA       0.0000   9999     6990  0     0    
2019/05/07  17:27:01  BASE  1.99332  328  8.07912  59   3.2   98    2.9   132   0     965.1    NA       0.0000   9999     7220  0     0    
2019/05/07  17:28:01  BASE  3.10464  37   8.07912  59   3.3   97    2.9   129   0     965.1    NA       0.0000   9999     6890  7320  0    
2019/05/07  17:29:01  BASE  3.86904  59   8.07912  59   3.3   97    2.9   126   0     964.2    NA       0.0000   9999     6860  7610  0    
2019/05/07  17:30:01  BASE  3.09288  69   8.07912  59   3.3   96    2.8   123   0     964.5    NA       0.0000   9999     6920  0     0    
2019/05/07  17:31:01  BASE  2.28732  106  5.59776  26   3.4   96    2.8   118   0     965.0    NA       0.0000   9999     6920  0     0    
2019/05/07  17:32:01  BASE  2.84592  134  5.59776  26   3.4   95    2.7   112   0     964.9    NA       0.0000   9999     6920  0     0    
2019/05/07  17:33:01  BASE  2.7048   112  5.59776  26   3.4   95    2.6   104   0     965.2    NA       0.0000   9999     6960  0     0    
2019/05/07  17:34:01  BASE  1.323    103  5.59776  26   3.4   94    2.6   96    0     965.2    NA       0.0000   9999     6960  0     0    
2019/05/07  17:35:01  BASE  1.05252  196  5.59776  26   3.4   94    2.6   89    0     965.2    NA       0.0000   9999     7020  0     0    
2019/05/07  17:36:01  BASE  1.59348  188  5.59776  26   3.4   94    2.5   85    0     965.2    NA       0.0000   9999     7090  0     0    
2019/05/07  17:37:01  BASE  1.21128  171  5.59776  26   3.4   94    2.5   84    0     965.3    NA       0.0000   9999     4270  6990  0    
2019/05/07  17:38:01  BASE  1.13484  88   5.2332   91   3.4   94    2.5   85    0     965.3    NA       0.0000   9999     4330  7020  0    
2019/05/07  17:39:01  BASE  1.1172   63   4.50996  98   3.4   94    2.5   88    0     965.1    NA       0.0000   9999     5450  7120  0    
2019/05/07  17:40:01  BASE  0.6468   192  4.50996  98   3.4   93    2.4   96    0     965.2    NA       0.0000   9999     5380  0     0    
2019/05/07  17:41:01  BASE  1.176    58   4.50996  98   3.4   93    2.4   95    0     965.2    NA       0.0000   9999     4200  5380  0    
2019/05/07  17:42:01  BASE  2.47548  66   4.08072  68   3.4   93    2.4   87    0     965.2    NA       0.0000   9999     4200  0     0    
2019/05/07  17:43:01  BASE  4.0572   80   5.05092  102  3.4   93    2.4   81    0     965.2    NA       0.0000   9999     4200  0     0    
2019/05/07  17:44:01  BASE  4.31004  89   5.05092  102  3.4   93    2.4   79    0     965.2    NA       0.0000   9999     4270  0     0    
2019/05/07  17:45:01  BASE  3.53388  85   5.05092  102  3.4   93    2.4   83    0     965.2    NA       0.0000   9999     4360  0     0    
2019/05/07  17:46:01  BASE  2.99292  83   5.05092  102  3.4   93    2.4   93    0     965.2    NA       0.0000   9999     4330  0     0    
2019/05/07  17:47:01  BASE  2.84004  80   5.05092  102  3.4   93    2.4   101   0     965.2    NA       0.0000   9999     4200  0     0    
2019/05/07  17:48:01  BASE  2.33436  91   5.05092  102  3.5   93    2.4   102   0     965.1    NA       0.0000   9999     4130  0     0    
2019/05/07  19:04:58  BASE  M        M    M        M    M     M     M     M     M     M        NA       0.0000   M        M     M     M    
2019/05/07  19:05:02  BASE  M        M    M        M    M     M     M     23    0     M        NA       0.0000   M        7480  0     0    
2019/05/07  19:06:00  BASE  M        M    M        M    M     M     M     24    0     965.1    NA       0.0000   9999     6530  7450  0    
2019/05/07  19:07:01  BASE  8.60244  25   0        M    M     M     M     26    0     964.4    NA       0.0000   9999     6630  7480  0    
2019/05/07  19:08:00  BASE  7.48524  28   0        M    M     M     M     29    0     965.2    NA       0.0000   9999     6630  7480  0    
2019/05/07  19:09:01  BASE  7.42056  28   0        M    3.3   87    1.4   33    0     965.0    NA       0.0000   9999     6530  7480  0    
2019/05/07  19:10:00  BASE  8.0556   25   0        M    3.3   87    1.4   37    0     964.5    NA       0.0000   9999     7580  0     0    
2019/05/07  19:11:00  BASE  7.88508  26   0        M    3.3   87    1.3   41    0     963.7    NA       0.0000   9999     7580  0     0    
2019/05/07  19:12:00  BASE  7.87332  27   0        M    3.3   87    1.3   44    0     964.6    NA       0.0000   9999     7580  0     0    
2019/05/07  19:13:00  BASE  8.39664  26   10.2841  25   3.2   87    1.3   47    0     965.0    NA       0.0000   9999     7740  0     0    
2019/05/07  19:14:01  BASE  8.30256  27   10.2841  25   3.2   87    1.3   49    0     965.1    NA       0.0000   9999     7710  0     0    
2019/05/07  19:15:00  BASE  8.09676  27   10.2841  25   3.2   87    1.3   49    0     965.1    NA       0.0000   9999     7740  0     0    
2019/05/07  19:16:00  BASE  8.56716  26   10.043   24   3.2   87    1.3   48    0     965.0    NA       0.0000   9999     7740  0     0    
2019/05/07  19:17:00  BASE  9.04344  25   10.043   24   3.2   87    1.3   46    0     965.0    NA       0.0000   9999     7740  0     0    
2019/05/07  19:18:00  BASE  8.75532  26   10.043   24   3.2   88    1.3   43    0     964.5    NA       0.0000   9999     7740  0     0    
2019/05/07  19:19:00  BASE  8.42016  26   10.043   24   3.2   88    1.3   39    0     965.0    NA       0.0000   9999     7810  0     0    
2019/05/07  19:20:00  BASE  8.36136  27   10.043   24   3.1   88    1.4   34    0     964.7    NA       0.0000   9999     7840  0     0    
2019/05/07  19:21:00  BASE  8.66124  26   10.043   24   3.1   88    1.3   30    0     965.1    NA       0.0000   9999     7870  0     0    
2019/05/07  19:22:00  BASE  8.38488  24   10.043   24   3.1   88    1.3   26    0     964.3    NA       0.0000   9999     7940  0     0    
2019/05/07  19:23:00  BASE  7.7028   26   10.043   24   3.1   88    1.3   23    0     964.2    NA       0.0000   9999     8010  0     0    
2019/05/07  19:24:01  BASE  7.35588  27   10.043   24   3.0   88    1.3   20    0     965.2    NA       0.0000   9999     8300  0     0    
2019/05/07  19:25:00  BASE  7.02072  27   10.043   24   3.0   88    1.3   18    0     964.9    NA       0.0000   9999     6790  0     0    
2019/05/07  19:26:00  BASE  7.20888  25   9.4668   25   3.0   89    1.3   16    0     965.1    NA       0.0000   9999     6400  0     0    
2019/05/07  19:27:00  BASE  6.66792  23   9.4668   25   2.9   89    1.3   15    0     964.8    NA       0.0000   9999     2590  5740  0    
2019/05/07  19:28:00  BASE  6.174    26   9.4668   25   2.9   90    1.4   13    0     964.7    NA       0.0000   9999     2530  5640  0    
2019/05/07  19:29:00  BASE  6.68556  30   9.4668   25   2.9   90    1.4   12    0     965.3    NA       0.0000   9999     2400  5540  0    
2019/05/07  19:30:00  BASE  6.2034   28   9.4668   25   2.9   90    1.5   10    0     965.4    NA       0.0000   9999     2490  5120  0    
2019/05/07  19:31:00  BASE  5.95644  26   8.71416  28   2.9   91    1.5   9     0     965.3    NA       0.0000   9999     1870  2460  0    
2019/05/07  19:32:00  BASE  6.66792  27   8.71416  28   2.9   91    1.6   8     0     965.2    NA       0.0000   9999     1840  0     0    
2019/05/07  19:33:00  BASE  6.9384   28   8.3202   35   2.9   91    1.6   8     0     965.2    NA       0.0000   9999     1840  0     0    
2019/05/07  19:34:00  BASE  6.56796  29   8.3202   35   2.9   91    1.6   7     0     964.9    NA       0.0000   9999     1800  0     0    
2019/05/07  19:35:00  BASE  6.30924  30   8.3202   35   2.9   91    1.6   6     0     964.1    NA       0.0000   9999     2100  0     0    
2019/05/07  19:36:00  BASE  6.03876  30   8.3202   35   2.9   91    1.6   6     0     965.4    NA       0.0000   9999     1900  0     0    
2019/05/07  19:37:00  BASE  5.99172  28   8.3202   35   2.9   91    1.6   6     0     965.4    NA       0.0000   9999     2000  0     0    
2019/05/07  19:38:00  BASE  6.24456  27   8.3202   35   2.9   91    1.6   5     0     965.4    NA       0.0000   9999     1900  0     0    
2019/05/07  19:39:00  BASE  5.9094   27   7.74396  30   2.9   91    1.6   5     0     965.5    NA       0.0000   9999     2000  0     0    
2019/05/07  19:40:00  BASE  6.15048  27   7.74396  30   2.9   92    1.6   4     0     965.5    NA       0.0000   9999     1840  0     0    
2019/05/07  19:41:00  BASE  6.3504   27   7.74396  30   2.8   92    1.7   4     0     965.5    NA       0.0000   9999     1770  0     0    
2019/05/07  19:42:00  BASE  5.85648  30   7.4088   37   2.8   92    1.7   3     0     965.6    NA       0.0000   9999     1800  0     0    
2019/05/07  19:43:00  BASE  5.68008  31   7.4088   37   2.8   92    1.7   3     0     965.6    NA       0.0000   9999     1770  0     0    
2019/05/07  19:44:00  BASE  5.44488  31   7.4088   37   2.8   92    1.7   3     0     965.6    NA       0.0000   9999     1840  0     0    
2019/05/07  19:45:00  BASE  5.2626   31   7.4088   37   2.8   92    1.7   3     0     965.6    NA       0.0000   9999     1840  0     0    
2019/05/07  19:46:00  BASE  4.99212  28   7.4088   37   2.8   92    1.6   3     0     965.6    NA       0.0000   9999     1900  0     0    
2019/05/07  19:47:00  BASE  4.8216   32   7.4088   37   2.8   92    1.6   3     0     965.6    NA       0.0000   9999     1840  0     0    
2019/05/07  19:48:00  BASE  5.1156   34   7.4088   37   2.8   92    1.6   3     0     965.6    NA       0.0000   9999     1800  0     0    
2019/05/07  19:49:00  BASE  5.54484  31   7.4088   37   2.7   93    1.7   3     0     965.6    NA       0.0000   9999     1870  0     0    
2019/05/07  19:50:00  BASE  5.76828  31   7.4088   37   2.7   93    1.7   2     0     965.6    NA       0.0000   9999     1840  0     0    
2019/05/07  19:51:00  BASE  5.76828  32   7.10892  25   2.7   93    1.7   2     0     965.6    NA       0.0000   9999     1840  0     0    
2019/05/07  19:52:00  BASE  5.78004  35   7.10892  25   2.8   93    1.7   2     0     965.6    NA       0.0000   9999     1900  0     0    
2019/05/07  19:53:00  BASE  5.48016  36   7.10892  25   2.8   93    1.8   2     0     965.7    NA       0.0000   9999     2000  0     0    
2019/05/07  19:54:00  BASE  5.70948  33   7.10892  25   2.8   93    1.7   2     0     965.7    NA       0.0000   9999     1970  0     0    
2019/05/07  19:55:00  BASE  6.0564   30   7.10892  25   2.7   93    1.7   2     0     965.7    NA       0.0000   9999     1940  0     0    
2019/05/07  19:56:00  BASE  6.07992  27   7.10892  25   2.7   92    1.6   2     0     965.7    NA       0.0000   9999     1970  0     0    
2019/05/07  19:57:00  BASE  5.8212   31   7.10892  25   2.7   92    1.6   2     0     965.6    NA       0.0000   9999     2100  0     0    
2019/05/07  19:58:00  BASE  5.42136  33   7.10892  25   2.7   92    1.6   2     0     965.8    NA       0.0000   9999     2030  0     0    
2019/05/07  19:59:00  BASE  5.3508   35   7.07952  31   2.7   92    1.6   1     0     965.6    NA       0.0000   9999     1900  0     0    
2019/05/07  20:00:00  BASE  5.7918   35   7.53228  24   2.7   92    1.6   1     0     965.8    NA       0.0000   9999     2030  0     0    
2019/05/07  20:01:00  BASE  6.04464  30   7.53228  24   2.7   92    1.6   1     0     965.8    NA       0.0000   9999     2070  0     0    
2019/05/07  20:02:00  BASE  5.7036   33   7.53228  24   2.7   92    1.6   1     0     965.8    NA       0.0000   9999     2030  0     0    
2019/05/07  20:03:00  BASE  6.12108  40   7.53228  24   2.7   92    1.5   1     0     965.8    NA       0.0000   9999     2130  0     0    
2019/05/07  20:04:00  BASE  6.78552  35   7.56168  21   2.7   92    1.5   1     0     965.8    NA       0.0000   9999     2130  0     0    
2019/05/07  20:05:00  BASE  7.15008  31   7.92624  41   2.7   92    1.5   1     0     965.8    NA       0.0000   9999     2170  0     0    
2019/05/07  20:06:00  BASE  7.09128  31   7.92624  41   2.7   92    1.5   1     0     965.8    NA       0.0000   9999     2260  0     0    
2019/05/07  20:07:00  BASE  6.39156  29   7.92624  41   2.7   92    1.5   1     0     965.9    NA       0.0000   9999     2360  0     0    
2019/05/07  20:08:00  BASE  6.02112  28   7.92624  41   2.7   92    1.5   0     0     965.9    NA       0.0000   9999     2330  0     0    
2019/05/07  20:09:00  BASE  6.07992  30   7.92624  41   2.7   92    1.5   0     0     965.9    NA       0.0000   9999     2360  0     0    
2019/05/07  20:10:00  BASE  6.36216  33   7.92624  41   2.7   92    1.5   0     0     966.0    NA       0.0000   9999     2560  0     0    
2019/05/07  20:11:00  BASE  6.33276  34   7.92624  41   2.7   92    1.5   0     0     966.0    NA       0.0000   9999     2530  0     0    
2019/05/07  20:12:00  BASE  5.97996  33   7.92624  41   2.7   92    1.5   0     0     966.1    NA       0.0000   9999     2530  0     0    
2019/05/07  20:13:00  BASE  6.53856  31   8.04384  32   2.7   92    1.5   0     0     966.1    NA       0.0000   9999     2400  0     0    
2019/05/07  20:14:00  BASE  6.83844  28   8.04384  32   2.6   92    1.5   0     0     966.1    NA       0.0000   9999     2360  0     0    
2019/05/07  20:15:00  BASE  6.01524  27   8.04384  32   2.6   92    1.5   0     0     966.2    NA       0.0000   9999     2360  0     0    
2019/05/07  20:16:00  BASE  5.89176  35   8.04384  32   2.7   92    1.5   0     0     966.2    NA       0.0000   9999     2460  0     0    
2019/05/07  20:17:00  BASE  6.8796   40   8.2908   40   2.7   92    1.5   0     0     966.2    NA       0.0000   9999     2490  0     0    
2019/05/07  20:18:00  BASE  6.9972   36   8.2908   40   2.7   92    1.5   0     0     966.2    NA       0.0000   9999     2590  0     0    
2019/05/07  20:19:00  BASE  5.6154   30   8.2908   40   2.7   91    1.4   0     0     966.3    NA       0.0000   9999     2560  0     0    
2019/05/07  20:20:00  BASE  4.68636  28   8.2908   40   2.7   91    1.4   0     0     966.4    NA       0.0000   9999     2590  0     0    
2019/05/07  20:21:00  BASE  4.21596  31   8.2908   40   2.7   91    1.3   0     0     966.5    NA       0.0000   9999     2690  0     0    
2019/05/07  20:22:00  BASE  3.39864  35   8.2908   40   2.6   91    1.3   0     0     966.5    NA       0.0000   9999     2760  0     0    
2019/05/07  20:23:00  BASE  2.78124  40   8.2908   40   2.6   91    1.3   0     0     966.6    NA       0.0000   9999     2590  0     0    
2019/05/07  20:24:00  BASE  2.89884  29   8.2908   40   2.6   91    1.3   0     0     966.6    NA       0.0000   9999     2620  0     0    
2019/05/07  20:25:00  BASE  3.83376  18   8.2908   40   2.6   92    1.3   0     0     966.6    NA       0.0000   9999     2660  0     0    
2019/05/07  20:26:00  BASE  4.69224  43   8.2908   40   2.6   92    1.4   0     0     966.6    NA       0.0000   9999     2620  0     0    
2019/05/07  20:27:00  BASE  5.15676  30   8.25552  36   2.6   92    1.4   0     0     966.5    NA       0.0000   9999     2620  0     0    
2019/05/07  20:28:00  BASE  3.93372  328  6.62676  53   2.6   92    1.4   0     0     966.7    NA       0.0000   9999     2590  0     0    
2019/05/07  20:29:00  BASE  2.38728  306  6.62676  53   2.5   92    1.4   0     0     966.7    NA       0.0000   9999     2690  0     0    
2019/05/07  20:30:00  BASE  2.24616  310  6.62676  53   2.5   92    1.4   0     0     966.7    NA       0.0000   9999     2460  0     0    
2019/05/07  20:31:00  BASE  3.59856  343  6.62676  53   2.4   93    1.4   0     0     966.7    NA       0.0000   9999     2490  0     0    
2019/05/07  20:32:00  BASE  4.10424  352  6.62676  53   2.4   94    1.4   0     0     966.5    NA       0.0000   9999     2360  0     0    
2019/05/07  20:33:00  BASE  3.40452  346  6.62676  53   2.4   94    1.5   0     0     966.0    NA       0.0000   9999     2720  0     0    
2019/05/07  20:34:00  BASE  2.98704  357  6.62676  53   2.4   94    1.6   0     0     966.8    NA       0.0000   9999     2620  0     0    
2019/05/07  20:35:00  BASE  2.058    337  6.62676  53   2.4   94    1.6   0     0     966.8    NA       0.0000   9999     2760  0     0    
2019/05/07  20:36:01  BASE  1.69344  307  6.02112  10   2.5   94    1.6   0     0     966.8    NA       0.0000   9999     2620  0     0    
2019/05/07  20:37:00  BASE  2.18736  295  6.02112  10   2.4   94    1.5   0     0     966.8    NA       0.0000   9999     2530  0     0    
2019/05/07  20:38:01  BASE  2.7342   297  6.02112  10   2.4   94    1.5   0     0     966.8    NA       0.0000   9999     2790  0     0    
2019/05/07  20:39:00  BASE  3.22224  293  6.02112  10   2.3   94    1.4   0     0     966.7    NA       0.0000   9999     2790  0     0    
2019/05/07  20:40:01  BASE  3.69264  291  6.02112  10   2.3   94    1.5   0     0     966.3    NA       0.0000   9999     2820  0     0    
2019/05/07  20:41:00  BASE  3.56916  306  4.80984  297  2.2   95    1.5   0     0     966.9    NA       0.0000   9999     2660  0     0    
2019/05/07  20:42:00  BASE  3.02232  314  4.80984  297  2.2   95    1.6   0     0     967.0    NA       0.0000   9999     2530  0     0    
2019/05/07  20:43:00  BASE  2.52252  320  4.80984  297  2.3   96    1.7   0     0     967.0    NA       0.0000   9999     2490  0     0    
2019/05/07  20:44:01  BASE  2.2638   333  4.80984  297  2.3   96    1.7   0     0     967.1    NA       0.0000   9999     2170  0     0    
2019/05/07  20:45:00  BASE  2.15208  337  4.80984  297  2.3   96    1.7   0     0     967.1    NA       0.0000   9999     2130  0     0    
2019/05/07  20:46:01  BASE  2.53428  340  4.80984  297  2.3   96    1.7   0     0     966.8    NA       0.0000   9999     2400  0     0    
2019/05/07  20:47:01  BASE  3.6162   336  5.35668  343  2.3   96    1.7   0     0     967.1    NA       0.0000   9999     2360  0     0    
2019/05/07  20:48:01  BASE  3.81024  336  5.35668  342  2.3   96    1.7   0     0     967.1    NA       0.0000   9999     2430  0     0    
2019/05/07  20:49:01  BASE  2.84592  351  5.35668  342  2.3   96    1.7   0     0     967.2    NA       0.0000   9999     2460  0     0    
2019/05/07  20:50:01  BASE  2.16384  8    5.35668  342  2.4   95    1.7   0     0     967.3    NA       0.0000   9999     2230  0     0    
2019/05/07  20:51:01  BASE  1.78752  3    5.35668  342  2.4   95    1.7   0     0     967.3    NA       0.0000   9999     2300  0     0    
2019/05/07  20:52:01  BASE  1.64052  356  5.35668  342  2.5   94    1.6   0     0     967.3    NA       0.0000   9999     2100  0     0    
2019/05/07  20:53:01  BASE  1.96392  26   5.35668  342  2.4   94    1.5   0     0     967.3    NA       0.0000   9999     2590  0     0    
2019/05/07  20:54:01  BASE  2.32848  30   5.35668  342  2.4   94    1.5   0     0     967.3    NA       0.0000   9999     2790  0     0    
2019/05/07  20:55:01  BASE  2.47548  13   5.35668  342  2.4   94    1.5   0     0     967.3    NA       0.0000   9999     2850  0     0    
2019/05/07  20:56:01  BASE  2.46372  19   5.35668  342  2.3   94    1.5   0     0     967.3    NA       0.0000   9999     2890  0     0    
2019/05/07  20:57:01  BASE  2.58132  15   5.35668  342  2.3   94    1.5   0     0     967.3    NA       0.0000   9999     2820  0     0    
2019/05/07  20:58:01  BASE  2.60484  5    4.08072  1    2.4   94    1.5   0     0     967.4    NA       0.0000   9999     2820  0     0    
2019/05/07  20:59:01  BASE  1.77576  6    4.08072  1    2.4   94    1.6   0     0     967.4    NA       0.0000   9999     1540  0     0    
2019/05/07  21:00:01  BASE  1.22304  33   4.08072  1    2.4   94    1.6   0     0     967.4    NA       0.0000   9999     3150  0     0    
2019/05/07  21:01:01  BASE  1.54056  45   4.08072  1    2.4   94    1.6   0     0     967.4    NA       0.0000   9999     3150  0     0    
2019/05/07  21:02:01  BASE  2.05212  29   4.08072  1    2.4   94    1.6   0     0     967.4    NA       0.0000   9999     3180  0     0    
2019/05/07  21:03:01  BASE  2.83416  29   4.08072  1    2.4   94    1.5   0     0     967.4    NA       0.0000   9999     3120  0     0    
2019/05/07  21:04:01  BASE  3.822    26   4.89804  31   2.4   94    1.5   0     0     967.4    NA       0.0000   9999     3050  0     0    
2019/05/07  21:05:01  BASE  4.5276   24   5.59776  17   2.3   94    1.5   0     0     967.4    NA       0.0000   9999     3020  0     0    
2019/05/07  21:06:01  BASE  4.72752  15   5.68596  14   2.3   94    1.5   0     0     967.4    NA       0.0000   9999     3020  0     0    
2019/05/07  21:07:00  BASE  3.53976  352  5.68596  14   2.3   95    1.6   0     0     967.4    NA       0.0000   9999     2890  0     0    
2019/05/07  21:08:01  BASE  2.1462   335  5.68596  14   2.4   95    1.6   0     0     967.4    NA       0.0000   9999     2990  0     0    
2019/05/07  21:09:00  BASE  1.87572  7    5.68596  14   2.4   94    1.6   0     0     967.4    NA       0.0000   9999     2920  0     0    
2019/05/07  21:10:00  BASE  1.9698   34   5.68596  14   2.4   94    1.5   0     0     967.4    NA       0.0000   9999     2850  0     0    
2019/05/07  21:11:00  BASE  2.92236  47   5.68596  14   2.4   93    1.5   0     0     967.4    NA       0.0000   9999     2950  0     0    
2019/05/07  21:12:01  BASE  2.11092  40   5.68596  14   2.4   93    1.4   0     0     967.4    NA       0.0000   9999     2990  0     0    
2019/05/07  21:13:01  BASE  1.54644  38   5.68596  14   2.4   93    1.4   0     0     967.4    NA       0.0000   9999     3080  0     0    
2019/05/07  21:14:00  BASE  2.45784  51   5.68596  14   2.4   93    1.4   0     0     967.5    NA       0.0000   9999     2920  0     0    
2019/05/07  21:15:01  BASE  2.21088  22   5.68596  14   2.4   93    1.4   0     0     967.5    NA       0.0000   9999     2820  0     0    
2019/05/07  21:16:01  BASE  1.85808  359  5.35668  79   2.4   93    1.4   0     0     967.5    NA       0.0000   9999     3020  0     0    
2019/05/07  21:17:00  BASE  1.84632  5    5.35668  79   2.3   93    1.4   0     0     967.5    NA       0.0000   9999     2920  0     0    
2019/05/07  21:18:00  BASE  1.92276  35   5.35668  79   2.3   94    1.4   0     0     967.5    NA       0.0000   9999     3080  0     0    
2019/05/07  21:19:00  BASE  1.69344  53   5.35668  79   2.3   94    1.4   0     0     967.5    NA       0.0000   9999     3150  0     0    
2019/05/07  21:20:00  BASE  1.3818   66   5.35668  79   2.3   94    1.4   0     0     967.5    NA       0.0000   9999     3120  0     0    
2019/05/07  21:21:00  BASE  0.95256  98   3.93372  56   2.2   94    1.4   0     0     967.5    NA       0.0000   9999     3150  0     0    
2019/05/07  21:22:00  BASE  0.7938   95   3.93372  56   2.2   95    1.5   0     0     967.5    NA       0.0000   9999     3050  0     0    
2019/05/07  21:23:00  BASE  0.84672  71   2.96352  336  2.2   95    1.5   0     0     967.6    NA       0.0000   9999     3120  0     0    
2019/05/07  21:24:00  BASE  1.15836  52   2.96352  336  2.2   96    1.6   0     0     967.7    NA       0.0000   9999     3220  0     0    
2019/05/07  21:25:00  BASE  1.40532  22   2.96352  336  2.2   96    1.6   0     0     967.2    NA       0.0000   9999     3220  0     0    
2019/05/07  21:26:00  BASE  1.45824  14   2.96352  336  2.2   96    1.6   0     0     967.7    NA       0.0000   9999     3080  0     0    
2019/05/07  21:27:00  BASE  1.45236  36   2.1462   28   2.3   95    1.6   0     0     967.7    NA       0.0000   9999     3310  0     0    
2019/05/07  21:28:00  BASE  0.79968  56   2.1462   28   2.3   95    1.6   0     0     967.7    NA       0.0000   9999     3350  0     0    
2019/05/07  21:29:00  BASE  0.1176   22   2.1462   28   2.3   95    1.5   0     0     967.8    NA       0.0000   9999     3450  0     0    
2019/05/07  21:30:00  BASE  0        24   2.1462   28   2.3   94    1.5   0     0     967.8    NA       0.0000   9999     2920  0     0    
2019/05/07  21:31:00  BASE  1.01136  47   2.87532  43   2.4   94    1.5   0     0     967.6    NA       0.0000   9999     3180  0     0    
2019/05/07  21:32:01  BASE  1.57584  47   2.87532  43   2.4   94    1.4   0     0     967.7    NA       0.0000   9999     3310  0     0    
2019/05/07  21:33:00  BASE  1.36416  68   3.02232  31   2.4   93    1.4   0     0     967.8    NA       0.0000   9999     3380  0     0    
2019/05/07  21:34:00  BASE  1.98156  53   3.02232  31   2.4   93    1.4   0     0     967.9    NA       0.0000   9999     3580  0     0    
2019/05/07  21:35:00  BASE  2.45784  54   3.53976  64   2.4   93    1.3   0     0     968.2    NA       0.0000   9999     1540  0     0    
2019/05/07  21:36:00  BASE  2.42256  67   3.53976  64   2.3   93    1.3   0     0     968.2    NA       0.0000   9999     2430  0     0    
2019/05/07  21:37:00  BASE  2.42844  63   3.69264  44   2.3   93    1.3   0     0     968.2    NA       0.0000   9999     3250  0     0    
2019/05/07  21:38:00  BASE  1.65228  50   3.69264  44   2.3   93    1.3   0     0     968.3    NA       0.0000   9999     3220  0     0    
2019/05/07  21:39:00  BASE  1.59348  37   3.69264  44   2.2   93    1.2   0     0     968.3    NA       0.0000   9999     2820  3310  0    
2019/05/07  21:40:00  BASE  2.45196  36   4.41588  29   2.2   94    1.3   0     0     968.3    NA       0.0000   9999     2790  3450  0    
2019/05/07  21:41:00  BASE  3.19284  33   4.53936  27   2.2   94    1.3   0     0     968.3    NA       0.0000   9999     2620  3540  0    
2019/05/07  21:42:00  BASE  4.12188  28   4.89804  30   2.1   94    1.3   0     0     968.3    NA       0.0000   9999     2530  3410  0    
2019/05/07  21:43:00  BASE  4.4394   28   5.2332   27   2.1   95    1.4   0     0     968.3    NA       0.0000   9999     2430  2890  3480 
2019/05/07  21:44:00  BASE  4.66872  23   5.2332   27   2.1   95    1.4   0     0     968.4    NA       0.0000   9999     2400  0     0    
2019/05/07  21:45:00  BASE  5.03328  13   6.321    10   2.1   95    1.4   0     0     968.4    NA       0.0000   9999     2360  0     0    
2019/05/07  21:46:00  BASE  5.75064  7    6.65616  6    2.1   94    1.3   0     0     968.4    NA       0.0000   9999     2430  0     0    
2019/05/07  21:47:00  BASE  6.23868  5    6.65616  6    2.1   94    1.3   0     0     968.4    NA       0.0000   9999     2560  0     0    
2019/05/07  21:48:00  BASE  5.94468  357  6.65616  6    2.1   94    1.3   0     0     968.5    NA       0.0000   9999     2490  0     0    
2019/05/07  21:49:00  BASE  5.84472  350  6.65616  6    2.1   94    1.2   0     0     968.5    NA       0.0000   9999     2590  0     0    
2019/05/07  21:50:00  BASE  6.027    356  6.65616  6    2.1   94    1.2   0     0     968.5    NA       0.0000   9999     2430  0     0    
2019/05/07  21:51:00  BASE  6.027    359  6.65616  6    2.1   94    1.2   0     0     968.5    NA       0.0000   9999     2430  0     0    
2019/05/07  21:52:00  BASE  5.95056  359  6.65616  6    2.1   94    1.2   0     0     968.6    NA       0.0000   9999     2530  0     0    
2019/05/07  21:53:00  BASE  5.6448   360  6.65616  6    2.1   94    1.2   0     0     968.6    NA       0.0000   9999     2530  0     0    
2019/05/07  21:54:00  BASE  5.56836  3    6.65616  6    2.1   94    1.2   0     0     968.6    NA       0.0000   9999     2590  0     0    
2019/05/07  21:55:00  BASE  5.58012  8    6.65616  6    2.1   94    1.2   0     0     968.6    NA       0.0000   9999     2560  0     0    
2019/05/07  21:56:00  BASE  5.56248  6    6.62676  360  2.1   94    1.2   0     0     968.6    NA       0.0000   9999     2530  0     0    
2019/05/07  21:57:00  BASE  5.70948  9    6.62676  360  2.1   94    1.2   0     0     968.7    NA       0.0000   9999     2460  0     0    
2019/05/07  21:58:00  BASE  5.3508   9    6.62676  360  2.1   94    1.2   0     0     968.7    NA       0.0000   9999     2530  0     0    
2019/05/07  21:59:00  BASE  4.72164  4    6.62676  360  2.1   94    1.2   0     0     968.7    NA       0.0000   9999     2490  0     0    
2019/05/07  22:00:00  BASE  4.5864   3    6.53268  4    2.1   94    1.2   0     0     968.7    NA       0.0000   9999     2590  0     0    
2019/05/07  22:01:00  BASE  4.49232  7    6.53268  4    2.1   94    1.3   0     0     968.7    NA       0.0000   9999     2530  0     0    
2019/05/07  22:02:00  BASE  4.09836  8    6.44448  2    2.0   95    1.2   0     0     968.7    NA       0.0000   9999     2790  0     0    
2019/05/07  22:03:00  BASE  4.3806   7    6.44448  2    2.0   95    1.3   0     0     968.8    NA       0.0000   9999     2590  0     0    
2019/05/07  22:04:00  BASE  5.25084  3    6.80316  360  2.0   95    1.3   0     0     968.8    NA       0.0000   9999     2820  0     0    
2019/05/07  22:05:00  BASE  6.06816  360  6.80316  48   1.9   96    1.3   0     0     968.8    NA       0.0000   9999     2360  0     0    
2019/05/07  22:06:00  BASE  6.4974   356  7.2324   5    1.9   96    1.4   0     0     968.9    NA       0.0000   9999     2560  0     0    
2019/05/07  22:07:00  BASE  6.174    352  7.2324   5    1.9   97    1.4   0     0     968.9    NA       0.0000   9999     2460  0     0    
2019/05/07  22:08:00  BASE  6.10932  352  7.2324   5    1.9   97    1.5   0     0     968.9    NA       0.0000   9999     2560  0     0    
2019/05/07  22:09:00  BASE  6.42684  354  7.2324   5    2.0   97    1.5   0     0     969.0    NA       0.0000   9999     2590  3310  0    
2019/05/07  22:10:00  BASE  5.39196  353  7.2324   5    2.0   97    1.5   0     0     969.1    NA       0.0000   9999     2360  0     0    
2019/05/07  22:11:00  BASE  3.81612  343  7.2324   5    2.0   97    1.5   0     0     969.1    NA       0.0000   9999     2330  0     0    
2019/05/07  22:12:00  BASE  2.84004  344  7.2324   5    2.0   97    1.5   0     0     968.9    NA       0.0000   9999     2430  3220  0    
2019/05/07  22:13:00  BASE  3.22812  354  7.2324   5    1.9   97    1.4   0     0     968.9    NA       0.0000   9999     2530  3180  0    
2019/05/07  22:14:00  BASE  3.62796  347  7.2324   5    1.9   97    1.4   0     0     969.2    NA       0.0000   9999     2620  3250  0    
2019/05/07  22:15:00  BASE  2.75184  336  7.2324   5    1.8   97    1.3   0     0     969.2    NA       0.0000   9999     2690  3220  0    
2019/05/07  22:16:00  BASE  2.37552  340  7.13832  360  1.7   97    1.3   0     0     969.2    NA       0.0000   9999     2760  3350  0    
2019/05/07  22:17:00  BASE  2.54016  343  7.13832  360  1.7   98    1.4   0     0     969.2    NA       0.0000   9999     2850  0     0    
2019/05/07  22:18:00  BASE  2.84004  344  7.13832  360  1.6   98    1.4   0     0     969.2    NA       0.0000   9999     2850  0     0    
2019/05/07  22:19:00  BASE  3.78084  347  5.71536  5    1.6   99    1.4   0     0     969.2    NA       0.0000   9999     2660  0     0    
2019/05/07  22:20:00  BASE  4.95096  350  6.13872  1    1.6   99    1.5   0     0     969.2    NA       0.0000   9999     2430  0     0    
2019/05/07  22:21:00  BASE  4.78632  350  6.13872  1    1.7   100   1.6   0     0     969.3    NA       0.0000   9999     2360  0     0    
2019/05/07  22:22:00  BASE  3.96312  344  6.13872  1    1.7   100   1.7   0     0     969.4    NA       0.0000   9999     2360  0     0    
2019/05/07  22:23:00  BASE  3.8808   339  6.13872  1    1.7   100   1.7   0     0     969.3    NA       0.0000   9999     2300  0     0    
2019/05/07  22:24:00  BASE  4.03368  340  6.13872  1    1.8   99    1.7   0     0     969.5    NA       0.0000   9999     2260  0     0    
2019/05/07  22:25:00  BASE  4.15128  335  6.13872  1    1.8   99    1.6   0     0     969.4    NA       0.0000   9999     2330  0     0    
2019/05/07  22:26:00  BASE  4.93332  326  6.2034   327  1.7   99    1.6   0     0     969.5    NA       0.0000   9999     2260  0     0    
2019/05/07  22:27:00  BASE  5.42136  324  7.02072  334  1.7   99    1.6   0     0     969.5    NA       0.0000   9999     2230  0     0    
2019/05/07  22:28:00  BASE  5.2626   323  7.02072  334  1.7   99    1.6   0     0     969.6    NA       0.0000   9999     2170  0     0    
2019/05/07  22:29:00  BASE  5.42724  322  7.02072  334  1.7   99    1.6   0     0     969.6    NA       0.0000   9999     2230  0     0    
2019/05/07  22:30:00  BASE  5.47428  322  7.02072  334  1.7   100   1.6   0     0     969.6    NA       0.0000   9999     2130  0     0    
2019/05/07  22:31:00  BASE  5.48604  323  7.02072  334  1.6   100   1.6   0     0     969.7    NA       0.0000   9999     2130  0     0    
2019/05/07  22:32:00  BASE  5.96232  322  7.02072  334  1.6   100   1.6   0     0     969.7    NA       0.0000   9999     1940  0     0    
2019/05/07  22:33:00  BASE  6.44448  326  7.3206   335  1.6   100   1.6   0     0     969.7    NA       0.0000   9999     2070  0     0    
2019/05/07  22:34:01  BASE  6.78552  328  7.77336  323  1.6   100   1.6   0     0     969.7    NA       0.0000   9999     1940  0     0    
2019/05/07  22:35:00  BASE  6.65616  326  7.77336  323  1.6   100   1.6   0     0     969.7    NA       0.0000   9999     1970  0     0    
2019/05/07  22:36:00  BASE  6.70908  324  7.77336  323  1.6   100   1.6   0     0     969.8    NA       0.0000   9999     2030  0     0    
2019/05/07  22:37:00  BASE  7.10892  322  7.77336  324  1.6   100   1.6   0     0     969.8    NA       0.0000   9999     2000  0     0    
2019/05/07  22:38:00  BASE  7.03836  325  7.77336  324  1.5   100   1.5   0     0     969.8    NA       0.0000   9999     2070  0     0    
2019/05/07  22:39:00  BASE  7.26768  330  8.59068  327  1.5   100   1.5   0     0     969.8    NA       0.0000   9999     2000  0     0    
2019/05/07  22:40:00  BASE  8.01444  334  8.89056  333  1.5   100   1.5   0     0     969.8    NA       0.0000   UP       9999  2070  0    
2019/05/07  22:41:00  BASE  8.06148  334  8.89056  333  1.5   100   1.5   0     0     969.9    NA       0.0000   UP       9999  390   0    
2019/05/07  22:42:00  BASE  7.76748  333  8.89056  333  1.4   100   1.4   0     0     969.9    NA       0.0000   UP       9999  390   0    
2019/05/07  22:43:00  BASE  7.56756  331  8.89056  333  1.4   100   1.4   0     0     970.0    NA       0.0000   UP       9999  390   0    
2019/05/07  22:44:00  BASE  7.04424  328  8.89056  333  1.4   100   1.4   0     0     970.1    NA       0.0000   UP       9999  460   0    
2019/05/07  22:45:00  BASE  6.4092   325  8.89056  333  1.4   100   1.4   0     0     970.1    NA       0.0000   UP       9999  390   0    
2019/05/07  22:46:00  BASE  6.15048  325  8.89056  333  1.3   100   1.3   0     0     970.0    NA       0.0000   UP       9999  390   0    
2019/05/07  22:47:00  BASE  6.41508  331  8.89056  333  1.3   100   1.3   0     0     969.9    NA       0.0000   UP       9999  430   0    
2019/05/07  22:48:00  BASE  7.22064  339  8.89056  333  1.2   100   1.2   0     0     970.2    NA       0.0000   UP       9999  430   0    
2019/05/07  22:49:00  BASE  7.33824  342  8.89056  333  1.2   100   1.2   0     0     970.2    NA       0.0000   UP       9999  390   0    
2019/05/07  22:50:00  BASE  6.71496  340  8.67888  341  1.2   100   1.2   0     0     970.3    NA       0.0000   UP       9999  360   0    
2019/05/07  22:51:00  BASE  6.75024  337  8.67888  341  1.2   100   1.2   0     0     970.3    NA       0.0000   UP       9999  360   0    
2019/05/07  22:52:00  BASE  6.45624  334  8.67888  341  1.2   100   1.2   0     0     970.4    NA       0.0000   UP       9999  390   0    
2019/05/07  22:53:00  BASE  5.83884  332  8.67888  341  1.2   100   1.2   0     0     970.4    NA       0.0000   UP       9999  360   0    
2019/05/07  22:54:00  BASE  6.00348  332  8.67888  341  1.1   100   1.1   0     0     970.4    NA       0.0000   UP       9999  430   0    
2019/05/07  22:55:00  BASE  6.03288  332  8.67888  341  1.1   100   1.1   0     0     970.5    NA       0.0000   UP       9999  360   0    
2019/05/07  22:56:00  BASE  5.96232  334  8.67888  341  1.1   100   1.1   0     0     970.5    NA       0.0000   UP       9999  390   0    
2019/05/07  22:57:00  BASE  6.12696  338  8.67888  341  1.1   100   1.1   0     0     970.6    NA       0.0000   UP       9999  330   0    
2019/05/07  22:58:00  BASE  6.30336  340  7.95564  338  1.1   100   1.1   0     0     970.6    NA       0.0000   UP       9999  260   0    
2019/05/07  22:59:00  BASE  6.43272  339  7.95564  338  1.1   100   1.1   0     0     970.6    NA       0.0000   UP       9999  360   0    
2019/05/07  23:00:00  BASE  6.20928  336  7.95564  338  1.1   100   1.1   0     0     970.6    NA       0.0000   UP       9999  980   0    
2019/05/07  23:01:00  BASE  6.34452  335  7.74396  325  1.0   100   1.0   0     0     970.6    NA       0.0000   UP       9999  590   0    
2019/05/07  23:02:00  BASE  6.82668  334  7.74396  325  1.0   100   1.0   0     0     970.6    NA       0.0000   UP       9999  0     0    
2019/05/07  23:03:00  BASE  7.05012  333  7.83216  335  1.0   100   1.0   0     0     970.7    NA       0.0000   UP       9999  750   0    
2019/05/07  23:04:00  BASE  7.00896  334  7.83216  335  1.0   100   1.0   0     0     970.7    NA       0.0000   UP       9999  1020  0    
2019/05/07  23:05:00  BASE  7.06188  334  8.07912  342  1.0   100   1.0   0     0     970.8    NA       0.0000   UP       9999  1020  0    
2019/05/07  23:06:00  BASE  7.28532  334  8.4672   343  1.0   100   1.0   0     0     970.8    NA       0.0000   UP       9999  1020  0    
2019/05/07  23:07:00  BASE  7.2618   333  8.4672   343  1.0   100   1.0   0     0     970.8    NA       0.0000   9999     0     0     0    
2019/05/07  23:08:00  BASE  7.15596  333  8.4672   343  1.0   100   1.0   0     0     970.9    NA       0.0000   9999     0     0     0    
2019/05/07  23:09:00  BASE  7.20888  336  8.4672   343  1.0   100   1.0   0     0     970.9    NA       0.0000   9999     0     0     0    
2019/05/07  23:10:00  BASE  7.24416  336  8.4672   343  0.9   100   0.9   0     0     970.9    NA       0.0000   9999     0     0     0    
2019/05/07  23:11:00  BASE  7.47348  333  8.80236  331  0.9   100   0.9   0     0     970.9    NA       0.0000   9999     0     0     0    
2019/05/07  23:12:00  BASE  8.06736  330  8.89056  332  0.9   100   0.9   0     0     970.9    NA       0.0000   9999     1510  0     0    
2019/05/07  23:13:00  BASE  8.19672  331  9.07284  329  0.9   100   0.9   0     0     971.0    NA       0.0000   9999     1870  0     0    
2019/05/07  23:14:00  BASE  8.26728  331  9.10224  332  0.9   100   0.9   0     0     971.1    NA       0.0000   9999     690   2400  0    
2019/05/07  23:15:00  BASE  8.4084   329  9.10224  332  0.9   100   0.9   0     0     971.1    NA       0.0000   9999     620   2170  0    
2019/05/07  23:16:00  BASE  8.17908  328  9.10224  332  0.9   100   0.9   0     0     971.1    NA       0.0000   9999     430   2100  0    
2019/05/07  23:17:00  BASE  8.232    328  9.10224  332  0.9   100   0.9   0     0     971.2    NA       0.0000   9999     430   2130  0    
2019/05/07  23:18:00  BASE  8.12616  328  9.10224  332  0.9   100   0.9   0     0     971.2    NA       0.0000   9999     330   0     0    
2019/05/07  23:19:00  BASE  7.8498   329  9.10224  332  0.9   100   0.9   0     0     971.2    NA       0.0000   9999     260   0     0    
2019/05/07  23:20:00  BASE  7.86156  330  9.10224  332  0.9   100   0.9   0     0     971.2    NA       0.0000   9999     300   0     0    
2019/05/07  23:21:00  BASE  7.59696  330  9.10224  332  0.9   100   0.9   0     0     971.3    NA       0.0000   9999     360   0     0    
2019/05/07  23:22:00  BASE  7.06188  330  9.10224  332  0.8   100   0.8   0     0     971.3    NA       0.0000   9999     560   0     0    
2019/05/07  23:23:00  BASE  6.60912  331  9.10224  332  0.8   100   0.8   0     0     971.4    NA       0.0000   9999     560   0     0    
2019/05/07  23:24:00  BASE  6.28572  333  9.01404  326  0.8   100   0.8   0     0     971.4    NA       0.0000   9999     490   0     0    
2019/05/07  23:25:00  BASE  6.7032   333  9.01404  326  0.8   100   0.8   0     0     971.4    NA       0.0000   9999     560   0     0    
2019/05/07  23:26:00  BASE  7.42056  332  9.01404  326  0.8   100   0.8   0     0     971.4    NA       0.0000   9999     430   0     0    
2019/05/07  23:27:00  BASE  7.60872  332  8.62008  327  0.8   100   0.8   0     0     971.5    NA       0.0000   9999     390   0     0    
2019/05/07  23:28:00  BASE  7.25004  332  8.62008  327  0.8   100   0.8   0     0     971.5    NA       0.0000   9999     390   0     0    
2019/05/07  23:29:00  BASE  7.15596  334  8.62008  327  0.8   100   0.8   0     0     971.6    NA       0.0000   9999     390   0     0    
2019/05/07  23:30:00  BASE  7.7616   333  8.379    329  0.8   100   0.8   0     0     971.6    NA       0.0000   9999     330   0     0    
2019/05/07  23:31:00  BASE  7.93212  330  8.4672   329  0.8   100   0.8   0     0     971.6    NA       0.0000   9999     330   0     0    
2019/05/07  23:32:00  BASE  7.86744  331  8.4672   329  0.8   100   0.8   0     0     971.6    NA       0.0000   9999     360   0     0    
2019/05/07  23:33:00  BASE  8.12028  331  8.53188  329  0.8   100   0.8   0     0     971.7    NA       0.0000   9999     300   0     0    
2019/05/07  23:34:00  BASE  8.00268  330  8.53188  329  0.8   100   0.8   0     0     971.7    NA       0.0000   9999     200   0     0    
2019/05/07  23:35:00  BASE  7.4088   330  8.53188  329  0.8   100   0.8   0     0     971.7    NA       0.0000   9999     200   0     0    
2019/05/07  23:36:00  BASE  7.06188  332  8.53188  329  0.7   100   0.7   0     0     971.7    NA       0.0000   9999     300   0     0    
2019/05/07  23:37:00  BASE  7.27356  335  8.53188  329  0.7   100   0.7   0     0     971.7    NA       0.0000   9999     260   0     0    
2019/05/07  23:38:00  BASE  7.5264   333  8.53188  329  0.7   100   0.7   0     0     971.7    NA       0.0000   9999     0     0     0    
2019/05/07  23:39:00  BASE  7.40292  332  8.53188  329  0.7   100   0.7   0     0     971.8    NA       0.0000   9999     0     0     0    
2019/05/07  23:40:00  BASE  7.47348  334  8.53188  329  0.7   100   0.7   0     0     971.8    NA       0.0000   9999     0     0     0    
2019/05/07  23:41:00  BASE  7.4088   334  8.53188  329  0.6   100   0.6   0     0     971.8    NA       0.0000   9000     0     0     0    
2019/05/07  23:42:00  BASE  7.4676   334  8.53188  329  0.6   100   0.6   0     0     971.8    NA       0.0000   9000     0     0     0    
2019/05/07  23:43:00  BASE  7.97328  334  8.67888  335  0.6   100   0.6   0     0     971.8    NA       0.0000   9000     0     0     0    
2019/05/07  23:44:00  BASE  8.02032  334  8.67888  335  0.6   100   0.6   0     0     971.8    NA       0.0000   UP       BR    8000  0    
2019/05/07  23:45:00  BASE  7.87332  334  8.67888  335  0.6   100   0.6   0     0     971.9    NA       0.0000   UP       BR    8000  0    
2019/05/07  23:46:00  BASE  7.6146   336  8.67888  335  0.6   100   0.6   0     0     971.9    NA       0.0000   UP       BR    9000  0    
2019/05/07  23:47:00  BASE  7.39116  336  8.67888  335  0.6   100   0.6   0     0     972.0    NA       0.0000   UP       BR    8000  0    
2019/05/07  23:48:00  BASE  7.42056  334  8.67888  335  0.6   100   0.6   0     0     972.0    NA       0.0000   UP       BR    8000  0    
2019/05/07  23:49:00  BASE  7.51464  332  8.67888  335  0.6   100   0.6   0     0     972.1    NA       0.0000   UP       BR    9000  0    
2019/05/07  23:50:00  BASE  7.3206   333  8.67888  335  0.5   100   0.5   0     0     972.1    NA       0.0000   UP       BR    8000  0    
2019/05/07  23:51:00  BASE  7.10304  333  8.67888  335  0.5   100   0.5   0     0     972.1    NA       0.0000   UP       BR    8000  0    
2019/05/07  23:52:00  BASE  7.19124  332  8.67888  335  0.5   100   0.5   0     0     972.2    NA       0.0000   UP       BR    9000  0    
2019/05/07  23:53:00  BASE  7.31472  330  8.4672   332  0.5   100   0.5   0     0     972.2    NA       0.0000   UP       BR    9999  200  
2019/05/07  23:54:00  BASE  7.3206   330  8.13792  332  0.5   100   0.5   0     0     972.2    NA       0.0000   UP       BR    9000  230  
2019/05/07  23:55:00  BASE  7.18536  329  8.13792  332  0.5   100   0.5   0     0     972.3    NA       0.0000   UP       BR    9000  230  
2019/05/07  23:56:00  BASE  7.15596  329  8.13792  332  0.4   100   0.4   0     0     972.3    NA       0.0000   UP       BR    9000  200  
2019/05/07  23:57:00  BASE  7.43232  330  9.04344  324  0.4   100   0.4   0     0     972.3    NA       0.0000   UP       BR    9000  200  
2019/05/07  23:58:00  BASE  7.50288  329  9.04344  324  0.4   100   0.4   0     0     972.3    NA       0.0000   UP       BR    9000  230  
2019/05/07  23:59:00  BASE  7.30884  328  9.04344  324  0.4   100   0.4   0     0     972.3    NA       0.0000   UP       BR    9000  200